[[{"header":{"parameterUnit":"m.s-1","parameterCategory":1,"la1":30.6,"la2":29.2853,"lo1":-89.7004,"lo2":-87.6739,"dy":0.0162,"dx":0.0183,"nx":112,"ny":82,"refTime":"2023-08-01T12:00:00:Z","depth":0,"parameterNumber":2,"parameterNumberName":"U-component_of_WINDS"},"data":[0.0,0.0,0.0,0.0,0.0,0.0,0.0,0.0,0.0,0.0,0.0,0.0,0.0,0.0,0.0,0.0,0.0,0.0,0.0,0.0,0.0,0.0,0.0,0.0,0.0,0.0,0.0,0.0,0.0,0.0,0.0,0.0,0.0,0.0,0.0,0.0,0.0,0.0,0.0,0.0,0.0,0.0,0.0,0.0,0.0,0.0,0.0,0.0,0.0,0.0,0.0,0.0,0.0,0.0,0.0,0.0,0.0,0.0,0.0,0.0,0.0,0.0,0.0,0.0,0.0,0.0,0.0,0.0,0.0,0.0,0.0,0.0,0.0,0.0,0.0,0.0,0.0,0.0,0.0,0.0,0.0,0.0,0.0,0.0,0.0,0.0,0.0,0.0,0.0,0.0,1.2791,1.3845,1.4433,1.4738,1.4772,1.3295,1.1465,0.94,0.0,0.0,0.0,0.0,0.0,0.0,0.0,0.0,0.0,0.0,0.0,0.0,0.0,0.0,0.0,0.0,0.0,0.0,0.0,0.0,0.0,0.0,0.0,0.0,0.0,0.0,0.0,0.0,0.0,0.0,0.0,0.0,0.0,0.0,0.0,0.0,0.0,0.0,0.0,0.0,0.0,0.0,0.0,0.0,0.0,0.0,0.0,0.0,0.0,0.0,0.0,0.0,0.0,0.0,0.0,0.0,0.0,0.0,0.0,0.0,0.0,0.0,0.0,0.0,0.0,0.0,0.0,0.0,0.0,0.0,0.0,0.0,0.0,0.0,0.0,0.0,0.0,0.0,0.0,0.0,0.0,0.0,0.0,0.0,0.0,0.0,0.0,0.0,0.0,0.0,0.0,0.0,0.0,0.0,0.0,0.0,0.0,0.0,0.0,0.0,0.0,0.0,0.0,0.0,1.1521,1.3898,1.4078,1.4098,1.4207,1.2388,1.0652,0.9216,0.0,0.0,0.0,0.0,0.0,0.0,0.0,0.0,0.0,0.0,0.0,0.0,0.0,0.0,0.0,0.0,0.0,0.0,0.0,0.0,0.0,0.0,0.0,0.0,0.0,0.0,0.0,0.0,0.0,0.0,0.0,0.0,0.0,0.0,0.0,0.0,0.0,0.0,0.0,0.0,0.0,0.0,0.0,0.0,0.0,0.0,0.0,0.0,0.0,0.0,0.0,0.0,0.0,0.0,0.0,0.0,0.0,0.0,0.0,0.0,0.0,0.0,0.0,0.0,0.0,0.0,0.0,0.0,0.0,0.0,0.0,0.0,0.0,0.0,0.0,0.0,0.0,0.0,0.0,0.0,0.0,0.0,0.0,0.0,0.0,0.0,0.0,0.0,0.0,0.0,0.0,0.0,0.0,0.0,0.0,0.0,0.0,0.0,0.0,0.0,0.0,0.0,0.0,0.9132,1.0494,1.2561,1.29,1.3055,1.3268,1.181,1.0361,0.9111,0.7149,0.0,0.0,0.0,0.0,0.0,0.0,0.0,0.0,0.0,0.0,0.0,0.0,0.0,0.0,0.0,0.0,0.0,0.0,0.0,0.0,0.0,0.0,0.0,0.0,0.0,0.0,0.0,0.0,0.0,0.0,0.0,0.0,0.0,0.0,0.0,0.0,0.0,0.0,0.0,0.0,0.0,0.0,0.0,0.0,0.0,0.0,0.0,0.0,0.0,0.0,0.0,0.0,0.0,0.0,0.0,0.0,0.0,0.0,0.0,0.0,0.0,0.0,0.0,0.0,0.0,0.0,0.0,0.0,0.0,0.0,0.0,0.0,0.0,0.0,0.0,0.0,0.0,0.0,0.0,0.0,0.0,0.0,0.0,0.0,0.0,0.0,0.0,0.0,0.0,0.0,0.0,0.0,0.0,0.0,0.0,0.0,0.0,0.0,0.0,0.0,0.0,0.0,0.9254,1.0185,1.1476,1.2024,1.2372,1.2626,1.1335,1.0012,0.8835,0.6446,0.0,0.0,0.0,0.0,0.0,0.0,0.0,0.0,0.0,0.0,0.0,0.0,0.0,0.0,0.0,0.0,0.0,0.0,0.0,0.0,0.0,0.0,0.0,0.0,0.0,0.0,0.0,0.0,0.0,0.0,0.0,0.0,0.0,0.0,0.0,0.0,0.0,0.0,0.0,0.0,0.0,0.0,0.0,0.0,0.0,0.0,0.0,0.0,0.0,0.0,0.0,0.0,0.0,0.0,0.0,0.0,0.0,0.0,0.0,0.0,0.0,0.0,0.0,0.0,0.0,0.0,0.0,0.0,0.0,0.0,0.0,0.0,0.0,0.0,0.0,0.0,0.0,0.0,0.0,0.0,0.0,0.0,0.0,0.0,0.0,0.0,0.0,0.0,0.0,0.0,0.0,0.0,0.0,0.0,0.0,0.0,0.0,0.0,0.0,0.0,0.0,0.0,0.9741,1.1079,1.1623,1.2169,1.2565,1.2757,1.088,0.9223,0.8137,0.5748,0.0,0.0,0.0,0.0,0.0,0.0,0.0,0.0,0.0,0.0,0.0,0.0,0.0,0.0,0.0,0.0,0.0,0.0,0.0,0.0,0.0,0.0,0.0,0.0,0.0,0.0,0.0,0.0,0.0,0.0,0.0,0.0,0.0,0.0,0.0,0.0,0.0,0.0,0.0,0.0,0.0,0.0,0.0,0.0,0.0,0.0,0.0,0.0,0.0,0.0,0.0,0.0,0.0,0.0,0.0,0.0,0.0,0.0,0.0,0.0,0.0,0.0,0.0,0.0,0.0,0.0,0.0,0.0,0.0,0.0,0.0,0.0,0.0,0.0,0.0,0.0,0.0,0.0,0.0,0.0,0.0,0.0,0.0,0.0,0.0,0.0,0.0,0.0,0.0,0.0,0.0,0.0,0.0,0.0,0.0,0.0,0.0,0.0,0.0,0.0,0.0,0.0,0.9821,1.1076,1.2086,1.2489,1.2606,1.2371,1.0868,0.9434,0.8332,0.0,0.0,0.0,0.0,0.0,0.0,0.0,0.0,0.0,0.0,0.0,0.0,0.0,0.0,0.0,0.0,0.0,0.0,0.0,0.0,0.0,0.0,0.0,0.0,0.0,0.0,0.0,0.0,0.0,0.0,0.0,0.0,0.0,0.0,0.0,0.0,0.0,0.0,0.0,0.0,0.0,0.0,0.0,0.0,0.0,0.0,0.0,0.0,0.0,0.0,0.0,0.0,0.0,0.0,0.0,0.0,0.0,0.0,0.0,0.0,0.0,0.0,0.0,0.0,0.0,0.0,0.0,0.0,0.0,0.0,0.0,0.0,0.0,0.0,0.0,0.0,0.0,0.0,0.0,0.0,0.0,0.0,0.0,0.0,0.0,0.0,0.0,0.0,0.0,0.0,0.0,0.0,0.0,0.0,0.0,0.0,0.0,0.0,0.0,0.0,0.0,0.0,0.9132,1.044,1.1584,1.2308,1.2588,1.2521,1.1982,1.0409,0.9195,0.8561,0.0,0.0,0.0,0.0,0.0,0.0,0.0,0.0,0.0,0.0,0.0,0.0,0.0,0.0,0.0,0.0,0.0,0.0,0.0,0.0,0.0,0.0,0.0,0.0,0.0,0.0,0.0,0.0,0.0,0.0,0.0,0.0,0.0,0.0,0.0,0.0,0.0,0.0,0.0,0.0,0.0,0.0,0.0,0.0,0.0,0.0,0.0,0.0,0.0,0.0,0.0,0.0,0.0,0.0,0.0,0.0,0.0,0.0,0.0,0.0,0.0,0.0,0.0,0.0,0.0,0.0,0.0,0.0,0.0,0.0,0.0,0.0,0.0,0.0,0.0,0.0,0.0,0.0,0.0,0.0,0.0,0.0,0.0,0.0,0.0,0.0,0.0,0.0,0.0,0.0,0.0,0.0,0.0,0.0,0.0,0.0,0.0,0.0,0.0,0.0,0.0,0.0,0.9917,1.1742,1.279,1.2163,1.2407,1.2332,1.1659,0.9456,0.8293,0.0,0.0,0.0,0.0,0.0,0.0,0.0,0.0,0.0,0.0,0.0,0.0,0.0,0.0,0.0,0.0,0.0,0.0,0.0,0.0,0.0,0.0,0.0,0.0,0.0,0.0,0.0,0.0,0.0,0.0,0.0,0.0,0.0,0.0,0.0,0.0,0.0,0.0,0.0,0.0,0.0,0.0,0.0,0.0,0.0,0.0,0.0,0.0,0.0,0.0,0.0,0.0,0.0,0.0,0.0,0.0,0.0,0.0,0.0,0.0,0.0,0.0,0.0,0.0,0.0,0.0,0.0,0.0,0.0,0.0,0.0,0.0,0.0,0.0,0.0,0.0,0.0,0.0,0.0,0.0,0.0,0.0,0.0,0.0,0.0,0.0,0.0,0.0,0.0,0.0,0.0,0.0,0.0,0.0,0.0,0.0,0.0,0.0,0.0,0.0,0.0,0.0,0.0,1.0756,1.2395,1.3351,1.2779,1.2872,1.2456,1.1211,0.9469,0.7984,0.6896,0.0,0.0,0.0,0.0,0.0,0.0,0.0,0.0,0.0,0.0,0.0,0.0,0.0,0.0,0.0,0.0,0.0,0.0,0.0,0.0,0.0,0.0,0.0,0.0,0.0,0.0,0.0,0.0,0.0,0.0,0.0,0.0,0.0,0.0,0.0,0.0,0.0,0.0,0.0,0.0,0.0,0.0,0.0,0.0,0.0,0.0,0.0,0.0,0.0,0.0,0.0,0.0,0.0,0.0,0.0,0.0,0.0,0.0,0.0,0.0,0.0,0.0,0.0,0.0,0.0,0.0,0.0,0.0,0.0,0.0,0.0,0.0,0.0,0.0,0.0,0.0,0.0,0.0,0.0,0.0,0.0,0.0,0.0,0.0,0.0,0.0,0.0,0.0,0.0,0.0,0.0,0.0,0.0,0.0,0.0,0.0,0.0,0.0,0.0,0.0,0.0,0.0,1.1895,1.3239,1.3786,1.2822,1.2807,1.2239,1.0669,0.9322,0.7858,0.6189,0.0,0.0,0.0,0.0,0.0,0.0,0.0,0.0,0.0,0.0,0.0,0.0,0.0,0.0,0.0,0.0,0.0,0.0,0.0,0.0,0.0,0.0,0.0,0.0,0.0,0.0,0.0,0.0,0.0,0.0,0.0,0.0,0.0,0.0,0.0,0.0,0.0,0.0,0.0,0.0,0.0,0.0,0.0,0.0,0.0,0.0,0.0,0.0,0.0,0.0,0.0,0.0,0.0,0.0,0.0,0.0,0.0,0.0,0.0,0.0,0.0,0.0,0.0,0.0,0.0,0.0,0.0,0.0,0.0,0.0,0.0,0.0,0.0,0.0,0.0,0.0,0.0,0.0,0.0,0.0,0.0,0.0,0.0,0.0,0.0,0.0,0.0,0.0,0.0,0.0,0.0,0.0,0.0,0.0,0.0,0.0,0.0,0.0,0.0,0.0,0.0,0.0,1.3129,1.4102,1.411,1.25,1.2433,1.1821,1.0142,0.9073,0.7892,0.6458,0.0,0.0,0.0,0.0,0.0,0.0,0.0,0.0,0.0,0.0,0.0,0.0,0.0,0.0,0.0,0.0,0.0,0.0,0.0,0.0,0.0,0.0,0.0,0.0,0.0,0.0,0.0,0.0,0.0,0.0,0.0,0.0,0.0,0.0,0.0,0.0,0.0,0.0,0.0,0.0,0.0,0.0,0.0,0.0,0.0,0.0,0.0,0.0,0.0,0.0,0.0,0.0,0.0,0.0,0.0,0.0,0.0,0.0,0.0,0.0,2.1446,2.028,0.0,0.0,0.0,0.0,0.0,0.0,0.0,0.0,0.0,0.0,0.0,0.0,0.0,0.0,0.0,0.0,0.0,0.0,0.0,0.0,0.0,0.0,0.0,0.0,0.0,0.0,0.0,0.0,0.0,0.0,0.0,0.0,0.0,0.0,0.0,0.0,0.0,0.0,0.0,0.0,1.3495,1.4342,1.4322,1.2711,1.2552,1.188,1.0155,0.9079,0.8254,0.7652,0.6096,0.0,0.0,0.0,0.0,0.0,0.0,0.0,0.0,0.0,0.0,0.0,0.0,0.0,0.0,0.0,0.0,0.0,0.0,0.0,0.0,0.0,0.0,0.0,0.0,0.0,0.0,0.0,0.0,0.0,0.0,0.0,0.0,0.0,0.0,0.0,0.0,0.0,0.0,0.0,0.0,0.0,0.0,0.0,0.0,0.0,0.0,0.0,0.0,0.0,0.0,0.0,0.0,0.0,0.0,0.0,0.0,0.0,0.0,0.0,2.38,2.25,0.0,0.0,0.0,0.0,0.0,0.0,0.0,0.0,0.0,0.0,0.0,0.0,0.0,0.0,0.0,0.0,0.0,0.0,0.0,0.0,0.0,0.0,0.0,0.0,0.0,0.0,0.0,0.0,0.0,0.0,0.0,0.0,0.0,0.0,0.0,0.0,0.0,0.0,0.0,0.0,1.5459,1.57,1.5293,1.4026,1.3491,1.2517,1.0731,0.9923,0.907,0.8011,0.6981,0.0,0.0,0.0,0.0,0.0,0.0,0.0,0.0,0.0,0.0,0.0,0.0,0.0,0.0,0.0,0.0,0.0,0.0,0.0,0.0,0.0,0.0,0.0,0.0,0.0,0.0,0.0,0.0,0.0,0.0,0.0,0.0,0.0,0.0,0.0,0.0,0.0,0.0,0.0,0.0,0.0,0.0,0.0,0.0,0.0,0.0,0.0,0.0,0.0,0.0,0.0,0.0,0.0,2.4515,2.536,2.6419,2.8764,2.9626,2.9128,2.6839,2.5195,2.3884,2.2108,0.0,0.0,0.0,0.0,0.0,0.0,0.0,0.0,0.0,0.0,0.0,0.0,0.0,0.0,0.0,0.0,0.0,0.0,0.0,0.0,0.0,0.0,3.9496,3.9493,3.922,3.7747,3.3321,0.0,0.0,0.0,0.0,0.0,0.0,0.0,0.0,0.0,0.0,0.0,1.7562,1.707,1.6256,1.5388,1.443,1.314,1.1304,1.0936,1.0077,0.8407,0.8098,0.7731,0.0,0.0,0.0,0.0,0.0,0.0,0.0,0.0,0.0,0.0,0.0,0.0,0.0,0.0,0.0,0.0,0.0,0.0,0.0,0.0,0.0,0.0,0.0,0.0,0.0,0.0,0.0,0.0,0.0,0.0,0.0,0.0,2.288,2.3977,0.0,0.0,0.0,0.0,0.0,0.0,0.0,0.0,0.0,0.0,0.0,0.0,0.0,1.9823,2.4112,2.4155,2.4036,2.385,2.8135,2.99,2.9405,3.1674,3.2704,3.262,3.2258,0.0,2.4287,2.4726,0.0,0.0,0.0,0.0,0.0,0.0,0.0,0.0,0.0,0.0,0.0,0.0,0.0,0.0,0.0,0.0,0.0,0.0,0.0,0.0,0.0,0.0,4.3027,4.3022,4.1867,4.0361,3.8918,3.4304,2.981,2.7676,2.4841,2.2717,0.0,0.0,0.0,0.0,0.0,0.0,1.7849,1.714,1.6246,1.5319,1.4371,1.3034,1.1095,1.1332,1.1083,0.9967,1.0386,1.0749,1.0866,1.0238,0.0,0.0,0.0,0.0,0.0,0.0,0.0,0.0,0.0,0.0,0.0,0.0,0.0,0.0,0.0,0.0,0.0,0.0,0.0,0.0,0.0,0.0,0.0,0.0,0.0,0.0,0.0,0.0,0.0,2.3257,2.5845,2.5873,2.6702,2.6387,0.0,0.0,0.0,0.0,0.0,0.0,0.0,0.0,0.0,1.5884,1.7831,1.9774,2.1797,2.3416,2.5776,2.8963,3.2418,3.3575,3.2774,3.5114,3.5983,3.5704,3.6039,3.467,3.2028,2.9194,2.6428,2.4049,0.0,0.0,0.0,0.0,2.5738,2.9851,3.7931,4.0474,4.0127,3.994,0.0,0.0,0.0,0.0,0.0,0.0,0.0,4.271,4.3626,4.4135,4.4433,4.4433,4.3845,4.2804,4.0974,3.8127,3.4805,3.1075,2.8357,2.6205,2.4754,2.2769,0.0,0.0,0.0,2.0092,2.0092,1.9334,1.8429,1.7449,1.5981,1.4494,1.2993,1.25,1.1869,1.0939,1.1497,1.2006,1.2329,1.2496,1.2753,0.0,0.0,0.0,0.0,0.0,0.0,0.0,0.0,0.0,0.0,0.0,0.0,0.0,0.0,0.0,0.0,0.0,0.0,0.0,0.0,0.0,0.0,0.0,0.0,0.0,0.0,0.0,0.0,2.6404,2.8142,2.7691,2.8883,2.8647,0.0,0.0,0.0,0.0,0.0,0.0,1.2676,1.0934,1.1522,1.4828,1.9008,2.1178,2.113,2.4801,2.9141,3.4115,3.5614,3.6263,3.627,3.7908,3.8278,3.7775,3.8237,3.8391,3.8003,3.3016,2.9956,2.85,2.917,2.798,2.6221,2.9039,3.1809,3.4986,4.1323,4.3498,4.3447,4.3011,4.2492,4.2025,4.1544,0.0,0.0,0.0,0.0,4.4384,4.5109,4.5475,4.5585,4.5371,4.5155,4.441,4.23,4.0976,3.8808,3.4025,3.1697,2.9743,2.7401,2.557,0.0,2.3833,2.3022,2.2382,2.2167,2.1354,2.0425,1.9381,1.7538,1.5837,1.4481,1.3546,1.2762,1.21,1.2735,1.337,1.3879,1.483,1.5452,1.5698,0.0,0.0,0.0,0.0,0.0,0.0,0.0,0.0,0.0,0.0,0.0,0.0,0.0,0.0,0.0,0.0,0.0,0.0,0.0,0.0,0.0,0.0,0.0,0.0,0.0,0.0,0.0,0.0,0.0,2.9939,3.0615,0.0,0.0,0.0,0.0,2.2025,1.9893,1.7894,1.5968,1.2012,1.141,1.4889,2.1155,2.4553,2.475,3.0454,3.4673,3.7362,3.6626,3.7552,3.9817,3.9454,3.8947,3.8351,3.8408,3.8391,3.8165,3.5137,3.4105,3.4499,3.4987,3.5326,3.5669,3.6287,3.687,3.8096,4.3364,4.5182,4.5204,4.5383,4.4757,4.3908,4.3491,4.3023,0.0,0.0,4.5107,4.5918,4.6084,4.6741,4.7171,4.6425,4.5605,4.4746,4.3776,4.2236,3.9998,3.6483,3.4394,3.2636,3.0858,0.0,2.748,2.582,2.4823,2.3977,2.3135,2.2224,2.1235,2.0153,1.8302,1.6362,1.4472,1.4083,1.3913,1.3878,1.4674,1.5584,1.6566,1.7575,1.8205,1.8403,1.8474,0.0,0.0,0.0,0.0,0.0,0.0,0.0,0.0,0.0,0.0,0.0,0.0,0.0,0.0,0.0,0.0,0.0,0.0,0.0,0.0,0.0,0.0,0.0,0.0,0.0,0.0,0.0,0.0,3.2269,3.2981,0.0,3.0565,2.961,2.8192,2.5967,2.4034,2.1978,1.9709,1.9372,1.7919,1.4952,2.7288,3.3929,3.3802,3.6054,3.7477,3.7987,3.9153,3.983,4.0138,4.1488,4.1956,4.1723,4.1723,4.1723,4.17,4.1095,3.9828,3.8302,3.8832,3.9112,3.934,3.9783,4.0247,4.0899,4.2741,4.4241,4.5167,4.4381,4.4005,4.3924,4.4045,4.4156,4.4497,4.5654,4.5957,4.6212,4.7423,4.7612,4.7424,4.7132,4.683,4.6069,4.4123,4.3216,4.1752,3.8277,3.6243,3.4528,3.2775,3.1046,2.9506,2.8323,2.739,2.6337,2.4884,2.4339,2.3245,2.1042,1.9533,1.8098,1.6671,1.5847,1.5455,1.5551,1.6278,1.6992,1.7617,1.9058,1.9931,2.0139,2.075,2.1107,0.0,0.0,0.0,0.0,0.0,0.0,0.0,0.0,0.0,0.0,0.0,0.0,0.0,0.0,0.0,0.0,0.0,0.0,0.0,0.0,0.0,0.0,0.0,0.0,0.0,3.1398,3.3195,3.3812,3.4364,3.3955,3.2124,3.1491,3.0366,2.84,2.7317,2.5925,2.4,2.5672,2.5281,2.215,3.2567,3.8423,3.8822,3.8921,3.9234,3.9804,4.1189,4.1841,4.1903,4.3306,4.3923,4.3923,4.3687,4.3747,4.3981,4.44,4.3512,4.1835,4.1171,4.0888,4.0982,4.1426,4.1823,4.2079,4.2246,4.3486,4.4895,4.4034,4.3973,4.4225,4.4335,4.4669,4.5186,4.6033,4.6484,4.6836,4.7512,4.7774,4.7729,4.7196,4.7057,4.644,4.4161,4.367,4.2713,3.9524,3.7792,3.6208,3.4159,3.2592,3.1253,3.0076,2.9153,2.8071,2.6605,2.603,2.4812,2.228,2.0766,1.9345,1.7928,1.6861,1.6409,1.6758,1.7257,1.7802,1.838,2.0105,2.1157,2.1362,2.2318,2.2697,2.2502,0.0,0.0,0.0,0.0,0.0,0.0,0.0,0.0,0.0,0.0,0.0,0.0,0.0,0.0,0.0,0.0,0.0,0.0,0.0,0.0,0.0,0.0,0.0,2.9791,3.2604,3.4506,3.4523,3.4669,3.4176,3.2832,3.2449,3.1357,2.9167,2.9562,2.9554,2.8778,3.0224,3.2665,3.6164,3.6472,3.7415,3.911,3.8895,4.016,4.281,4.2544,4.3472,4.5371,4.4848,4.4694,4.4722,4.4056,4.4173,4.4778,4.4778,4.5043,4.513,4.2181,4.1073,4.1103,4.1461,4.1604,4.1692,4.2163,4.3234,4.4458,4.4613,4.4766,4.4868,4.4434,4.4522,4.487,4.5218,4.6665,4.7774,4.6332,4.7259,4.8165,4.6592,4.6203,4.5715,4.3962,4.3588,4.2797,4.0193,3.9059,3.7712,3.5124,3.3924,3.2739,3.1022,3.0024,0.0,2.8167,2.7152,2.5792,2.384,2.1976,2.0067,1.8055,1.7034,1.6794,1.7506,1.7611,1.8036,1.8961,2.0798,2.1914,2.2174,2.3131,2.3303,2.2612,0.0,0.0,0.0,0.0,0.0,0.0,0.0,0.0,0.0,0.0,0.0,0.0,0.0,0.0,0.0,0.0,0.0,0.0,0.0,0.0,0.0,2.6892,2.9491,3.1506,3.3363,3.4735,3.5355,3.5467,3.5206,3.4541,3.4025,3.3104,3.1628,3.1835,3.1951,3.1721,3.2283,3.3575,3.5648,3.7826,3.9144,3.9531,4.0226,4.0855,4.1395,4.4348,4.5617,4.5371,4.5264,4.6135,4.7784,4.8082,4.8333,4.8524,4.8524,4.7533,4.5835,4.4646,4.4418,4.4484,4.2384,4.1823,4.2121,4.2246,4.2749,4.3335,4.3373,4.3543,4.3789,4.391,4.4202,4.4723,4.568,4.6066,4.6395,4.732,4.753,4.7408,4.7017,4.6484,4.5596,4.3895,4.3033,4.1995,4.0014,3.9374,3.8549,3.6678,3.51,3.3708,3.2613,3.1706,3.0597,2.9072,2.7945,2.6549,2.4606,2.3254,2.167,1.9703,1.9128,1.8713,1.8395,1.8341,1.8503,1.8912,2.0678,2.2331,2.3822,2.4158,2.458,0.0,0.0,0.0,0.0,0.0,0.0,0.0,0.0,0.0,0.0,0.0,0.0,0.0,0.0,0.0,0.0,0.0,0.0,0.0,0.0,0.0,0.0,2.7774,3.0048,3.2298,3.376,3.4907,3.5759,3.5949,3.5788,3.5266,3.5022,3.4524,3.3565,3.3699,3.3883,3.3949,3.4046,3.486,3.6494,3.8246,3.9799,4.1125,4.1681,4.2759,4.4371,4.6157,4.725,4.7716,4.7447,4.8077,4.9445,4.9818,4.9286,4.8183,4.9743,4.9497,4.7996,0.0,0.0,0.0,0.0,4.2079,4.2287,4.2287,4.2432,4.267,4.2862,4.3013,4.3214,4.3594,4.398,4.4401,4.5247,4.5608,4.5912,4.6743,4.6962,4.6912,4.6648,4.5963,4.501,4.3693,4.271,4.1676,4.0328,3.9651,0.0,3.7649,3.5994,3.4425,3.3167,3.2224,3.1164,2.9759,2.8345,2.6878,2.5317,2.3903,2.2263,2.0318,1.9948,0.0,0.0,0.0,1.8849,1.9811,2.1316,0.0,0.0,0.0,2.5358,2.5981,2.6674,0.0,0.0,2.7646,2.8082,0.0,0.0,0.0,0.0,0.0,0.0,0.0,0.0,0.0,0.0,0.0,0.0,0.0,0.0,0.0,0.0,2.8643,3.0263,3.2513,3.3772,3.4815,3.5797,3.6002,3.5907,3.5428,3.5562,3.548,3.5011,3.5208,3.5398,3.5536,3.5697,0.0,0.0,0.0,4.0092,4.314,4.3355,4.5335,4.9032,4.8015,4.8688,5.0891,5.0337,5.0109,5.0109,5.0109,4.8571,4.622,4.9151,5.0417,5.0189,4.736,4.627,4.595,4.3276,4.2328,4.2369,4.2369,0.0,0.0,4.2768,4.292,4.2995,4.3461,4.3763,4.4017,4.4364,4.521,4.5865,4.5306,4.5878,4.6451,4.5816,4.4959,4.4139,4.3415,4.2458,4.1533,4.0808,3.9865,3.8911,3.8112,3.6661,3.4968,3.3075,3.2124,3.125,3.0208,2.8427,2.693,2.6014,2.4244,0.0,2.0515,2.0158,1.9618,1.8644,1.851,1.9339,2.1235,2.2236,2.3196,2.4154,2.506,2.5651,2.5909,2.7401,2.826,2.8501,2.7926,2.8029,0.0,0.0,0.0,0.0,0.0,0.0,0.0,0.0,0.0,0.0,0.0,0.0,0.0,0.0,0.0,2.7952,2.9003,3.0282,3.2555,3.3085,3.3733,3.5067,3.5297,3.5669,3.6342,3.5542,3.5258,3.5971,3.6114,3.6255,3.6445,3.7578,3.867,3.9675,4.1121,4.2459,4.3642,4.5735,4.706,4.7626,4.9758,0.0,5.0891,5.0782,5.0727,5.0727,5.0727,5.0377,4.9677,4.7855,4.7364,4.7696,4.7091,4.686,4.6468,4.3405,4.2512,4.2768,4.2768,4.2768,4.2824,4.2882,4.2957,4.3105,4.3303,4.3511,0.0,4.4091,4.4486,4.4829,4.4865,4.516,4.5434,4.5381,4.4266,4.3181,4.3076,4.1813,4.063,4.0492,3.9704,3.8778,3.7898,3.6936,3.5496,3.3077,3.2523,3.1762,3.0075,2.8299,2.7058,2.6656,2.4927,2.3299,2.2075,2.1662,2.1143,2.0293,2.0219,2.0732,2.1888,2.2175,2.2857,2.4018,2.428,2.5113,2.6617,2.699,2.7866,2.921,2.9177,2.927,0.0,0.0,0.0,0.0,0.0,0.0,0.0,0.0,0.0,0.0,0.0,2.3214,2.5067,0.0,2.6312,2.831,2.8876,2.9695,3.1579,3.2167,3.2942,3.4421,3.5094,3.5692,3.6295,3.6191,3.6343,3.697,3.7095,3.738,3.7862,3.86,3.9696,4.1294,4.23,4.3544,4.5129,4.6759,4.7782,4.8217,4.9764,5.0773,5.1298,5.1034,5.0891,5.0891,5.0891,5.0891,5.0699,4.7802,4.6749,4.6998,4.6998,4.7116,4.696,4.376,4.2747,4.2882,4.2882,4.2882,4.2882,4.2882,4.2938,4.3032,4.316,4.3339,4.3511,4.3809,4.4121,4.4402,4.464,4.4852,4.5023,4.5175,4.4,4.2852,4.2887,4.1564,4.0358,4.0375,3.9618,3.8687,3.7829,3.6954,3.5605,3.3477,3.2726,3.1863,3.0434,2.8727,2.7419,2.6817,2.5454,2.3982,2.2439,2.1552,2.0945,2.057,2.0964,2.1464,2.2036,2.2521,2.3115,2.3831,2.4338,2.5063,2.6013,2.6499,2.7391,2.8656,2.8716,2.902,0.0,0.0,0.0,0.0,0.0,0.0,0.0,0.0,1.9367,2.1803,2.3031,2.4555,2.7406,2.7148,2.6999,2.8442,2.861,2.9049,3.037,3.1201,3.2173,3.3439,3.4725,3.5671,3.6037,3.6788,3.7398,3.7721,3.8007,3.8455,3.9156,3.9463,4.06,4.2781,4.314,4.4479,4.692,4.7711,4.858,4.9546,4.9808,5.0557,5.169,5.1141,5.0891,5.0891,5.0891,5.0539,4.9838,4.77,4.6906,4.6998,4.6998,4.6846,4.6344,4.3743,4.2768,4.2786,4.2824,4.2844,4.2844,4.2862,4.29,4.2938,4.3049,4.3178,4.3356,4.3612,4.3905,4.421,4.4449,4.4685,4.4808,4.4801,4.3735,4.2697,4.2565,4.1208,4.004,4.0077,3.9183,3.8175,3.7546,3.6578,3.54,3.3809,3.2788,3.1824,3.0839,2.9169,2.7803,2.7011,2.5868,2.4407,2.2518,2.1388,2.0786,2.0803,2.1487,2.194,2.2159,2.2882,2.3407,2.3634,2.4404,2.4932,2.5142,2.5923,2.6741,2.7613,2.7592,2.8236,1.4286,1.4953,1.5002,1.3311,1.4808,1.6816,0.0,0.0,2.1904,2.2243,2.4879,2.7251,2.766,2.7625,2.7794,2.8565,2.8595,2.8778,2.9558,3.0439,3.1133,3.1411,3.3494,3.5241,3.6185,3.6524,3.7039,3.7895,3.8651,3.9173,3.942,4.0708,4.214,4.3704,4.469,4.6287,4.8623,4.9592,5.0289,5.0703,5.1701,5.197,5.169,5.1141,5.0891,5.0891,5.0891,4.9311,4.6713,4.6411,4.656,4.6998,4.6998,4.5329,4.2851,4.2494,4.2369,4.2391,4.257,4.267,4.2747,4.2765,4.2842,4.2938,4.3049,4.316,4.3268,4.3529,4.3781,4.3992,4.4266,4.4458,4.439,4.3882,4.309,4.2272,4.1698,4.0253,3.9051,3.8995,3.768,3.6558,3.6483,3.5627,3.4639,3.3656,3.2711,3.1764,3.082,2.9165,2.8001,2.7721,2.6093,2.4451,2.3049,2.2685,2.2453,2.2285,2.2371,2.2485,2.2703,2.2867,2.3119,2.343,2.3661,2.415,2.4946,2.5103,2.5645,2.656,2.6512,2.7468,1.5458,1.4735,1.415,1.5778,1.8014,1.991,2.0224,2.1451,2.2487,2.2338,2.5055,2.7187,2.6295,2.6138,2.6353,2.7087,2.7213,2.7632,2.8778,2.9375,3.0144,3.127,3.3333,3.4996,3.5769,3.6492,3.7286,3.8212,3.8594,3.9246,4.0247,4.0835,4.2304,4.479,4.5301,4.6684,4.919,4.9495,5.0132,5.114,5.2046,5.2246,5.169,5.1141,5.0891,5.0785,4.896,4.7432,4.6172,4.6172,4.6319,4.6512,4.6512,4.5904,4.5035,4.5035,4.3942,4.2539,4.3248,4.3131,4.267,4.2783,4.2822,4.2842,4.2956,4.3105,4.3232,4.3373,4.3631,4.3929,4.4085,4.397,4.3735,4.3491,4.254,4.1616,4.1342,4.0401,3.9451,3.8897,3.7832,3.6806,3.6272,3.5417,3.4655,3.4216,3.3342,3.2411,3.1461,3.0234,2.8946,2.7702,2.5899,2.4492,2.3821,2.318,2.2738,2.2569,2.2141,2.2142,2.2668,2.2306,2.2399,2.3102,2.3199,2.3478,2.3916,2.4009,2.4536,2.5407,2.5425,2.6154,1.5088,1.4382,1.4616,1.8278,2.0643,2.2118,2.2349,2.322,2.3691,2.263,2.4286,2.5558,2.4396,2.4173,2.4579,2.5885,2.6152,2.6667,2.8014,2.8631,2.9541,3.1115,3.2871,3.4401,3.5584,3.6862,3.7966,3.8847,3.9135,3.9855,4.1254,4.1631,4.3014,4.5548,4.5818,4.7062,4.9358,4.925,4.9719,5.0824,5.1991,5.2275,5.1672,5.0396,5.0277,5.0964,4.8537,4.7029,4.6172,4.6172,4.6172,4.6172,4.6172,4.6416,4.6795,4.6795,4.5205,4.3166,4.3811,4.3386,4.2588,4.2685,4.2745,4.2822,4.2862,4.305,4.3232,4.3356,4.345,4.3545,4.3652,4.3285,4.2808,4.2652,4.1863,4.1056,4.0851,4.022,3.9523,3.8873,3.7867,3.6899,3.6232,3.5376,3.4747,3.4666,3.4033,3.3228,3.2296,3.1117,2.9596,2.7658,2.5979,2.4811,2.4373,2.3406,2.2764,2.2632,2.185,2.1652,2.2226,2.1713,2.1756,2.2461,2.2772,2.2977,2.3095,2.3217,2.3596,2.4266,2.4314,2.4706,1.2803,1.4728,1.8293,2.1005,2.2192,2.2685,2.2685,2.5023,2.6316,2.3305,2.2556,2.2383,2.214,2.2094,2.2946,2.5592,2.6014,2.6337,2.7289,2.8329,2.9384,3.0415,3.1567,3.333,3.6039,3.7837,3.9158,3.9909,4.0745,4.1557,4.2308,4.3754,4.4967,4.5772,4.6559,4.773,4.9383,4.9376,4.946,4.9586,5.1759,5.2397,5.1583,4.8532,4.88,5.164,5.1035,4.903,4.6172,4.6172,4.6172,4.6172,4.6172,4.6221,4.6221,4.6221,4.5534,4.4482,4.4036,4.3298,4.2503,4.2503,4.2645,4.2822,4.2862,4.305,4.3232,4.3529,4.3092,4.258,4.2876,4.2321,4.1605,4.1111,4.096,4.0702,4.0008,3.9261,3.8715,3.8634,3.727,3.6135,3.6196,3.5376,3.4708,3.4788,3.4586,3.4136,3.3269,3.1427,2.9502,2.7682,2.6555,2.554,2.4501,2.3482,2.2842,2.2712,2.1708,2.1167,2.1343,2.1274,2.1283,2.143,2.2332,2.2816,2.2816,2.2893,2.3012,2.3154,2.3137,2.3203,1.5623,1.8004,2.0998,2.19,2.2415,2.2659,2.2487,2.3054,2.3281,2.2039,2.1509,2.1355,2.1509,2.1915,2.2806,2.4683,2.5244,2.59,2.7322,2.8493,2.9597,3.0635,3.2283,3.396,3.5536,3.6702,3.7924,3.9303,4.0261,4.1067,4.1748,4.2673,4.4044,4.5956,4.6122,4.7274,4.9517,4.8846,4.9036,5.0119,5.1809,5.248,5.2137,4.8946,4.7886,4.8568,4.7985,4.7204,4.6221,4.6607,4.6749,4.6702,4.6319,4.6172,4.6172,4.6172,4.4683,4.2697,4.3446,4.3119,4.2346,4.2346,4.2508,4.2688,4.2804,4.2994,4.3196,4.3304,4.2907,4.2511,4.2606,4.1776,4.0859,4.0723,4.0321,3.9889,3.9656,3.9482,3.9188,3.8577,3.7618,3.6715,3.6109,3.5727,3.5493,3.5465,3.4423,3.3489,3.3119,3.1422,2.9971,2.9247,2.7296,2.5864,2.5321,2.3882,2.2919,2.2659,2.185,2.1309,2.1107,2.1063,2.0844,2.0355,2.1617,2.2071,2.1667,2.218,2.25,2.2632,2.2738,2.2773,1.85,2.118,2.3435,2.2375,2.2147,2.2101,2.1661,2.1308,2.0942,2.0581,2.0361,2.0361,2.0893,2.1509,2.2467,2.4092,2.4704,2.5576,2.7372,2.8611,2.974,3.0849,3.2444,3.4123,3.5826,3.6174,3.7117,3.9061,4.0381,4.1344,4.198,4.2902,4.4247,4.6115,4.6287,4.7241,4.9074,4.8346,4.8521,4.9536,5.0377,5.0778,5.0705,4.8641,4.7529,4.7205,4.6702,4.6368,4.6221,4.6795,4.6998,4.6998,4.6607,4.6368,4.6098,4.4975,4.3307,4.1789,4.312,4.2974,4.2246,4.2246,4.2409,4.2609,4.2745,4.2994,4.3196,4.3286,4.2724,4.2087,4.2137,4.1086,4.0002,4.0112,3.9788,3.9477,3.9483,3.9594,3.9534,3.8978,3.8206,3.7382,3.6512,3.5829,3.539,3.5296,3.4311,3.3347,3.2683,3.1496,3.0441,2.9728,2.7556,2.6045,2.5821,2.4116,2.297,2.2712,2.1806,2.1196,2.0954,2.0899,2.0611,2.0052,2.1283,2.1707,2.1256,2.1792,2.2101,2.2135,2.2304,2.2354,2.0874,2.3737,2.524,2.2403,2.145,2.1007,2.0323,1.9854,1.9457,1.9139,1.9101,1.9384,0.0,0.0,2.2012,2.3772,2.4445,2.5468,2.7467,2.8734,2.9861,0.0,0.0,0.0,0.0,3.6276,3.6775,3.9139,4.0973,4.2243,4.2847,4.4246,4.537,4.6141,4.678,4.7444,4.8114,4.8072,4.7951,4.7888,4.7783,4.7717,4.7717,4.7717,4.7699,4.7657,4.7205,4.6702,4.627,4.6795,4.6998,4.6998,4.6998,4.6702,4.5852,4.2745,4.1639,4.1859,4.3085,4.2878,4.2103,4.2103,4.231,4.2609,4.2745,4.2956,4.3251,4.3428,4.2459,4.1385,4.1477,4.0344,3.9184,3.9272,3.935,3.942,3.9477,3.957,3.9637,3.9637,3.8855,3.7943,3.7243,3.5649,3.4473,3.4483,3.4311,3.3664,3.2151,3.1686,3.0894,2.9242,2.7359,2.6141,2.602,2.4148,2.297,2.2876,2.1691,2.096,2.0899,2.0737,2.0595,2.0443,2.1312,2.1675,2.1428,2.1675,2.1738,2.1694,2.1811,2.1911,1.9024,2.0492,2.1859,2.0542,1.9938,1.9391,1.8238,1.7894,1.7988,1.8542,1.8874,1.9347,0.0,0.0,0.0,2.3474,2.4764,0.0,2.8381,2.9627,0.0,3.1847,0.0,3.4025,3.5011,3.5666,3.6543,3.774,3.9336,4.0541,4.1247,4.2108,4.3169,4.4457,4.4481,4.5388,4.7291,4.7758,4.797,4.7902,4.7907,4.7911,4.7929,4.809,4.797,4.7657,4.7205,4.6934,4.6795,4.6934,4.6998,4.6998,4.6998,4.6906,4.6376,4.2881,4.2212,4.3014,4.244,4.2207,4.2097,4.2121,4.231,4.2609,4.2649,4.288,4.316,4.3251,4.2729,4.1991,4.1539,4.0752,3.9928,3.9359,3.9309,3.9406,3.9406,3.9021,3.8662,3.8662,3.7469,3.6372,3.6124,3.5138,3.4587,3.5264,3.4703,3.3849,3.2914,3.2038,3.1096,3.0083,2.7757,2.6212,2.6093,2.424,2.2995,2.2764,2.2283,2.1625,2.0721,2.1189,2.0858,1.9495,2.0782,2.114,2.0453,2.1095,2.1433,2.1479,2.1617,2.1694,1.7146,1.7679,1.865,1.8262,1.7839,1.7286,1.6484,1.6423,1.6934,1.8228,1.9101,1.9726,2.0061,2.1492,2.29,0.0,0.0,0.0,2.8122,2.9668,3.0884,0.0,3.3038,0.0,3.4848,3.5202,3.5916,3.7203,3.8788,3.9994,4.0708,4.1371,4.2225,4.336,4.3483,4.4436,4.6335,4.7059,4.7419,4.7438,4.7846,4.8072,4.8151,4.8267,4.809,4.7585,4.5948,4.5871,4.6873,4.5499,4.5731,4.6998,4.6998,4.6998,4.6766,4.4733,4.3828,4.349,4.2703,4.2285,4.211,4.2086,4.231,4.2609,4.2609,4.2804,4.3032,4.2741,4.2276,4.1701,4.1009,4.0362,3.977,3.9295,3.9029,3.8864,3.8864,3.8284,3.7774,3.7751,3.6649,3.5717,3.5621,3.4822,3.4389,3.4872,3.4167,3.3284,3.2539,3.1945,3.1006,2.9447,2.7515,2.6145,2.5618,2.4076,2.3045,2.2764,2.2453,2.1945,2.1185,2.1447,2.1133,2.0084,2.0904,2.1067,2.0462,2.1005,2.1277,2.1198,2.1371,2.145,1.562,1.5616,1.6114,1.6144,1.5836,1.5468,1.5312,1.5703,1.6582,1.8254,1.9472,2.0166,2.0025,2.067,2.2037,2.4521,0.0,2.5377,2.7432,2.9266,3.0568,3.0939,3.252,3.4057,3.5118,3.4787,3.524,3.6974,3.8474,3.9637,4.0447,4.1004,4.1632,4.231,4.3023,4.396,4.5158,4.5976,4.6491,4.6661,4.7505,4.7988,4.8086,4.7992,4.7612,4.692,4.4095,4.4237,4.6204,4.3453,4.3935,4.6445,4.6418,4.6623,4.6962,4.6748,4.5401,4.3665,4.3284,4.2721,4.2121,4.2127,4.2328,4.257,4.2609,4.2804,4.2923,4.2194,4.169,4.1185,4.0351,3.975,3.9359,3.9248,3.87,3.8227,3.8184,3.7544,3.6892,3.6691,3.6082,3.5501,3.538,3.4649,3.4074,3.4023,3.3357,3.2557,3.1727,3.1552,3.0646,2.8384,2.7108,2.6031,2.5163,2.3934,2.3119,2.2842,2.2392,2.2084,2.1911,2.1601,2.1402,2.1309,2.1309,2.1183,2.0942,2.1183,2.1183,2.0942,2.1183,2.1294,1.558,1.5807,1.6182,1.5917,1.5695,1.5626,1.6122,1.7054,0.0,0.0,1.9545,1.994,2.0323,2.1528,2.2818,2.3776,2.4917,2.6151,2.7572,2.8782,2.9833,0.0,3.191,3.2826,3.3091,3.3953,3.4929,3.5968,3.6377,3.7231,3.8752,3.8765,3.9222,4.0257,4.1583,4.2632,4.3337,4.4287,4.5147,4.5822,4.6709,4.7059,4.6966,4.6338,4.5199,4.3697,4.3136,4.3054,4.3302,4.2583,4.2835,4.3559,4.3256,4.4696,4.6837,4.5517,4.4785,4.4207,4.2803,4.2294,4.2269,4.2287,4.2387,4.2526,4.257,4.2747,4.2812,4.2177,4.2093,4.1866,4.051,4.0224,4.0104,3.9514,3.8796,3.8276,3.8227,3.7117,3.5885,3.5079,3.4877,3.472,3.454,3.4266,3.4099,3.4074,3.3913,3.3259,3.1853,3.0978,3.006,2.902,2.7413,2.6326,2.6064,2.439,2.3217,2.2902,2.2605,2.2287,2.1998,2.1751,2.1556,2.1386,2.134,2.123,2.107,2.1183,2.1183,2.1135,2.1215,2.123,1.4725,1.5049,1.5434,1.5365,1.53,1.548,1.613,0.0,0.0,0.0,1.9617,2.008,2.0308,2.1209,0.0,2.3081,2.3958,2.497,2.6237,2.725,2.8284,2.9321,3.0369,3.1219,3.1847,3.2921,3.378,3.4307,3.4873,3.5938,3.7615,3.7853,3.834,3.9209,4.0248,4.1136,4.1796,4.3178,4.4054,4.4455,4.5718,4.6195,4.5973,4.5517,4.4035,4.1851,4.2575,4.2862,4.2747,4.267,4.2747,4.2882,4.2709,4.3786,4.5398,4.4628,4.4185,4.3929,4.3161,4.2667,4.2387,4.245,4.2468,4.2503,4.257,4.2747,4.2684,4.1667,4.1562,4.1425,3.9967,3.9761,3.9738,3.9002,3.7943,3.6979,3.6524,3.5854,3.5179,3.4698,3.4602,3.4539,3.434,3.4221,3.4124,3.4074,3.3278,3.2441,3.1755,3.0433,2.932,2.8639,2.7699,2.6721,2.5705,2.4698,2.3785,2.3012,2.2764,2.2525,2.2231,2.1945,2.1721,2.1601,2.1433,2.1309,2.1262,2.1262,2.1262,2.1309,2.1309,2.1356,1.3702,1.411,1.4495,1.4709,1.5016,1.5412,1.61,1.6993,0.0,1.8731,1.9639,2.0254,2.0258,0.0,2.1601,0.0,2.3154,2.3867,2.4746,2.5712,2.6682,0.0,2.8631,0.0,3.0578,3.1733,3.2521,3.2688,3.3654,3.4986,3.6719,3.7285,3.7859,3.846,3.892,3.9615,4.0552,4.1933,4.279,4.3103,4.4419,4.4985,4.4834,4.4745,4.3393,4.1119,4.2414,4.2867,4.2722,4.2903,4.2938,4.2882,4.2882,4.3397,4.4091,4.3858,4.3644,4.3507,4.3394,4.2987,4.2566,4.2627,4.2588,4.2526,4.2649,4.2786,4.2649,4.1263,4.106,4.0898,3.9404,3.909,3.8927,3.8042,3.6892,3.5788,3.4997,3.4809,3.4788,3.4728,3.4666,3.4583,3.4404,3.4293,3.4197,3.4074,3.2761,3.1758,3.1634,3.0249,2.9052,2.841,2.8003,2.7167,2.5655,2.5072,2.4385,2.3383,2.3006,2.2712,2.2487,2.213,2.1911,2.184,2.1601,2.1464,2.1433,2.1371,2.1371,2.1433,2.1433,2.1511,1.2749,1.3312,1.3829,1.425,1.506,1.5876,1.6497,0.0,1.8224,1.8779,1.9536,2.017,2.041,2.1351,2.2054,2.1993,0.0,2.4322,2.4123,2.4896,2.5557,2.5639,0.0,0.0,2.8629,3.041,3.1575,3.1713,3.2705,3.4054,3.5736,3.6447,3.7108,3.7784,3.7624,3.824,3.9794,4.0028,4.0818,4.2137,4.2441,4.288,4.3378,4.3432,4.2902,4.1921,4.2866,4.283,4.2121,4.2814,4.2995,4.2882,4.2882,4.3397,4.4001,4.3032,4.3064,4.3483,4.2844,4.2677,4.2783,4.2783,4.2706,4.2649,4.2824,4.2956,4.2796,4.147,4.1235,4.1014,3.95,3.8749,3.8061,3.6637,3.6149,3.5788,3.5038,3.4887,3.4868,3.4788,3.4788,3.4747,3.4602,3.4473,3.434,3.4197,3.3382,3.2501,3.169,3.0822,2.9972,2.9181,2.8268,2.7597,2.73,2.5744,2.467,2.4382,2.3387,2.2764,2.2685,2.2281,2.2039,2.1998,2.1781,2.1634,2.1589,2.1589,2.1589,2.1589,2.1589,2.1603,1.2411,1.2732,1.3143,1.447,1.5121,1.5788,1.6831,0.0,1.8394,1.8968,1.9717,2.0342,2.0628,2.1564,2.22,2.1897,0.0,0.0,2.3744,2.3729,2.4282,2.5817,2.6311,2.7014,2.8228,2.959,3.0734,3.1612,3.2616,3.3493,3.4143,3.5293,3.6014,3.6251,3.708,3.7831,3.8444,3.9405,4.018,4.0756,4.1659,4.199,4.1756,4.2283,4.1862,4.0793,4.1647,4.1846,4.1574,4.226,4.2812,4.3124,4.3068,4.3172,4.3325,4.285,4.2807,4.2983,4.2796,4.2804,4.288,4.305,4.3123,4.3123,4.3087,4.2796,4.2318,4.147,4.1021,4.056,3.9544,3.8501,3.7426,3.6319,3.568,3.5266,3.5003,3.4927,3.4908,3.4908,3.4888,3.4848,3.4747,3.4623,3.4473,3.434,3.3533,3.2831,3.2445,3.1238,3.0249,2.989,2.9021,2.8228,2.7606,2.6796,2.5805,2.464,2.4056,2.3458,2.2781,2.2535,2.2343,2.2192,2.1928,2.1827,2.1797,2.1664,2.1634,2.1708,2.1708,2.1768,1.2115,1.2565,1.308,1.4694,1.538,1.6011,0.0,0.0,1.8693,1.9169,1.9859,2.0478,2.0778,2.1697,2.2362,2.2151,0.0,2.3154,2.3493,2.3016,2.3371,2.5366,0.0,2.6002,2.7665,2.8801,2.9958,3.1265,3.1994,3.253,3.2795,3.378,3.4668,3.5369,3.6435,3.71,3.7312,3.8427,3.9148,3.9564,4.0507,4.0899,4.0773,4.1375,4.1019,3.9918,4.0835,4.1151,4.1003,4.1991,4.2647,4.3061,4.3159,4.3105,4.29,4.2899,4.2804,4.2709,4.2938,4.305,4.3105,4.3338,4.3529,4.3615,4.3529,4.2907,4.2151,4.1613,4.083,3.9941,3.9027,3.8045,3.7022,3.5964,3.5305,3.4927,3.4983,3.4964,3.4945,3.5001,3.4946,3.4888,3.4849,3.4728,3.4602,3.4473,3.3627,3.3013,3.2943,3.1422,3.0356,3.0309,2.9499,2.8691,2.8012,2.7526,2.6691,2.5383,2.4916,2.4234,2.3232,2.3057,2.2764,2.2338,2.2135,2.1986,2.194,2.1797,2.1768,2.1869,2.1869,2.1899,1.1777,1.2834,1.3902,1.4765,1.5802,1.6796,0.0,1.8461,1.9176,1.9457,1.998,2.0512,2.0828,2.1729,2.2525,2.2828,2.3031,0.0,2.3363,2.2992,2.2943,0.0,2.459,2.5594,2.6621,2.798,2.9276,3.0428,3.0524,3.0921,3.1849,3.1883,3.2999,3.5522,3.541,3.5766,3.6697,3.6582,3.7284,3.8713,3.8578,3.9276,4.0688,4.0792,4.0452,3.9845,4.0923,4.0982,4.0438,4.211,4.2643,4.2478,4.322,4.3268,4.2938,4.3049,4.3012,4.2938,4.3123,4.3322,4.3513,4.3664,4.3828,4.4036,4.4151,4.3434,4.2483,4.194,4.0739,3.9265,3.7718,3.7305,3.6912,3.5363,3.4945,3.4927,3.4983,3.5001,3.5001,3.5001,3.4945,3.4908,3.4908,3.479,3.4666,3.4623,3.3758,3.3059,3.3013,3.1422,3.0286,3.0286,2.9452,2.8881,2.8791,2.7734,2.7082,2.696,2.5968,2.4997,2.4112,2.3942,2.3405,2.2422,2.2338,2.2192,2.1998,2.1998,2.1998,2.1998,2.1998,2.2101,1.2291,1.2917,1.3749,1.5591,1.6259,1.689,1.8198,1.8846,1.9258,1.9639,2.0185,2.0628,2.0778,2.1729,2.241,2.2198,2.2682,2.3184,0.0,0.0,0.0,2.4991,2.6219,2.7064,2.7412,2.8182,2.8852,2.9282,3.0019,3.062,3.1052,3.1613,3.2262,3.2976,3.4006,3.4668,3.4921,3.6017,3.6731,3.7069,3.7521,3.793,3.8332,3.899,3.927,3.929,3.9779,4.0224,4.0686,4.1137,4.1874,4.2687,4.2152,4.2522,4.3318,4.2647,4.2793,4.3339,4.3426,4.3563,4.3664,4.3905,4.4109,4.4306,4.4505,4.3399,4.1876,4.071,4.0085,3.9425,3.7785,3.7409,3.7032,3.54,3.4964,3.5001,3.511,3.5091,3.5072,3.5129,3.5091,3.5018,3.4964,3.487,3.4562,3.3932,3.3977,3.3598,3.2321,3.1727,3.1121,3.0429,2.9586,2.8952,2.8761,2.8308,2.7733,2.6961,2.6579,2.5913,2.4978,2.4888,2.4656,2.4247,2.359,2.3159,2.3016,2.2439,2.2416,2.2979,2.3528,2.3871,0.0,1.33,1.4078,1.5851,1.6507,0.0,1.8404,1.9119,1.9603,1.9904,2.0373,2.0744,2.0893,2.1569,2.2099,2.2184,2.2452,2.2819,0.0,0.0,0.0,2.5356,2.6521,2.7098,2.6954,2.7584,2.8073,2.8294,2.8957,2.958,3.0111,3.0381,3.0642,3.0894,3.2519,3.3399,3.3352,3.4643,3.541,3.5584,3.6288,3.6699,3.6941,3.7838,3.8383,3.86,3.9115,3.9745,0.0,4.0621,4.1229,4.1977,4.1556,4.2123,4.3059,4.2136,4.254,4.356,4.3347,4.3569,4.3881,4.3826,4.3755,4.366,4.3491,4.2818,4.1795,4.0231,3.964,3.9155,3.775,3.7222,3.6711,3.5362,3.5038,3.5073,3.5179,3.5196,3.5098,3.4795,3.495,3.5028,3.4655,3.4737,3.4547,3.3695,3.3874,3.3537,3.2079,3.1592,3.1154,3.0516,2.9908,2.9352,2.8828,2.8594,2.8172,2.746,2.7325,2.6806,2.582,2.5775,2.5551,2.5114,2.4499,2.4144,2.4059,2.3499,2.3476,2.3922,2.4454,2.4765,0.0,1.3941,1.4875,1.5752,0.0,0.0,1.8332,1.9331,0.0,2.027,2.0509,2.0777,2.1023,2.1277,2.1707,2.2569,2.2319,0.0,0.0,2.3354,0.0,2.4804,2.568,2.6026,2.5526,2.6331,2.7036,2.7434,2.7487,2.7976,2.9027,2.8452,2.8459,2.928,3.1007,3.1948,3.2004,3.2745,3.3486,3.4232,3.4841,3.5528,3.6288,3.7137,3.7692,3.7958,3.8913,3.9483,3.9774,4.0502,4.0747,4.0694,4.1297,4.1895,4.2377,4.1533,4.2216,4.35,4.2934,4.3338,4.397,4.3423,4.2918,4.2351,4.1561,4.1825,4.2085,4.0388,3.9423,3.8667,3.7677,3.6919,3.6179,3.5321,3.5126,3.5141,3.519,3.5258,3.5063,3.4251,3.4652,3.4866,3.4053,3.4429,3.4548,3.3733,3.3505,3.3062,3.2042,3.1173,3.0581,3.0509,3.0397,2.9968,2.9075,2.876,2.8513,2.83,2.8109,2.7621,2.6711,2.6654,2.619,2.5299,2.5161,2.508,2.5011,2.5023,2.4969,2.4915,2.5038,2.5126,1.3905,0.0,1.543,1.635,1.7221,1.8007,0.0,1.9573,2.027,0.0,0.0,2.0877,2.0942,2.1277,2.1638,2.1849,2.1913,2.2007,2.2233,2.3016,0.0,2.3973,2.4804,2.5331,2.5215,2.5597,2.6189,2.6977,2.6754,2.7023,2.7999,2.8075,2.8199,2.8403,2.9548,3.0468,3.1026,3.1821,3.23,3.2486,3.3259,3.3987,3.4659,3.5639,3.6826,3.8153,3.8555,3.915,3.993,4.0094,4.0438,4.0834,4.0176,4.0792,4.1931,4.1016,4.138,4.2314,4.2156,4.235,4.2674,4.273,4.274,4.2581,4.1762,4.155,4.1369,4.0342,3.9964,3.9509,3.8023,3.7509,3.7011,3.5592,3.5209,3.519,3.527,3.5369,3.536,3.5051,3.4664,3.4285,3.4022,3.4023,3.3747,3.2823,3.3185,3.2977,3.1354,3.0977,3.0784,3.0677,3.0528,3.0323,3.0005,2.9678,2.9142,2.8362,2.8209,2.8,2.7624,2.7635,2.7454,2.7099,2.6481,2.5802,2.5153,2.5779,2.6016,2.5945,2.6606,2.6896,1.4026,1.5205,1.6484,1.6996,1.7976,1.8935,1.9356,0.0,0.0,0.0,0.0,0.0,2.1006,2.1277,2.1511,2.1481,2.1678,0.0,0.0,0.0,2.3561,2.3659,2.4167,2.4367,2.4021,2.448,2.5068,2.5719,2.5595,2.5917,2.6913,2.6872,2.7185,2.7985,2.8592,2.9324,3.0185,3.1026,3.1437,3.1456,3.2257,3.3011,3.3743,3.4675,3.5834,3.7146,3.8124,3.8861,3.9423,3.9823,4.022,4.0473,3.9882,4.0365,4.1323,4.0413,4.0907,4.1987,4.163,4.1631,4.1867,4.2062,4.1954,4.1531,4.0708,4.0403,4.031,4.0215,3.9643,3.8841,3.7927,3.7126,3.6323,3.5458,3.5261,3.5254,3.5315,3.5441,3.5366,3.4894,3.4773,3.4457,3.3608,3.4009,3.4004,3.2702,3.3145,3.2996,3.1186,3.128,3.1296,3.0758,3.1306,3.1473,3.0923,3.0972,3.0277,2.8496,2.8246,2.8099,2.7946,2.7882,2.7806,2.7701,2.7373,2.6922,2.6341,2.6807,2.6988,2.6904,2.7377,2.76,1.4061,1.5915,1.759,1.7396,1.8521,1.9702,0.0,0.0,0.0,0.0,0.0,0.0,0.0,2.1294,0.0,0.0,0.0,2.2132,2.3034,2.3262,2.3354,2.3409,2.3528,2.338,2.2745,2.3337,2.3946,2.4302,2.4322,2.4783,2.5829,2.5503,2.5968,2.7469,2.7766,2.8369,2.9363,3.0245,3.0696,3.0734,3.1519,3.2266,3.2959,3.3918,3.4802,3.5732,3.7492,3.8355,3.8588,3.9391,3.9697,3.9656,3.9707,4.0075,4.049,3.9878,4.0594,4.1774,4.1123,4.1016,4.1245,4.1379,4.0969,4.0252,3.941,3.9192,3.9339,3.9838,3.8891,3.7691,3.758,3.6474,3.5386,3.5253,3.5277,3.5315,3.5398,3.5463,3.529,3.4552,3.4905,3.4839,3.3283,3.4029,3.4334,3.2842,3.3025,3.2805,3.1391,3.1676,3.1787,3.1158,3.2284,3.273,3.188,3.2217,3.148,2.905,2.8523,2.8276,2.8191,2.8118,2.8059,2.7953,2.8088,2.8017,2.776,2.7789,2.7777,2.7677,2.7719,2.776,1.4697,1.6516,1.7941,1.6907,1.7896,1.9122,1.9076,0.0,0.0,0.0,0.0,0.0,0.0,2.1404,2.1542,0.0,0.0,2.1932,2.2107,2.2417,2.2647,2.2596,2.2658,2.2641,2.2521,2.2654,2.3099,2.3989,2.3703,2.3886,2.479,2.5085,2.5353,2.569,2.6557,2.7416,2.8311,2.9248,2.9776,2.9889,3.0638,3.1068,3.1235,3.2893,3.4101,3.4932,3.606,3.7013,3.7795,3.7909,3.8023,3.8118,3.8727,3.901,3.9119,3.9726,4.0125,4.0336,4.0327,4.0349,4.0406,4.06,4.0588,4.0335,3.9586,3.935,3.9248,3.8604,3.8166,3.7709,3.7034,3.6569,3.6135,3.5526,3.5335,3.533,3.546,3.5541,3.5521,3.5329,3.4873,3.4378,3.4045,3.3536,3.3049,3.2661,3.2064,3.1789,3.2141,3.1598,3.1638,3.2779,3.3022,3.2971,3.2631,3.2548,3.1981,3.0784,2.98,2.9237,2.9094,2.9627,2.9614,2.9083,2.8971,2.8623,2.794,2.7968,2.7968,2.794,2.794,2.794,1.4605,1.5762,1.6699,1.6788,1.8658,2.0345,1.991,0.0,0.0,0.0,0.0,0.0,0.0,0.0,2.1513,2.1542,2.1664,2.1768,2.1882,2.1776,2.1688,2.1634,2.14,2.1428,2.1856,2.1953,2.235,2.3319,2.3312,2.3454,2.3928,2.4266,2.4681,2.5223,2.5795,2.6524,2.7436,2.796,2.8708,2.9701,3.0077,3.049,3.0941,3.177,3.2637,3.3524,3.4907,3.5761,3.6274,3.7243,3.7679,3.7734,3.8116,3.8231,3.827,3.8614,3.9052,3.9471,3.9582,3.9634,3.9684,3.9815,3.9586,3.9108,3.8286,3.8073,3.7924,3.7054,3.7058,3.7214,3.6853,3.633,3.582,3.5475,3.5379,3.5379,3.5482,3.5547,3.5584,3.5558,3.5261,3.4832,3.4276,3.4224,3.4059,3.3444,3.3382,3.3353,3.3227,3.3144,3.3204,3.3448,3.3736,3.3821,3.3616,3.3444,3.2627,3.0992,3.0335,2.9935,2.9834,3.014,3.0171,2.9905,2.9858,2.968,2.9354,2.8963,2.8692,2.857,2.8209,2.7986,1.4598,1.5249,1.5861,1.7054,0.0,2.0908,2.0426,0.0,0.0,0.0,0.0,0.0,0.0,2.1165,0.0,2.1131,2.1111,2.1154,2.1342,2.0994,2.0706,2.0713,2.0355,2.0374,2.1011,2.1104,2.1436,2.2235,2.2485,2.2764,2.3094,2.3365,2.394,2.4908,2.5092,2.5653,2.66,2.6766,2.7697,2.9401,2.9472,2.994,3.075,3.0957,3.1447,3.222,3.3885,3.4661,3.4831,3.6442,3.7086,3.7139,3.7417,3.7661,3.7833,3.7764,3.8167,3.8739,3.8824,3.8869,3.8931,3.9008,3.8653,3.8047,3.7189,3.6953,3.6822,3.595,3.6121,3.6559,3.6537,3.5997,3.5438,3.5435,3.5422,3.5435,3.5502,3.554,3.5608,3.5596,3.5615,3.54,3.4677,3.4918,3.4949,3.418,3.4374,3.4461,3.3974,3.4352,3.4472,3.398,3.4352,3.4517,3.4293,3.4074,3.3203,3.1495,3.0975,3.0688,3.0601,3.0778,3.0809,3.0676,3.0706,3.0647,3.0463,2.9686,2.9272,2.913,2.8369,2.7986,1.5248,1.6069,1.6673,1.7761,1.8528,0.0,1.9427,2.0005,0.0,2.1101,0.0,0.0,0.0,2.076,2.0156,1.9504,1.9486,1.9624,1.9756,1.9841,1.9896,1.9896,1.9846,1.9898,2.0077,2.0052,2.0137,2.046,2.0738,2.1299,2.2255,2.2539,2.3127,2.4069,2.4226,2.4764,2.578,2.5974,2.6885,2.8499,2.8553,2.9074,3.0009,3.0818,3.1214,3.1366,3.307,3.3826,3.3957,3.4904,3.5316,3.5474,3.6408,3.7267,3.7978,3.7909,3.7916,3.799,3.8055,3.8084,3.8099,3.8247,3.824,3.8044,3.7235,3.6997,3.6813,3.5941,3.5784,3.5868,3.5795,3.5631,3.5514,3.5572,3.5547,3.5483,3.5502,3.5553,3.5593,3.5607,3.5648,3.5658,3.56,3.4919,3.4349,3.4206,3.3492,3.3212,3.3895,3.3939,3.4125,3.4831,3.4772,3.4561,3.4221,3.3972,3.3698,3.3413,3.2324,3.163,3.1511,3.2222,3.2257,3.1529,3.1466,3.1093,3.0421,2.955,2.9195,2.9254,2.8397,2.8042,1.4652,1.5581,1.6431,1.7164,1.7987,0.0,0.0,2.0174,2.0599,2.0687,2.0647,0.0,0.0,0.0,1.938,1.9155,1.9139,1.9183,1.93,1.9001,1.8812,1.8812,1.8568,1.8658,1.9268,1.9423,1.9713,2.0377,2.0673,2.1013,2.1436,2.1714,2.2313,2.3288,2.3456,2.3968,2.4942,2.5113,2.5791,2.6987,2.8134,2.8843,2.9172,3.0102,3.0462,3.0473,3.1682,3.2479,3.301,3.3897,3.4649,3.5245,3.5773,3.6155,3.6444,3.6425,3.6719,3.7151,3.7233,3.7275,3.7328,3.7385,3.7046,3.6588,3.6279,3.6231,3.619,3.5849,3.5803,3.583,3.5737,3.5679,3.5678,3.5604,3.557,3.5565,3.5565,3.5581,3.5607,3.5649,3.5689,3.5689,3.5689,3.5377,3.509,3.5063,3.4732,3.4589,3.4894,3.4814,3.4642,3.4399,3.415,3.4124,3.4416,3.4197,3.3947,3.3726,3.302,3.2576,3.2469,3.2677,3.2681,3.2346,3.236,3.22,3.1898,3.1053,3.0681,3.0693,2.9308,2.8694,1.4349,1.5349,1.6291,0.0,0.0,0.0,1.9583,1.9891,2.0003,1.9968,1.9828,1.9443,1.8647,0.0,1.8355,1.8163,1.8167,1.8187,1.8255,1.7807,1.7458,1.7458,1.7106,1.7165,1.8074,1.8308,1.879,1.9654,1.9979,2.0276,2.0604,2.0888,2.1497,2.2502,2.2644,2.3186,2.4169,2.4298,2.4836,2.5773,2.73,2.8313,2.8787,2.9417,2.9787,3.0013,3.0867,3.1533,3.2086,3.331,3.438,3.5289,3.5435,3.5509,3.5528,3.5534,3.5868,3.6342,3.6402,3.644,3.6477,3.6513,3.6151,3.5737,3.5718,3.5771,3.5838,3.5826,3.5892,3.5918,3.5788,3.5782,3.5775,3.5679,3.5648,3.5626,3.5635,3.5637,3.5649,3.5728,3.5727,3.5727,3.5727,3.5679,3.5669,3.5635,3.557,3.554,3.5528,3.5427,3.5109,3.4458,3.4182,3.4225,3.4672,3.4454,3.4197,3.3972,3.3569,3.3238,3.3091,3.2934,3.2838,3.2884,3.2884,3.2884,3.2884,3.2085,3.1662,3.1596,3.0183,2.9379,1.4557,1.557,1.6428,0.0,0.0,0.0,1.9391,1.8977,1.8597,1.8917,1.8768,1.8338,1.7519,1.7366,1.7089,1.6246,1.6254,1.6382,1.6389,1.6107,1.5887,1.5887,1.5478,1.5548,1.6414,1.6674,1.7122,1.7915,1.8304,1.8878,1.9737,2.0045,2.0644,2.1675,2.1832,2.2418,2.3487,2.3573,2.4071,2.5012,2.5933,2.7262,2.8867,2.8822,2.9269,3.0125,3.0795,3.1104,3.1236,3.3047,3.4413,3.5374,3.5474,3.5528,3.5591,3.5604,3.556,3.5515,3.5589,3.5608,3.5616,3.5687,3.5747,3.5803,3.581,3.5852,3.5908,3.5891,3.5958,3.5977,3.5917,3.5845,3.5791,3.5803,3.5766,3.5699,3.5698,3.5708,3.5737,3.5794,3.5801,3.5799,3.5799,3.5799,3.5773,3.5698,3.5648,3.5604,3.5604,3.5528,3.5411,3.5212,3.507,3.4964,3.4908,3.4668,3.445,3.4316,3.3998,3.3643,3.334,3.306,3.2979,3.3086,3.2961,3.2979,3.3086,3.2301,3.1834,3.1689,3.0825,3.003,1.3965,1.5365,0.0,1.6781,0.0,0.0,0.0,1.8738,0.0,0.0,1.7262,1.6573,1.6185,1.6111,1.6049,1.579,1.5792,1.575,1.5468,1.5374,1.5267,1.501,1.5042,1.5211,1.5637,1.5836,1.6339,1.7233,1.7526,1.8069,1.898,1.9201,1.9757,2.0816,2.0984,2.1826,2.3412,2.3592,2.4117,2.4993,2.5366,2.609,2.7109,2.8376,2.9036,2.9231,3.0038,3.0693,3.1269,3.2502,3.3268,3.3703,3.4392,3.4673,3.4774,3.5438,3.562,3.5577,3.5643,3.5673,3.5673,3.5698,3.5757,3.5812,3.5807,3.5846,3.5908,3.5903,3.5943,3.6001,3.5973,3.5914,3.5866,3.5803,3.6257,3.653,3.5902,3.6203,3.6455,3.5911,3.5803,3.5801,3.5795,3.5791,3.5793,3.5765,3.5708,3.5649,3.5604,3.5056,3.4841,3.5353,3.4774,3.4572,3.5066,3.4908,3.4691,3.4517,3.4245,3.3895,3.3452,3.3274,3.3152,3.3086,3.3196,3.3226,3.316,3.2985,3.2865,3.2823,3.187,3.1022,1.3343,1.49,0.0,1.6602,1.7669,1.8496,1.784,0.0,0.0,0.0,1.5818,1.5294,1.5065,1.5037,1.4921,1.4718,1.4729,1.4656,1.4399,1.4387,1.4287,1.406,1.4111,1.4451,1.523,1.521,1.5812,1.7322,1.735,1.7698,1.8643,1.8825,1.9251,1.9991,2.0148,2.1109,2.2951,2.3137,2.3853,2.5082,2.5164,2.5458,2.5983,2.735,2.8275,2.885,2.9677,3.0481,3.1284,3.192,3.2441,3.2922,3.35,3.3762,3.3843,3.4422,3.4828,3.5087,3.5151,3.5394,3.5676,3.5718,3.5773,3.5795,3.5833,3.5897,3.5948,3.5948,3.5962,3.5997,3.5997,3.6228,3.6348,3.5943,3.6248,3.6565,3.6386,3.6712,3.6936,3.6576,3.6518,3.637,3.5927,3.5842,3.5826,3.5799,3.5736,3.5699,3.5649,3.5171,3.4874,3.5044,3.4494,3.4304,3.4684,3.4558,3.4396,3.4199,3.3986,3.3518,3.2826,3.3203,3.3433,3.3368,3.3462,3.352,3.3465,3.3494,3.3338,3.298,3.2705,3.1758,1.2698,0.0,0.0,1.6523,1.7242,0.0,1.6573,1.594,1.5407,1.4818,1.4513,1.4293,1.4126,1.4027,1.3827,1.3361,1.3373,1.3417,1.3308,1.3259,1.3186,1.3096,1.2951,1.3451,1.494,1.4654,1.5335,1.7631,1.7435,1.7609,1.8537,1.8789,1.9033,1.9289,1.9434,2.0396,2.2279,2.245,2.3416,2.5198,2.5212,2.5274,2.5418,2.6105,2.7294,2.8841,2.9592,3.0411,3.1197,3.1268,3.1795,3.2593,3.2743,3.2833,3.2894,3.2987,3.3508,3.4214,3.4359,3.4883,3.5532,3.5727,3.5795,3.5833,3.5981,3.6012,3.6013,3.6095,3.6124,3.6094,3.6016,3.6719,3.7184,3.6239,3.6085,3.6342,3.7085,3.7196,3.7233,3.7615,3.7666,3.7316,3.6234,3.6041,3.6041,3.5943,3.5862,3.5795,3.5718,3.5659,3.5328,3.4592,3.4338,3.4166,3.4031,3.3821,3.3653,3.3601,3.3423,3.2876,3.1875,3.2937,3.357,3.3723,3.367,3.3733,3.3921,3.3795,3.333,3.2527,3.3131,3.2083,1.1983,1.3476,0.0,0.0,1.5699,1.6081,1.4766,1.4159,1.386,1.3935,1.3629,1.3319,1.3262,1.3165,1.3067,1.3081,1.31,1.2972,1.2583,1.2568,1.2537,1.2363,1.2441,1.279,1.3495,1.3526,1.404,1.54,1.6046,1.68,1.7772,1.8555,1.9069,1.9298,1.9438,2.0415,2.2284,2.2481,2.3457,2.5201,2.5322,2.5378,2.5423,2.6158,2.7362,2.8916,2.9722,3.0198,3.0443,3.0447,3.0611,3.0919,3.1715,3.2039,3.2138,3.2819,3.3207,3.3459,3.4158,3.4555,3.4855,3.5557,3.5845,3.6002,3.6707,3.648,3.6134,3.6827,3.7022,3.6855,3.6171,3.7148,3.8105,3.7205,3.748,3.7882,3.7639,3.7494,3.7595,3.8191,3.8227,3.7957,3.7345,3.7222,3.7157,3.6922,3.6841,3.6553,3.5865,3.5763,3.5678,3.5447,3.4786,3.4291,3.4166,3.3412,3.3144,3.3654,3.3487,3.3248,3.2973,3.2368,3.2367,3.2988,3.3099,3.3488,3.4148,3.3536,3.308,3.2723,3.2137,3.1133,0.0,0.0,0.0,1.3797,0.0,1.4071,1.3122,1.2247,1.1612,1.1599,1.2046,1.2388,1.2307,1.2239,1.2208,1.2071,1.2021,1.1921,1.1757,1.1806,1.187,1.1921,1.2169,1.2653,1.3413,1.3267,1.375,1.5175,1.5401,1.5939,1.6968,1.7907,1.8522,1.8727,1.9323,2.0313,2.1714,2.23,2.3311,2.4678,2.5176,2.5644,2.6091,2.6371,2.7409,2.8964,2.9402,2.9822,3.024,3.0292,3.0323,3.039,3.0959,3.1427,3.1864,3.2309,3.3035,3.3829,3.4284,3.4747,3.5189,3.5689,3.5885,3.6109,3.6986,3.696,3.6808,3.7689,3.7929,3.783,3.7358,3.8236,3.9076,3.8451,3.8437,3.8576,3.8687,3.8545,3.8661,3.9558,3.9652,3.9489,3.9312,3.8793,3.8189,3.7488,3.7233,3.6791,3.59,3.5799,3.5629,3.5175,3.4661,3.4314,3.4206,3.3667,3.3299,3.3223,3.3032,3.2524,3.1656,3.142,3.1644,3.2344,3.2474,3.2728,3.3187,3.2776,3.23,3.1797,3.1616,3.0736,0.0,0.0,1.2194,1.2715,1.2573,0.0,1.1512,1.0516,0.9677,0.932,1.0322,1.1232,1.1102,1.1077,1.1014,1.0722,1.0638,1.062,1.0753,1.0861,1.1089,1.1482,1.1739,1.2368,1.3565,1.3225,1.3613,1.5274,1.502,1.5207,1.615,1.7095,1.7772,1.8111,1.9082,2.0087,2.113,2.213,2.3122,2.4138,2.5015,2.5994,2.7009,2.6708,2.7467,2.9044,2.918,2.966,3.0318,3.0367,3.0414,3.0409,3.049,3.1052,3.1825,3.1825,3.286,3.4292,3.4454,3.5096,3.5852,3.606,3.625,3.6594,3.7468,3.7629,3.7714,3.8573,3.8824,3.8776,3.8629,3.9348,3.9995,3.9504,3.9213,3.9218,3.9877,3.9615,3.9621,4.0866,4.1011,4.0971,4.1078,4.0273,3.9298,3.8345,3.7721,3.7039,3.6149,3.5896,3.5512,3.4787,3.4457,3.4264,3.4212,3.3944,3.3478,3.276,3.2526,3.1688,3.0072,3.0772,3.1371,3.1707,3.192,3.206,3.2123,3.1912,3.1441,3.0725,3.1095,3.0406,0.0,0.0,1.1089,0.0,1.1255,1.1114,0.0,0.0,0.9523,0.9109,0.9076,0.9157,0.93,0.9196,0.9157,0.9334,0.9356,0.934,0.9363,0.9477,0.9876,1.064,1.0493,1.0966,1.27,1.2434,1.2607,1.3718,1.4418,1.4964,1.5338,1.6319,1.7249,1.8172,1.8565,1.9571,2.1259,2.2268,2.3261,2.4199,2.5137,2.6391,2.79,2.7113,2.7649,2.9205,2.991,3.0294,3.0394,3.0406,3.0439,3.0491,3.0559,3.1128,3.1898,3.1887,3.2512,3.3495,3.4302,3.5165,3.6008,3.6785,3.7531,3.8327,3.9192,3.8983,3.8612,3.9479,3.968,3.9474,3.8709,3.9724,4.0684,3.9646,4.0109,4.0793,4.0897,3.9759,3.919,4.0792,4.1081,4.1078,4.1104,4.0972,4.0808,4.0662,3.9304,3.7993,3.7131,3.6304,3.5741,3.5563,3.4805,3.4264,3.4224,3.3448,3.2891,3.2707,3.2561,3.1989,3.0883,3.1619,3.1711,3.0954,3.1708,3.2143,3.226,3.1506,3.0997,3.0787,2.9969,2.9344,0.9344,0.9905,1.023,0.0,0.9909,0.93,0.8477,0.7864,0.7386,0.7048,0.7118,0.7559,0.8625,0.8813,0.8853,0.901,0.9035,0.9083,0.9147,0.92,0.9441,0.9972,1.0313,1.0918,1.1928,1.231,1.2755,1.3345,1.3868,1.4282,1.4524,1.5972,1.705,1.7577,1.8718,1.9749,2.0623,2.1592,2.2813,2.4277,2.5657,2.6976,2.817,2.8223,2.8892,2.9989,2.9834,3.0046,3.051,3.0501,3.083,3.1292,3.131,3.2175,3.3405,3.3412,3.3958,3.4841,3.5735,3.6317,3.6782,3.7688,3.8238,3.8729,3.9589,3.9589,3.9442,4.033,4.0555,4.0446,4.0055,4.052,4.0968,4.0461,4.0742,4.1108,4.1107,4.0543,4.0272,4.1013,4.116,4.1147,4.1105,4.1109,4.1109,4.11,3.9627,3.8194,3.73,3.637,3.576,3.5718,3.53,3.5002,3.4937,3.4518,3.3834,3.2819,3.2672,3.1971,3.0495,3.1599,3.1827,3.0923,3.128,3.1506,3.1581,3.077,3.0319,3.0171,2.9661,2.9289,0.0,0.0,0.9052,0.8976,0.8545,0.7963,0.0,0.658,0.6041,0.5601,0.574,0.635,0.765,0.8169,0.8414,0.8499,0.8518,0.8556,0.8669,0.8744,0.8911,0.9293,0.986,1.0481,1.1138,1.1932,1.257,1.3008,1.3456,1.3776,1.3991,1.546,1.646,1.6785,1.8424,1.9469,1.9819,2.1215,2.2727,2.4344,2.5872,2.7156,2.8223,2.8826,2.9667,3.061,2.9943,3.0014,3.0645,3.0864,3.1335,3.1961,3.2178,3.3225,3.4588,3.4613,3.5313,3.6328,3.6986,3.7492,3.7972,3.8701,3.9076,3.9354,4.0016,4.0162,4.0262,4.0925,4.1094,4.1105,4.1081,4.1096,4.1091,4.1096,4.1105,4.1097,4.1108,4.1147,4.1175,4.1169,4.1191,4.1171,4.1114,4.1108,4.0968,4.052,3.9331,3.8199,3.7319,3.6384,3.5788,3.5727,3.5658,3.5581,3.5528,3.5468,3.4683,3.2947,3.2761,3.1909,3.0095,3.1307,3.1711,3.1015,3.0998,3.1016,3.1014,3.0239,2.9789,2.9699,2.9551,2.9372,0.0,0.7228,0.0,0.6314,0.7204,0.0,0.0,0.6352,0.6873,0.5966,0.5652,0.5555,0.5652,0.64,0.705,0.7176,0.7212,0.7218,0.7299,0.7474,0.7844,0.8559,0.847,0.8875,1.0237,1.0751,1.1373,1.2277,1.3179,1.3776,1.3991,1.4399,1.5047,1.5929,1.7107,1.8138,1.9046,2.1692,2.3478,2.4407,2.532,2.662,2.8207,2.8249,2.9191,3.0786,3.0671,3.0656,3.0758,3.1596,3.1953,3.2077,3.2895,3.3782,3.4603,3.4667,3.5729,3.7152,3.7268,3.8332,3.9685,3.9804,4.0349,4.098,4.1023,4.1046,4.1037,4.1096,4.1106,4.1095,4.1019,4.105,4.11,4.1097,4.1096,4.1108,4.1108,4.1108,4.1111,4.1111,4.1167,4.1171,4.1114,4.1108,4.0561,3.8961,3.8592,3.8181,3.7317,3.6391,3.5807,3.5803,3.5667,3.5589,3.5604,3.5528,3.4749,3.2993,3.2831,3.1976,3.0185,3.0839,3.1176,3.0996,3.0998,3.1016,3.1088,3.0167,2.9717,2.9699,2.9551,2.9431,0.0,0.0,0.0,0.7019,0.6838,0.6507,0.5761,0.5466,0.5229,0.4854,0.5024,0.5257,0.5308,0.5722,0.6078,0.6064,0.6104,0.6143,0.617,0.6336,0.6762,0.7538,0.8042,0.8734,0.9759,1.041,1.0968,1.1429,1.2407,1.3057,1.3223,1.4575,1.554,1.5955,1.7527,1.8866,1.989,2.2036,2.3252,2.3571,2.5017,2.6581,2.8203,2.8201,2.9153,3.079,3.0771,3.073,3.0775,3.1688,3.2375,3.292,3.3832,3.4725,3.5578,3.6147,3.6741,3.7434,3.8573,3.9355,3.9959,4.0491,4.087,4.1097,4.11,4.1106,4.11,4.11,4.107,4.1039,4.1,4.1052,4.1097,4.1091,4.1039,4.0993,4.1075,4.1106,4.1106,4.1106,4.112,4.1124,4.111,4.1093,4.0526,3.8849,3.8587,3.8221,3.7327,3.6423,3.584,3.5791,3.5728,3.5657,3.5604,3.5534,3.4764,3.3013,3.2878,3.2056,3.0251,3.0879,3.1208,3.107,3.1016,3.0998,3.0979,3.0168,2.9736,2.9701,2.9664,2.957,0.6306,0.0,0.0,0.0,0.636,0.5869,0.5508,0.5087,0.4655,0.4256,0.45,0.4817,0.4879,0.5076,0.531,0.5562,0.5636,0.5662,0.5639,0.5804,0.6121,0.6645,0.7525,0.8309,0.8815,0.9774,1.0445,1.0617,1.1812,1.2606,1.279,1.4453,1.5777,1.658,1.7838,1.9123,2.0413,2.2207,2.3105,2.312,2.5131,2.6843,2.8212,2.8483,2.9389,3.0779,3.0761,3.0751,3.0789,3.1714,3.2586,3.3419,3.4345,3.5415,3.6516,3.7085,3.7656,3.8299,3.9468,4.0068,4.0391,4.0929,4.1096,4.1096,4.1075,4.107,4.1078,4.1071,4.1026,4.1064,4.1334,4.121,4.1023,4.103,4.0952,4.0926,4.1003,4.1071,4.111,4.111,4.111,4.1103,4.1105,4.1094,4.0526,3.8842,3.8598,3.8157,3.695,3.6265,3.5878,3.5838,3.5754,3.5689,3.5631,3.5283,3.4443,3.3024,3.2648,3.1821,3.0299,3.0686,3.0874,3.0724,3.0356,3.0114,3.0058,2.9832,2.9587,2.9288,2.925,2.9064,0.0,0.0,0.0,0.0,0.5682,0.6007,0.5095,0.5289,0.536,0.4297,0.4141,0.4213,0.4284,0.4396,0.4764,0.5635,0.5754,0.573,0.5676,0.5831,0.5941,0.5888,0.6805,0.7427,0.7415,0.8755,0.9696,0.9855,1.1397,1.245,1.2737,1.3933,1.5582,1.7734,1.7863,1.875,2.0476,2.2225,2.3096,2.314,2.5658,2.7322,2.8209,2.9012,2.9849,3.0704,3.0703,3.076,3.0891,3.1783,3.2647,3.3487,3.4398,3.5798,3.7303,3.7324,3.8376,3.9808,3.9825,4.0394,4.1106,4.1091,4.1106,4.107,4.1013,4.1,4.0999,4.1003,4.0996,4.1194,4.2005,4.1558,4.0897,4.0898,4.0907,4.0907,4.0907,4.0996,4.1085,4.1085,4.1085,4.1104,4.111,4.1097,4.0523,3.8847,3.8586,3.7951,3.622,3.5942,3.5904,3.5891,3.5784,3.5688,3.5679,3.4778,3.3851,3.3006,3.2158,3.1263,3.0304,3.0215,3.009,2.9931,2.8974,2.844,2.8369,2.9158,2.9158,2.8457,2.8315,2.7884,0.4902,0.0,0.0,0.0,0.0,0.0,0.4551,0.4624,0.4557,0.3881,0.3826,0.3946,0.4057,0.4159,0.4361,0.4844,0.4767,0.4655,0.4692,0.4736,0.498,0.5553,0.588,0.6451,0.7447,0.785,0.8294,0.8907,1.0026,1.0981,1.1746,1.3626,1.5619,1.7664,1.7849,1.8746,2.0474,2.2222,2.3097,2.3123,2.5046,2.6718,2.8133,2.8359,2.9285,3.0703,3.0703,3.1072,3.1741,3.2651,3.3184,3.3553,3.5056,3.6328,3.7377,3.7948,3.8857,3.9899,4.0515,4.0901,4.1111,4.11,4.107,4.1013,4.102,4.0991,4.1007,4.0999,4.0991,4.1235,4.2218,4.164,4.0769,4.082,4.0831,4.0834,4.0888,4.0888,4.0897,4.0954,4.0963,4.0988,4.1078,4.1089,4.0528,3.8847,3.8222,3.7478,3.6166,3.5977,3.5958,3.5903,3.5864,3.558,3.4889,3.4536,3.3701,3.2241,3.1857,3.1018,2.949,2.9315,2.8893,2.813,2.7803,2.7608,2.7595,2.7786,2.7733,2.7489,2.7541,2.7478,0.0,0.0,0.0,0.0,0.0,0.0,0.4545,0.4385,0.4108,0.3517,0.3463,0.3493,0.3429,0.3667,0.3973,0.4179,0.4374,0.4476,0.4423,0.4381,0.452,0.503,0.5335,0.5921,0.6998,0.7281,0.771,0.8418,0.9396,1.0611,1.2074,1.3483,1.5312,1.7636,1.7837,1.874,2.0482,2.2229,2.3096,2.3082,2.5092,2.6759,2.8028,2.8388,2.9481,3.1114,3.1125,3.1635,3.2536,3.3432,3.3847,3.4033,3.5415,3.6719,3.7909,3.8736,3.9589,4.0404,4.0886,4.1056,4.1064,4.1052,4.1039,4.1006,4.1011,4.1232,4.1489,4.15,4.1985,4.2557,4.2811,4.2325,4.1577,4.0874,4.0733,4.0771,4.0846,4.1886,4.2419,4.1106,4.0888,4.0945,4.1078,4.1078,4.0491,3.884,3.8085,3.7285,3.6151,3.5992,3.5986,3.5957,3.5584,3.5139,3.46,3.3805,3.2928,3.1913,3.1107,3.0183,2.9148,2.8638,2.8107,2.7494,2.7055,2.6635,2.6252,2.6866,2.6814,2.6139,2.6233,2.5933,0.0,0.0,0.0,0.0,0.5268,0.0,0.4794,0.4375,0.383,0.3118,0.2886,0.2714,0.2407,0.2792,0.3232,0.3455,0.4102,0.457,0.4618,0.4512,0.4442,0.4498,0.5005,0.5591,0.6202,0.6842,0.7489,0.8109,0.9284,1.0867,1.2939,1.3449,1.4904,1.7603,1.7831,1.8733,2.0482,2.222,2.3057,2.303,2.5422,2.7024,2.7933,2.8683,3.0023,3.1684,3.1684,3.2257,3.3267,3.4061,3.4464,3.4685,3.5655,3.7049,3.8591,3.9466,4.0349,4.1084,4.1013,4.0993,4.0999,4.1003,4.1066,4.1143,4.1127,4.1694,4.2325,4.2324,4.3354,4.426,4.3498,4.3239,4.2777,4.1253,4.0766,4.0745,4.092,4.31,4.4232,4.1506,4.0928,4.0927,4.1064,4.1025,4.0506,3.9091,3.8196,3.7304,3.6289,3.6055,3.5996,3.5993,3.5164,3.4573,3.4475,3.29,3.1878,3.1775,3.0163,2.9145,2.8978,2.808,2.7491,2.7309,2.6479,2.5613,2.4676,2.6137,2.6083,2.4678,2.4743,2.3954,0.0,0.0,0.7342,0.6217,0.596,0.0,0.4566,0.3957,0.3347,0.2404,0.1573,0.097,0.0849,0.0582,0.0773,0.198,0.2348,0.3012,0.4553,0.4702,0.4603,0.4502,0.4476,0.4719,0.5374,0.5849,0.6405,0.7129,0.9169,1.0876,1.2,1.3409,1.5225,1.7551,1.7805,1.8749,2.0483,2.2179,2.3009,2.3028,2.4791,2.6437,2.7893,2.8016,2.9379,3.1616,3.1616,3.2487,3.393,3.4202,3.44,3.468,3.6248,3.7507,3.8532,3.9409,4.0266,4.1011,4.1011,4.1003,4.1003,4.0996,4.1438,4.1966,4.1956,4.2528,4.3164,4.3172,4.3305,4.3452,4.333,4.3168,4.298,4.2738,4.1585,4.0804,4.1793,4.1778,4.1662,4.1962,4.1351,4.0843,4.0936,4.0924,4.0859,4.0629,3.8908,3.7489,3.7105,3.6423,3.5994,3.5995,3.5212,3.4398,3.3682,3.2625,3.1683,3.0987,2.9898,2.8937,2.8161,2.7223,2.6347,2.552,2.5329,2.4801,2.3915,2.4802,2.4768,2.3841,2.3903,2.3417,0.7533,0.722,0.6906,0.6254,0.584,0.0,0.0,0.4066,0.3486,0.2747,0.1586,0.0445,-0.0392,-0.0823,-0.0886,-0.0378,0.0934,0.2268,0.3298,0.3863,0.4105,0.397,0.3929,0.4114,0.4643,0.5189,0.592,0.6925,0.8154,0.9564,1.1172,1.2299,1.4313,1.735,1.7747,1.8737,2.0488,2.2158,2.2972,2.2921,2.4604,2.6237,2.775,2.775,2.9334,3.2106,3.2101,3.3082,3.4712,3.4768,3.5111,3.5742,3.7153,3.7964,3.8505,3.9813,4.0607,4.0996,4.1007,4.0999,4.0999,4.0963,4.1528,4.2209,4.2189,4.3039,4.4085,4.4473,4.4548,4.4506,4.4495,4.4071,4.3679,4.3731,4.2701,4.1788,4.2126,4.2217,4.2079,4.1473,4.147,4.139,4.0897,4.0826,4.049,3.9427,3.8299,3.7363,3.6684,3.6257,3.6003,3.6005,3.4824,3.3863,3.3441,3.1773,3.0555,3.0089,2.8795,2.7832,2.7325,2.6006,2.485,2.3869,2.3781,2.3555,2.3151,2.346,2.3188,2.2413,2.2916,2.2509,0.7979,0.726,0.6412,0.6279,0.5864,0.5335,0.0,0.0,0.0,0.3114,0.1841,0.0367,-0.1201,-0.1684,-0.2067,-0.2704,-0.0612,0.1162,0.1352,0.2415,0.3188,0.3273,0.3361,0.3537,0.3853,0.4618,0.5579,0.6702,0.7087,0.8242,1.0425,1.1229,1.336,1.715,1.7669,1.8734,2.0486,2.2172,2.2959,2.2844,2.4568,2.6175,2.7597,2.7643,2.9446,3.2564,3.2559,3.3576,3.5245,3.527,3.5829,3.6762,3.7851,3.8364,3.8724,4.0314,4.0924,4.0971,4.0974,4.109,4.1217,4.115,4.182,4.2684,4.2856,4.3788,4.4962,4.5602,4.5785,4.5754,4.5709,4.512,4.453,4.453,4.3806,4.308,4.2792,4.3248,4.315,4.1257,4.1591,4.1859,4.0839,4.0726,4.0084,3.8024,3.7728,3.7344,3.6263,3.6036,3.5981,3.5985,3.4425,3.3398,3.3393,3.1001,2.9475,2.9421,2.7782,2.6709,2.6474,2.4795,2.3507,2.2756,2.2622,2.2505,2.242,2.2307,2.1901,2.1263,2.2015,2.1598,0.8216,0.8491,0.8417,0.7133,0.6971,0.6697,0.5074,0.0,0.3581,0.2457,0.0,0.0213,-0.1162,0.0,0.0,-0.4066,-0.2891,-0.1678,-0.1235,0.0401,0.1882,0.2762,0.2778,0.2731,0.2771,0.397,0.5013,0.5641,0.6844,0.8275,0.9907,1.1302,1.3611,1.7088,1.7655,1.8741,2.0479,2.2226,2.3024,2.291,2.4604,2.6167,2.7597,2.7551,2.9319,3.2424,3.2422,3.3425,3.5038,3.5157,3.5736,3.6623,3.7694,3.8624,3.9491,4.0518,4.0898,4.0917,4.0917,4.1422,4.2062,4.1992,4.3044,4.4473,4.5169,4.5481,4.5615,4.5761,4.5703,4.562,4.5693,4.5545,4.5359,4.5359,4.469,4.4231,4.4882,4.3962,4.2927,4.2659,4.2159,4.1502,4.0677,4.0626,4.0282,3.9004,3.8491,3.7916,3.7078,3.6352,3.5908,3.5914,3.4401,3.3402,3.339,3.0996,2.9503,2.95,2.785,2.6507,2.5668,2.3955,2.2985,2.2887,2.2805,2.2411,2.1717,2.1698,2.1585,2.1388,2.1503,2.1088,0.8115,0.8432,0.8502,0.7687,0.7028,0.6293,0.519,0.4553,0.4016,0.3437,0.0,0.0,0.0,0.0,0.0,0.0,-0.2737,-0.2642,-0.1621,-0.0413,0.0673,0.1486,0.1879,0.2289,0.2843,0.3711,0.4388,0.4763,0.5821,0.7393,0.9609,1.0762,1.3208,1.7253,1.7747,1.8778,2.0477,2.2189,2.2984,2.2924,2.4604,2.6167,2.7592,2.7565,2.9319,3.2406,3.2406,3.3408,3.5075,3.5073,3.5923,3.7299,3.7786,3.8593,3.9554,4.0459,4.1133,4.1602,4.1593,4.2175,4.297,4.3443,4.4059,4.4738,4.5562,4.5791,4.575,4.5738,4.569,4.5657,4.564,4.5568,4.5513,4.555,4.5208,4.4978,4.5323,4.4844,4.4193,4.3637,4.2947,4.2176,4.1295,4.0803,4.0048,3.8626,3.8279,3.7702,3.6406,3.5965,3.5604,3.5133,3.4018,3.3083,3.2631,3.0183,2.8672,2.8626,2.6521,2.4863,2.3965,2.2785,2.1932,2.1467,2.1375,2.1201,2.0903,2.0861,2.0843,2.0822,2.0778,2.0612,0.7812,0.7658,0.7465,0.7614,0.6778,0.576,0.518,0.4746,0.4356,0.3885,0.2486,0.0,0.0,0.0,-0.1072,-0.1134,0.0,-0.2282,-0.1702,-0.0859,-0.0064,0.0574,0.1315,0.2119,0.2957,0.3549,0.3947,0.4153,0.5053,0.6715,0.9278,1.0293,1.2827,1.725,1.7763,1.8909,2.0831,2.2305,2.309,2.3262,2.4709,2.6177,2.7631,2.7611,2.9368,3.2424,3.2424,3.3444,3.5111,3.5322,3.6326,3.7802,3.8118,3.8843,3.9788,4.0462,4.1274,4.2073,4.2071,4.2788,4.3872,4.4718,4.4963,4.504,4.5626,4.5795,4.5754,4.5726,4.5693,4.5657,4.5603,4.5568,4.555,4.5568,4.5495,4.5419,4.54,4.54,4.5052,4.3902,4.3274,4.2564,4.1436,4.078,3.9868,3.8228,3.8012,3.7443,3.5759,3.56,3.5349,3.4567,3.3685,3.285,3.2018,2.9551,2.7815,2.7298,2.5048,2.3478,2.2848,2.1837,2.0996,2.0409,2.0352,2.0345,2.0405,2.0133,2.0017,2.0083,2.0247,2.0243,0.7324,0.6185,0.5331,0.6689,0.6375,0.5569,0.503,0.4789,0.4319,0.302,0.2596,0.1932,0.0248,0.0155,-0.0126,-0.1542,-0.0734,0.0,0.0,-0.1098,-0.0099,0.0443,0.1377,0.2236,0.2844,0.3452,0.3801,0.3814,0.4936,0.6576,0.8803,1.0124,1.2741,1.698,1.7631,1.9136,2.1735,2.2643,2.3456,2.4173,2.4989,2.6198,2.7701,2.7624,2.9383,3.2495,3.2495,3.3498,3.5169,3.6004,3.6877,3.7787,3.8714,3.9643,4.0476,4.0646,4.1241,4.1994,4.1996,4.3131,4.4697,4.549,4.5766,4.5776,4.5795,4.5754,4.5709,4.5709,4.5657,4.5603,4.5586,4.5586,4.5586,4.5513,4.5495,4.5495,4.5419,4.5398,4.49,4.3177,4.2813,4.2278,4.0632,4.0415,3.9909,3.8153,3.7916,3.7309,3.5617,3.547,3.5214,3.4487,3.3616,3.2744,3.1887,2.9403,2.7194,2.5487,2.3794,2.2868,2.2908,2.132,2.0438,2.0395,2.0396,2.0399,2.0401,1.9629,1.9234,1.9262,2.0032,1.999,0.4758,0.4926,0.5331,0.4968,0.5138,0.5232,0.4688,0.443,0.4031,0.3086,0.2369,0.1636,0.0789,0.0103,-0.0461,-0.0871,-0.0711,-0.0715,0.0,-0.0401,0.0563,0.1271,0.1819,0.2313,0.2783,0.3507,0.3811,0.3495,0.5543,0.7458,0.902,1.09,1.3631,1.7374,1.7803,1.9205,2.1767,2.2667,2.349,2.428,2.5085,2.6326,2.7883,2.7773,2.9237,3.1859,3.2349,3.3227,3.442,3.5775,3.6878,3.7846,3.9315,4.0476,4.1294,4.1439,4.202,4.2888,4.4051,4.4839,4.5379,4.565,4.5731,4.5715,4.5738,4.6092,4.6386,4.5794,4.6026,4.6336,4.574,4.5586,4.5586,4.5568,4.5531,4.5495,4.5477,4.5017,4.4423,4.3771,4.2795,4.1893,4.1264,4.0762,4.0049,3.8862,3.823,3.7494,3.6407,3.5309,3.434,3.3558,3.2698,3.183,3.0954,2.9021,2.7091,2.533,2.3631,2.2728,2.2835,2.1174,2.0287,2.0324,2.039,2.0133,1.9607,1.9333,1.8939,1.8416,1.8687,1.8644,0.299,0.3636,0.4457,0.3698,0.398,0.4378,0.4068,0.3838,0.346,0.2698,0.1997,0.1373,0.0878,0.0128,-0.0388,-0.0297,-0.0414,-0.049,0.0,0.0374,0.1178,0.1772,0.2137,0.2572,0.3167,0.3785,0.4236,0.4426,0.6391,0.8261,0.9834,1.1891,1.4402,1.7426,1.8082,1.9639,2.2245,2.282,2.367,2.4808,2.5589,2.6691,2.8009,2.817,2.9461,3.158,3.2344,3.3309,3.4492,3.6134,3.7335,3.8267,3.9736,4.0862,4.1701,4.2112,4.2794,4.3731,4.5186,4.57,4.57,4.57,4.57,4.5703,4.5709,4.6254,4.6775,4.6219,4.6471,4.6778,4.6201,4.5817,4.5586,4.5586,4.5568,4.5513,4.5457,4.5035,4.4461,4.3771,4.2833,4.193,4.1245,4.0709,3.9961,3.881,3.8197,3.7447,3.6312,3.499,3.3859,3.3057,3.2179,3.1059,2.9579,2.8119,2.6703,2.5294,2.3588,2.2681,2.2803,2.1152,2.0254,2.0301,2.0334,2.0113,1.9585,1.9013,1.8464,1.795,1.734,1.705]},{"header":{"parameterUnit":"m.s-1","parameterCategory":1,"la1":30.6,"la2":29.2853,"lo1":-89.7004,"lo2":-87.6739,"dy":0.0162,"dx":0.0183,"nx":112,"ny":82,"refTime":"2023-08-01T12:00:00:Z","depth":0,"parameterNumber":3,"parameterNumberName":"V-component_of_WINDS"},"data":[0.0,0.0,0.0,0.0,0.0,0.0,0.0,0.0,0.0,0.0,0.0,0.0,0.0,0.0,0.0,0.0,0.0,0.0,0.0,0.0,0.0,0.0,0.0,0.0,0.0,0.0,0.0,0.0,0.0,0.0,0.0,0.0,0.0,0.0,0.0,0.0,0.0,0.0,0.0,0.0,0.0,0.0,0.0,0.0,0.0,0.0,0.0,0.0,0.0,0.0,0.0,0.0,0.0,0.0,0.0,0.0,0.0,0.0,0.0,0.0,0.0,0.0,0.0,0.0,0.0,0.0,0.0,0.0,0.0,0.0,0.0,0.0,0.0,0.0,0.0,0.0,0.0,0.0,0.0,0.0,0.0,0.0,0.0,0.0,0.0,0.0,0.0,0.0,0.0,0.0,-1.1568,-1.0576,-0.863,-0.7428,-0.7446,-0.6774,-0.6388,-0.6461,0.0,0.0,0.0,0.0,0.0,0.0,0.0,0.0,0.0,0.0,0.0,0.0,0.0,0.0,0.0,0.0,0.0,0.0,0.0,0.0,0.0,0.0,0.0,0.0,0.0,0.0,0.0,0.0,0.0,0.0,0.0,0.0,0.0,0.0,0.0,0.0,0.0,0.0,0.0,0.0,0.0,0.0,0.0,0.0,0.0,0.0,0.0,0.0,0.0,0.0,0.0,0.0,0.0,0.0,0.0,0.0,0.0,0.0,0.0,0.0,0.0,0.0,0.0,0.0,0.0,0.0,0.0,0.0,0.0,0.0,0.0,0.0,0.0,0.0,0.0,0.0,0.0,0.0,0.0,0.0,0.0,0.0,0.0,0.0,0.0,0.0,0.0,0.0,0.0,0.0,0.0,0.0,0.0,0.0,0.0,0.0,0.0,0.0,0.0,0.0,0.0,0.0,0.0,0.0,-1.2088,-1.0858,-0.9585,-0.8767,-0.8664,-0.7407,-0.6689,-0.682,0.0,0.0,0.0,0.0,0.0,0.0,0.0,0.0,0.0,0.0,0.0,0.0,0.0,0.0,0.0,0.0,0.0,0.0,0.0,0.0,0.0,0.0,0.0,0.0,0.0,0.0,0.0,0.0,0.0,0.0,0.0,0.0,0.0,0.0,0.0,0.0,0.0,0.0,0.0,0.0,0.0,0.0,0.0,0.0,0.0,0.0,0.0,0.0,0.0,0.0,0.0,0.0,0.0,0.0,0.0,0.0,0.0,0.0,0.0,0.0,0.0,0.0,0.0,0.0,0.0,0.0,0.0,0.0,0.0,0.0,0.0,0.0,0.0,0.0,0.0,0.0,0.0,0.0,0.0,0.0,0.0,0.0,0.0,0.0,0.0,0.0,0.0,0.0,0.0,0.0,0.0,0.0,0.0,0.0,0.0,0.0,0.0,0.0,0.0,0.0,0.0,0.0,0.0,-1.1378,-1.1205,-1.0493,-0.9721,-0.9141,-0.8865,-0.7633,-0.6923,-0.7055,-0.5789,0.0,0.0,0.0,0.0,0.0,0.0,0.0,0.0,0.0,0.0,0.0,0.0,0.0,0.0,0.0,0.0,0.0,0.0,0.0,0.0,0.0,0.0,0.0,0.0,0.0,0.0,0.0,0.0,0.0,0.0,0.0,0.0,0.0,0.0,0.0,0.0,0.0,0.0,0.0,0.0,0.0,0.0,0.0,0.0,0.0,0.0,0.0,0.0,0.0,0.0,0.0,0.0,0.0,0.0,0.0,0.0,0.0,0.0,0.0,0.0,0.0,0.0,0.0,0.0,0.0,0.0,0.0,0.0,0.0,0.0,0.0,0.0,0.0,0.0,0.0,0.0,0.0,0.0,0.0,0.0,0.0,0.0,0.0,0.0,0.0,0.0,0.0,0.0,0.0,0.0,0.0,0.0,0.0,0.0,0.0,0.0,0.0,0.0,0.0,0.0,0.0,0.0,-1.0692,-1.0364,-1.0108,-0.9607,-0.9155,-0.88,-0.7574,-0.6881,-0.6965,-0.5653,0.0,0.0,0.0,0.0,0.0,0.0,0.0,0.0,0.0,0.0,0.0,0.0,0.0,0.0,0.0,0.0,0.0,0.0,0.0,0.0,0.0,0.0,0.0,0.0,0.0,0.0,0.0,0.0,0.0,0.0,0.0,0.0,0.0,0.0,0.0,0.0,0.0,0.0,0.0,0.0,0.0,0.0,0.0,0.0,0.0,0.0,0.0,0.0,0.0,0.0,0.0,0.0,0.0,0.0,0.0,0.0,0.0,0.0,0.0,0.0,0.0,0.0,0.0,0.0,0.0,0.0,0.0,0.0,0.0,0.0,0.0,0.0,0.0,0.0,0.0,0.0,0.0,0.0,0.0,0.0,0.0,0.0,0.0,0.0,0.0,0.0,0.0,0.0,0.0,0.0,0.0,0.0,0.0,0.0,0.0,0.0,0.0,0.0,0.0,0.0,0.0,0.0,-1.0914,-1.0514,-1.0059,-0.9422,-0.8921,-0.8645,-0.7236,-0.6339,-0.6272,-0.5175,0.0,0.0,0.0,0.0,0.0,0.0,0.0,0.0,0.0,0.0,0.0,0.0,0.0,0.0,0.0,0.0,0.0,0.0,0.0,0.0,0.0,0.0,0.0,0.0,0.0,0.0,0.0,0.0,0.0,0.0,0.0,0.0,0.0,0.0,0.0,0.0,0.0,0.0,0.0,0.0,0.0,0.0,0.0,0.0,0.0,0.0,0.0,0.0,0.0,0.0,0.0,0.0,0.0,0.0,0.0,0.0,0.0,0.0,0.0,0.0,0.0,0.0,0.0,0.0,0.0,0.0,0.0,0.0,0.0,0.0,0.0,0.0,0.0,0.0,0.0,0.0,0.0,0.0,0.0,0.0,0.0,0.0,0.0,0.0,0.0,0.0,0.0,0.0,0.0,0.0,0.0,0.0,0.0,0.0,0.0,0.0,0.0,0.0,0.0,0.0,0.0,0.0,-0.9735,-0.9586,-0.9274,-0.8826,-0.8344,-0.7844,-0.6562,-0.5838,-0.5943,0.0,0.0,0.0,0.0,0.0,0.0,0.0,0.0,0.0,0.0,0.0,0.0,0.0,0.0,0.0,0.0,0.0,0.0,0.0,0.0,0.0,0.0,0.0,0.0,0.0,0.0,0.0,0.0,0.0,0.0,0.0,0.0,0.0,0.0,0.0,0.0,0.0,0.0,0.0,0.0,0.0,0.0,0.0,0.0,0.0,0.0,0.0,0.0,0.0,0.0,0.0,0.0,0.0,0.0,0.0,0.0,0.0,0.0,0.0,0.0,0.0,0.0,0.0,0.0,0.0,0.0,0.0,0.0,0.0,0.0,0.0,0.0,0.0,0.0,0.0,0.0,0.0,0.0,0.0,0.0,0.0,0.0,0.0,0.0,0.0,0.0,0.0,0.0,0.0,0.0,0.0,0.0,0.0,0.0,0.0,0.0,0.0,0.0,0.0,0.0,0.0,0.0,-0.8478,-0.8645,-0.8611,-0.8263,-0.7866,-0.7375,-0.6745,-0.5593,-0.5045,-0.5428,0.0,0.0,0.0,0.0,0.0,0.0,0.0,0.0,0.0,0.0,0.0,0.0,0.0,0.0,0.0,0.0,0.0,0.0,0.0,0.0,0.0,0.0,0.0,0.0,0.0,0.0,0.0,0.0,0.0,0.0,0.0,0.0,0.0,0.0,0.0,0.0,0.0,0.0,0.0,0.0,0.0,0.0,0.0,0.0,0.0,0.0,0.0,0.0,0.0,0.0,0.0,0.0,0.0,0.0,0.0,0.0,0.0,0.0,0.0,0.0,0.0,0.0,0.0,0.0,0.0,0.0,0.0,0.0,0.0,0.0,0.0,0.0,0.0,0.0,0.0,0.0,0.0,0.0,0.0,0.0,0.0,0.0,0.0,0.0,0.0,0.0,0.0,0.0,0.0,0.0,0.0,0.0,0.0,0.0,0.0,0.0,0.0,0.0,0.0,0.0,0.0,0.0,-0.761,-0.7809,-0.7723,-0.7058,-0.6493,-0.5948,-0.5406,-0.426,-0.3889,0.0,0.0,0.0,0.0,0.0,0.0,0.0,0.0,0.0,0.0,0.0,0.0,0.0,0.0,0.0,0.0,0.0,0.0,0.0,0.0,0.0,0.0,0.0,0.0,0.0,0.0,0.0,0.0,0.0,0.0,0.0,0.0,0.0,0.0,0.0,0.0,0.0,0.0,0.0,0.0,0.0,0.0,0.0,0.0,0.0,0.0,0.0,0.0,0.0,0.0,0.0,0.0,0.0,0.0,0.0,0.0,0.0,0.0,0.0,0.0,0.0,0.0,0.0,0.0,0.0,0.0,0.0,0.0,0.0,0.0,0.0,0.0,0.0,0.0,0.0,0.0,0.0,0.0,0.0,0.0,0.0,0.0,0.0,0.0,0.0,0.0,0.0,0.0,0.0,0.0,0.0,0.0,0.0,0.0,0.0,0.0,0.0,0.0,0.0,0.0,0.0,0.0,0.0,-0.6559,-0.6765,-0.662,-0.5824,-0.5365,-0.4719,-0.367,-0.276,-0.2046,-0.156,0.0,0.0,0.0,0.0,0.0,0.0,0.0,0.0,0.0,0.0,0.0,0.0,0.0,0.0,0.0,0.0,0.0,0.0,0.0,0.0,0.0,0.0,0.0,0.0,0.0,0.0,0.0,0.0,0.0,0.0,0.0,0.0,0.0,0.0,0.0,0.0,0.0,0.0,0.0,0.0,0.0,0.0,0.0,0.0,0.0,0.0,0.0,0.0,0.0,0.0,0.0,0.0,0.0,0.0,0.0,0.0,0.0,0.0,0.0,0.0,0.0,0.0,0.0,0.0,0.0,0.0,0.0,0.0,0.0,0.0,0.0,0.0,0.0,0.0,0.0,0.0,0.0,0.0,0.0,0.0,0.0,0.0,0.0,0.0,0.0,0.0,0.0,0.0,0.0,0.0,0.0,0.0,0.0,0.0,0.0,0.0,0.0,0.0,0.0,0.0,0.0,0.0,-0.5547,-0.5551,-0.5396,-0.4858,-0.4131,-0.3222,-0.2026,-0.1165,-0.0446,0.0162,0.0,0.0,0.0,0.0,0.0,0.0,0.0,0.0,0.0,0.0,0.0,0.0,0.0,0.0,0.0,0.0,0.0,0.0,0.0,0.0,0.0,0.0,0.0,0.0,0.0,0.0,0.0,0.0,0.0,0.0,0.0,0.0,0.0,0.0,0.0,0.0,0.0,0.0,0.0,0.0,0.0,0.0,0.0,0.0,0.0,0.0,0.0,0.0,0.0,0.0,0.0,0.0,0.0,0.0,0.0,0.0,0.0,0.0,0.0,0.0,0.0,0.0,0.0,0.0,0.0,0.0,0.0,0.0,0.0,0.0,0.0,0.0,0.0,0.0,0.0,0.0,0.0,0.0,0.0,0.0,0.0,0.0,0.0,0.0,0.0,0.0,0.0,0.0,0.0,0.0,0.0,0.0,0.0,0.0,0.0,0.0,0.0,0.0,0.0,0.0,0.0,0.0,-0.4585,-0.4311,-0.4079,-0.4001,-0.2842,-0.1635,-0.0532,0.0396,0.0952,0.1052,0.0,0.0,0.0,0.0,0.0,0.0,0.0,0.0,0.0,0.0,0.0,0.0,0.0,0.0,0.0,0.0,0.0,0.0,0.0,0.0,0.0,0.0,0.0,0.0,0.0,0.0,0.0,0.0,0.0,0.0,0.0,0.0,0.0,0.0,0.0,0.0,0.0,0.0,0.0,0.0,0.0,0.0,0.0,0.0,0.0,0.0,0.0,0.0,0.0,0.0,0.0,0.0,0.0,0.0,0.0,0.0,0.0,0.0,0.0,0.0,1.8075,1.6942,0.0,0.0,0.0,0.0,0.0,0.0,0.0,0.0,0.0,0.0,0.0,0.0,0.0,0.0,0.0,0.0,0.0,0.0,0.0,0.0,0.0,0.0,0.0,0.0,0.0,0.0,0.0,0.0,0.0,0.0,0.0,0.0,0.0,0.0,0.0,0.0,0.0,0.0,0.0,0.0,-0.3742,-0.351,-0.3077,-0.2471,-0.1625,-0.0597,0.0643,0.1357,0.2096,0.2956,0.3344,0.0,0.0,0.0,0.0,0.0,0.0,0.0,0.0,0.0,0.0,0.0,0.0,0.0,0.0,0.0,0.0,0.0,0.0,0.0,0.0,0.0,0.0,0.0,0.0,0.0,0.0,0.0,0.0,0.0,0.0,0.0,0.0,0.0,0.0,0.0,0.0,0.0,0.0,0.0,0.0,0.0,0.0,0.0,0.0,0.0,0.0,0.0,0.0,0.0,0.0,0.0,0.0,0.0,0.0,0.0,0.0,0.0,0.0,0.0,1.9273,1.8302,0.0,0.0,0.0,0.0,0.0,0.0,0.0,0.0,0.0,0.0,0.0,0.0,0.0,0.0,0.0,0.0,0.0,0.0,0.0,0.0,0.0,0.0,0.0,0.0,0.0,0.0,0.0,0.0,0.0,0.0,0.0,0.0,0.0,0.0,0.0,0.0,0.0,0.0,0.0,0.0,-0.3075,-0.2627,-0.2047,-0.1258,-0.0353,0.0738,0.2013,0.2659,0.3234,0.3757,0.4195,0.0,0.0,0.0,0.0,0.0,0.0,0.0,0.0,0.0,0.0,0.0,0.0,0.0,0.0,0.0,0.0,0.0,0.0,0.0,0.0,0.0,0.0,0.0,0.0,0.0,0.0,0.0,0.0,0.0,0.0,0.0,0.0,0.0,0.0,0.0,0.0,0.0,0.0,0.0,0.0,0.0,0.0,0.0,0.0,0.0,0.0,0.0,0.0,0.0,0.0,0.0,0.0,0.0,1.1108,1.3913,1.7904,2.0517,2.2022,2.2452,2.0687,1.9684,1.9169,1.6811,0.0,0.0,0.0,0.0,0.0,0.0,0.0,0.0,0.0,0.0,0.0,0.0,0.0,0.0,0.0,0.0,0.0,0.0,0.0,0.0,0.0,0.0,-0.112,-0.1207,-0.1198,-0.1401,-0.1965,0.0,0.0,0.0,0.0,0.0,0.0,0.0,0.0,0.0,0.0,0.0,-0.2468,-0.1832,-0.103,-0.0269,0.0819,0.1934,0.3162,0.3873,0.4252,0.4237,0.4914,0.5093,0.0,0.0,0.0,0.0,0.0,0.0,0.0,0.0,0.0,0.0,0.0,0.0,0.0,0.0,0.0,0.0,0.0,0.0,0.0,0.0,0.0,0.0,0.0,0.0,0.0,0.0,0.0,0.0,0.0,0.0,0.0,0.0,1.3143,1.3428,0.0,0.0,0.0,0.0,0.0,0.0,0.0,0.0,0.0,0.0,0.0,0.0,0.0,0.6108,0.7893,0.8554,0.9106,0.9636,1.4646,1.7966,1.9834,2.2593,2.387,2.3918,2.3652,0.0,1.8975,1.7637,0.0,0.0,0.0,0.0,0.0,0.0,0.0,0.0,0.0,0.0,0.0,0.0,0.0,0.0,0.0,0.0,0.0,0.0,0.0,0.0,0.0,0.0,-0.0188,-0.0657,-0.0822,-0.0881,-0.1444,-0.1873,-0.2346,-0.2543,-0.2447,-0.2287,0.0,0.0,0.0,0.0,0.0,0.0,-0.2073,-0.1274,-0.0354,0.0635,0.1542,0.2445,0.3392,0.4378,0.5022,0.5133,0.5757,0.5867,0.53,0.4938,0.0,0.0,0.0,0.0,0.0,0.0,0.0,0.0,0.0,0.0,0.0,0.0,0.0,0.0,0.0,0.0,0.0,0.0,0.0,0.0,0.0,0.0,0.0,0.0,0.0,0.0,0.0,0.0,0.0,1.37,1.4922,1.4638,1.4877,1.4477,0.0,0.0,0.0,0.0,0.0,0.0,0.0,0.0,0.0,0.4108,0.4611,0.5437,0.6664,0.8063,1.0024,1.2444,1.6696,1.958,2.1182,2.3908,2.543,2.5821,2.5352,2.4276,2.2635,1.9971,1.7575,1.5395,0.0,0.0,0.0,0.0,1.2276,1.329,1.5809,1.6455,1.6009,1.5033,0.0,0.0,0.0,0.0,0.0,0.0,0.0,0.2332,0.1523,0.0674,-0.0,-0.0291,-0.0478,-0.0841,-0.1341,-0.1165,-0.1139,-0.1901,-0.1859,-0.1832,-0.2111,-0.1942,0.0,0.0,0.0,-0.1009,-0.1009,-0.0295,0.0563,0.1565,0.2603,0.3547,0.4379,0.5242,0.5693,0.5634,0.621,0.625,0.5586,0.5401,0.4927,0.0,0.0,0.0,0.0,0.0,0.0,0.0,0.0,0.0,0.0,0.0,0.0,0.0,0.0,0.0,0.0,0.0,0.0,0.0,0.0,0.0,0.0,0.0,0.0,0.0,0.0,0.0,0.0,1.5553,1.6412,1.5827,1.6258,1.5961,0.0,0.0,0.0,0.0,0.0,0.0,0.4458,0.3109,0.2793,0.3663,0.4739,0.5477,0.581,0.8419,1.1553,1.5189,1.7951,2.0308,2.2227,2.4501,2.6063,2.682,2.6157,2.5895,2.5633,2.2269,1.964,1.7636,1.6504,1.543,1.4535,1.4637,1.4833,1.5394,1.7011,1.7574,1.7334,1.6188,1.5047,1.3756,1.2207,0.0,0.0,0.0,0.0,0.3104,0.2068,0.1092,0.0298,0.0099,-0.0296,-0.0581,-0.0646,-0.0268,-0.0085,-0.1114,-0.1176,-0.1169,-0.1496,-0.134,0.0,-0.0832,-0.0502,-0.0146,0.0145,0.0746,0.1607,0.2853,0.3728,0.4504,0.5271,0.5925,0.6225,0.6066,0.6454,0.6449,0.5891,0.573,0.5396,0.4837,0.0,0.0,0.0,0.0,0.0,0.0,0.0,0.0,0.0,0.0,0.0,0.0,0.0,0.0,0.0,0.0,0.0,0.0,0.0,0.0,0.0,0.0,0.0,0.0,0.0,0.0,0.0,0.0,0.0,1.7285,1.7676,0.0,0.0,0.0,0.0,1.0624,0.8909,0.7275,0.5694,0.4048,0.3218,0.3403,0.5718,0.6694,0.6171,1.0116,1.3658,1.6635,1.8461,2.0602,2.3104,2.4059,2.5052,2.599,2.5906,2.5895,2.5742,2.37,2.236,2.1453,2.0609,1.9783,1.8866,1.8092,1.7291,1.6763,1.7851,1.8255,1.8149,1.7534,1.5849,1.3634,1.1857,1.013,0.0,0.0,0.5239,0.4017,0.2516,0.1836,0.1235,0.0203,-0.0,0.0195,0.1051,0.0922,0.0436,-0.0318,-0.0225,-0.0142,-0.0269,0.0,-0.006,0.0,0.0217,0.0576,0.1162,0.1652,0.2701,0.4653,0.4819,0.5002,0.5628,0.616,0.6488,0.6471,0.661,0.6575,0.6276,0.6009,0.5653,0.519,0.4778,0.0,0.0,0.0,0.0,0.0,0.0,0.0,0.0,0.0,0.0,0.0,0.0,0.0,0.0,0.0,0.0,0.0,0.0,0.0,0.0,0.0,0.0,0.0,0.0,0.0,0.0,0.0,0.0,1.8443,1.885,0.0,1.6769,1.5744,1.4365,1.2386,1.0701,0.9104,0.7516,0.667,0.5521,0.4041,0.8343,1.0861,1.131,1.2151,1.3641,1.5929,1.8675,2.1067,2.3174,2.53,2.6472,2.6837,2.6837,2.6837,2.6694,2.5306,2.3931,2.2562,2.1636,2.1126,2.0698,1.9835,1.8875,1.8103,1.8474,1.8438,1.8134,1.7036,1.5691,1.4166,1.263,1.1009,0.9255,0.764,0.6152,0.4653,0.3836,0.2808,0.1863,0.1234,0.0715,0.0704,0.1252,0.1509,0.1458,0.1337,0.0712,0.0452,0.1073,0.0745,0.0579,0.0989,0.1316,0.1611,0.1958,0.2558,0.3422,0.4617,0.528,0.5924,0.6651,0.7097,0.7248,0.7087,0.7376,0.7256,0.6587,0.6562,0.6284,0.5727,0.5415,0.5116,0.0,0.0,0.0,0.0,0.0,0.0,0.0,0.0,0.0,0.0,0.0,0.0,0.0,0.0,0.0,0.0,0.0,0.0,0.0,0.0,0.0,0.0,0.0,0.0,0.0,1.8311,1.9262,1.9325,1.9541,1.9113,1.7624,1.6656,1.5389,1.3546,1.2305,1.1005,0.9575,0.9471,0.8767,0.7358,1.0818,1.295,1.3652,1.3307,1.4183,1.6082,1.8555,2.109,2.3587,2.5764,2.6784,2.6784,2.7167,2.7071,2.6688,2.6024,2.4869,2.3309,2.2122,2.1741,2.1562,2.0654,1.9837,1.9288,1.892,1.8571,1.8025,1.7014,1.5896,1.469,1.3238,1.176,1.0224,0.874,0.7155,0.5751,0.4994,0.3865,0.2815,0.2164,0.1746,0.152,0.1832,0.2289,0.2612,0.2591,0.1733,0.1264,0.2014,0.1708,0.1501,0.1905,0.223,0.2518,0.2855,0.3542,0.4263,0.499,0.5808,0.6567,0.7243,0.7507,0.7652,0.7593,0.7819,0.7648,0.7055,0.7119,0.6874,0.6277,0.598,0.5606,0.5247,0.0,0.0,0.0,0.0,0.0,0.0,0.0,0.0,0.0,0.0,0.0,0.0,0.0,0.0,0.0,0.0,0.0,0.0,0.0,0.0,0.0,0.0,0.0,1.7461,1.8919,1.9922,1.9932,1.9715,1.9238,1.8199,1.6892,1.5549,1.4069,1.355,1.285,1.1774,1.2211,1.2785,1.3252,1.2915,1.2701,1.2802,1.3678,1.5115,1.7296,1.8388,2.0735,2.4251,2.5245,2.5674,2.582,2.6866,2.6673,2.5723,2.5723,2.5096,2.3996,2.2428,2.1724,2.1626,2.0671,2.0292,2.011,1.9104,1.8463,1.7962,1.7573,1.6626,1.5231,1.3585,1.2452,1.1292,0.9715,0.8438,0.7246,0.5997,0.4967,0.4108,0.3156,0.2826,0.2796,0.2978,0.3526,0.3838,0.334,0.2817,0.2472,0.2533,0.2595,0.272,0.285,0.3023,0.0,0.3771,0.4483,0.5189,0.5944,0.6405,0.6812,0.7295,0.7406,0.7609,0.7978,0.7887,0.7795,0.7709,0.7673,0.7385,0.6832,0.6415,0.5918,0.5376,0.0,0.0,0.0,0.0,0.0,0.0,0.0,0.0,0.0,0.0,0.0,0.0,0.0,0.0,0.0,0.0,0.0,0.0,0.0,0.0,0.0,1.5137,1.677,1.8007,1.9165,1.9954,2.0207,2.0169,1.9717,1.8657,1.7712,1.6595,1.5171,1.4592,1.4142,1.3793,1.362,1.3821,1.4584,1.471,1.4928,1.5175,1.4542,1.487,1.6202,1.8939,2.1636,2.4251,2.4449,2.5705,2.7588,2.7065,2.6654,2.6346,2.6346,2.5009,2.3103,2.3365,2.3,2.2179,2.0787,1.9837,1.9196,1.892,1.8256,1.7508,1.7414,1.6824,1.583,1.4586,1.3409,1.2088,1.0861,0.9477,0.8285,0.7495,0.6469,0.5401,0.4838,0.4271,0.3889,0.384,0.4049,0.4229,0.4206,0.4486,0.4477,0.3612,0.3689,0.384,0.3788,0.3963,0.4164,0.4345,0.5053,0.5764,0.6421,0.7109,0.7674,0.8011,0.8466,0.8627,0.8383,0.8407,0.8286,0.7931,0.7989,0.7853,0.7454,0.7156,0.6817,0.0,0.0,0.0,0.0,0.0,0.0,0.0,0.0,0.0,0.0,0.0,0.0,0.0,0.0,0.0,0.0,0.0,0.0,0.0,0.0,0.0,0.0,1.5238,1.6656,1.7995,1.9101,1.985,2.0129,2.0029,1.9634,1.8751,1.8038,1.7119,1.601,1.5446,1.5086,1.4938,1.4715,1.4797,1.5397,1.5452,1.5778,1.6407,1.5896,1.6521,1.8379,2.007,2.2158,2.4444,2.4963,2.6104,2.7549,2.6909,2.6206,2.5619,2.5757,2.4949,2.3539,0.0,0.0,0.0,0.0,1.9288,1.8827,1.8827,1.845,1.7893,1.7426,1.7052,1.648,1.533,1.4184,1.3152,1.2018,1.0739,0.955,0.8769,0.7753,0.6802,0.6141,0.5644,0.5228,0.4882,0.5055,0.5302,0.522,0.5837,0.0,0.5208,0.5059,0.4991,0.4957,0.5176,0.5355,0.5448,0.596,0.6515,0.7081,0.7651,0.8103,0.8364,0.8881,0.0,0.0,0.0,0.889,0.8563,0.845,0.0,0.0,0.0,0.7572,0.7389,0.7523,0.0,0.0,0.6829,0.6937,0.0,0.0,0.0,0.0,0.0,0.0,0.0,0.0,0.0,0.0,0.0,0.0,0.0,0.0,0.0,0.0,1.5149,1.6261,1.7562,1.872,1.9497,1.974,1.965,1.9293,1.8738,1.7925,1.7209,1.6606,1.6045,1.5668,1.5451,1.5522,0.0,0.0,0.0,1.6097,1.7102,1.7407,1.9011,2.183,2.1377,2.2446,2.4821,2.5925,2.6364,2.6364,2.6364,2.5554,2.4317,2.4506,2.4454,2.4208,2.2971,2.2443,2.2163,1.9722,1.8735,1.8643,1.8643,0.0,0.0,1.7606,1.7232,1.7044,1.5818,1.4962,1.4196,1.3141,1.2008,1.1011,1.0044,0.9126,0.8191,0.7256,0.692,0.6597,0.6005,0.6345,0.6578,0.6281,0.685,0.73,0.6892,0.6464,0.6166,0.6205,0.639,0.6571,0.6766,0.7088,0.7405,0.7767,0.8053,0.0,0.8603,0.9081,0.941,0.9398,0.9533,0.9537,0.9399,0.9041,0.8788,0.8672,0.8385,0.8149,0.8045,0.8508,0.8572,0.8307,0.7614,0.7379,0.0,0.0,0.0,0.0,0.0,0.0,0.0,0.0,0.0,0.0,0.0,0.0,0.0,0.0,0.0,1.4319,1.5178,1.6186,1.7401,1.7777,1.8221,1.904,1.9065,1.8866,1.8717,1.7527,1.6723,1.6488,1.6268,1.5953,1.5564,1.6242,1.6814,1.7148,1.7243,1.7587,1.8301,1.8711,1.9493,2.0708,2.2024,0.0,2.4821,2.5043,2.5154,2.5154,2.5154,2.498,2.4633,2.347,2.2465,2.1611,2.1337,2.1232,2.1054,1.9439,1.8265,1.7606,1.7606,1.7606,1.752,1.7326,1.7138,1.6763,1.619,1.5622,0.0,1.3902,1.3072,1.2222,1.1394,1.0426,0.945,0.8924,0.8204,0.7614,0.7305,0.7279,0.7347,0.7231,0.7628,0.7978,0.7797,0.7431,0.7061,0.6805,0.7062,0.7333,0.7499,0.7583,0.7887,0.8597,0.8889,0.9119,0.9427,1.0159,1.0427,1.0118,1.0136,1.0112,1.009,0.9931,0.9585,0.9099,0.8897,0.8832,0.8777,0.8705,0.8853,0.907,0.8642,0.8462,0.0,0.0,0.0,0.0,0.0,0.0,0.0,0.0,0.0,0.0,0.0,1.2213,1.2362,0.0,1.3191,1.4347,1.4872,1.5541,1.6615,1.6924,1.7423,1.8302,1.8366,1.8186,1.7899,1.7262,1.6755,1.646,1.6226,1.606,1.5974,1.6385,1.6952,1.7635,1.8064,1.8483,1.8693,1.9249,1.9792,2.0219,2.1767,2.3005,2.3921,2.4479,2.4821,2.4821,2.4821,2.4821,2.4591,2.2545,2.1428,2.0925,2.0925,2.0609,1.9933,1.8575,1.7707,1.7326,1.7326,1.7326,1.7326,1.7326,1.7239,1.6951,1.6676,1.6204,1.5622,1.4765,1.3806,1.2942,1.217,1.1287,1.0498,0.9912,0.9152,0.8524,0.8239,0.7985,0.7845,0.7757,0.806,0.8312,0.8214,0.8193,0.8138,0.7806,0.8008,0.8314,0.8512,0.8441,0.858,0.9103,0.9327,0.9568,0.9815,1.057,1.0903,1.0651,1.0739,1.0702,1.0511,1.0442,1.0171,0.9629,0.9464,0.9371,0.9276,0.9189,0.9298,0.9519,0.94,0.922,0.0,0.0,0.0,0.0,0.0,0.0,0.0,0.0,1.1182,1.2588,1.2635,1.2511,1.2998,1.2949,1.3168,1.4258,1.4577,1.4961,1.5809,1.6242,1.6659,1.7315,1.7503,1.7398,1.6996,1.6862,1.6651,1.6304,1.6133,1.6126,1.6119,1.6245,1.6817,1.783,1.8534,1.888,1.8957,1.9398,1.9751,2.0018,2.1271,2.2245,2.3014,2.4256,2.4821,2.4821,2.4821,2.465,2.4173,2.2116,2.113,2.0925,2.0925,2.0248,1.9078,1.8007,1.7606,1.7613,1.752,1.7419,1.7419,1.7426,1.7333,1.7239,1.7066,1.6683,1.6103,1.5337,1.4478,1.3516,1.2851,1.2078,1.138,1.0756,0.9997,0.927,0.895,0.8571,0.8237,0.8154,0.8329,0.8551,0.841,0.8782,0.899,0.8822,0.8862,0.905,0.9355,0.9267,0.9235,0.9499,0.9672,0.9923,1.0262,1.0898,1.1286,1.1295,1.1425,1.1361,1.0928,1.0914,1.0667,1.0154,0.9984,0.9821,0.9714,0.9692,0.9733,0.9846,0.9906,0.9723,0.9591,0.894,0.8145,0.7569,0.9253,1.1078,0.0,0.0,1.2646,1.2842,1.3159,1.3365,1.3416,1.3399,1.3631,1.432,1.4649,1.5061,1.5633,1.5761,1.5777,1.5746,1.6336,1.6715,1.6586,1.6166,1.5913,1.5794,1.601,1.6026,1.5727,1.6241,1.7026,1.8103,1.8169,1.8701,1.9645,1.9535,1.9683,2.0229,2.0889,2.1926,2.3014,2.4256,2.4821,2.4821,2.4821,2.405,2.2783,2.2511,2.1835,2.0925,2.0925,2.0063,1.8855,1.8698,1.8643,1.8542,1.8179,1.7893,1.7707,1.7714,1.7527,1.7239,1.7066,1.6784,1.6393,1.5629,1.4968,1.44,1.3534,1.2958,1.2415,1.1451,1.0843,1.0246,0.9531,0.8924,0.8568,0.8734,0.8613,0.844,0.8591,0.8966,0.92,0.9018,0.9071,0.9258,0.9349,0.9406,0.9505,0.9953,1.0016,1.0379,1.1242,1.1621,1.1938,1.2289,1.2337,1.2209,1.1756,1.1651,1.1276,1.0616,1.0288,1.0189,1.0206,1.0079,1.0037,0.9996,1.0177,1.0133,1.1386,1.0318,0.9014,0.8881,1.0824,1.2623,1.2152,1.226,1.2529,1.2832,1.3533,1.3927,1.3398,1.3318,1.35,1.3951,1.4091,1.4385,1.5061,1.4967,1.4784,1.4831,1.4928,1.5126,1.5553,1.5302,1.5065,1.4956,1.5106,1.5262,1.5651,1.6291,1.6985,1.7869,1.7959,1.8389,1.9006,1.9247,1.9495,1.9759,2.0764,2.1774,2.3014,2.4256,2.4821,2.477,2.3879,2.3134,2.2644,2.2644,2.2342,2.1937,2.1937,2.1162,2.0051,2.0051,1.9335,1.8497,1.8581,1.8308,1.7893,1.7721,1.7628,1.7527,1.7246,1.6871,1.6487,1.6001,1.5343,1.4592,1.4112,1.3233,1.2437,1.1857,1.1101,1.0376,1.0021,0.942,0.9017,0.9159,0.8908,0.8836,0.9044,0.9159,0.9367,0.9489,0.9639,0.9755,0.992,0.997,1.0179,1.0565,1.0662,1.0969,1.1619,1.1811,1.2026,1.2382,1.2147,1.2022,1.2116,1.1798,1.1536,1.1267,1.1065,1.0886,1.0773,1.0564,1.0478,1.0524,1.0531,1.0501,1.1841,1.0837,0.9905,1.0606,1.1979,1.3094,1.2774,1.2739,1.273,1.2674,1.3393,1.3877,1.3315,1.3193,1.3346,1.3763,1.3759,1.3956,1.4583,1.4275,1.4011,1.4098,1.3784,1.3812,1.4377,1.4335,1.4289,1.4331,1.4341,1.4703,1.5424,1.6189,1.6835,1.7484,1.7817,1.8065,1.8454,1.8905,1.921,1.9382,2.048,2.1653,2.3006,2.35,2.3981,2.4309,2.3542,2.2937,2.2644,2.2644,2.2644,2.2644,2.2644,2.2139,2.1326,2.1326,2.0245,1.8769,1.905,1.8752,1.8187,1.8009,1.7815,1.7628,1.7426,1.6958,1.6487,1.6103,1.5386,1.457,1.4183,1.3337,1.2478,1.2029,1.1217,1.0522,1.0375,0.9842,0.9397,0.9512,0.9266,0.9114,0.9202,0.9314,0.9473,0.9695,0.992,1.0159,1.026,1.0412,1.0626,1.0895,1.1027,1.1307,1.169,1.1797,1.1977,1.2224,1.1987,1.194,1.2194,1.1912,1.1751,1.1755,1.1665,1.1519,1.1326,1.1074,1.1003,1.0995,1.0889,1.0871,1.0321,1.0122,1.0775,1.2935,1.2812,1.2126,1.2126,1.3305,1.3992,1.2457,1.2567,1.2988,1.3172,1.321,1.3381,1.3895,1.3978,1.4077,1.4282,1.4047,1.3702,1.3462,1.3156,1.2961,1.2851,1.3213,1.3579,1.4035,1.4129,1.4411,1.4982,1.5925,1.6589,1.7114,1.7408,1.7845,1.8218,1.8461,1.8739,1.9283,1.9998,2.1303,2.2966,2.1608,2.1727,2.3127,2.4206,2.3913,2.2644,2.2644,2.2644,2.2644,2.2644,2.2544,2.2544,2.2544,2.1354,1.9805,1.9606,1.9052,1.8481,1.8481,1.8102,1.7628,1.7426,1.6958,1.6487,1.5629,1.5049,1.4558,1.3725,1.3344,1.2819,1.1595,1.1263,1.1097,1.044,0.9971,0.9742,0.9902,0.9639,0.9345,0.9025,0.9314,0.9544,0.9322,0.9836,1.0193,1.0092,1.0592,1.0884,1.0834,1.1068,1.1304,1.1556,1.1644,1.1828,1.2076,1.2282,1.2283,1.2014,1.2097,1.2041,1.1818,1.1874,1.1877,1.1877,1.1728,1.1536,1.1293,1.1285,1.1192,1.1092,1.147,1.2184,1.2964,1.2618,1.2175,1.2529,1.3311,1.3851,1.3638,1.4035,1.4269,1.4035,1.343,1.3233,1.3965,1.3635,1.3483,1.3921,1.3667,1.3332,1.3004,1.2473,1.2109,1.1976,1.2369,1.2781,1.3151,1.3179,1.3542,1.4273,1.5006,1.5813,1.65,1.7015,1.7558,1.8023,1.8263,1.87,1.9365,2.0408,2.1203,2.1729,2.0399,2.045,2.1624,2.2888,2.3023,2.2544,2.1733,2.1428,2.153,2.2342,2.2644,2.2644,2.2644,2.1553,2.0137,1.9914,1.9311,1.8743,1.8743,1.8373,1.79,1.7621,1.7153,1.6581,1.6298,1.5511,1.4638,1.4359,1.3574,1.2785,1.2159,1.1657,1.125,1.0997,1.0671,1.0409,1.0427,1.008,0.9752,0.9675,0.974,0.9927,1.0169,1.0115,1.0239,1.0442,1.0666,1.0909,1.1227,1.1167,1.1246,1.174,1.1584,1.1678,1.2175,1.1987,1.1995,1.2309,1.2345,1.2217,1.193,1.248,1.2551,1.2196,1.2358,1.2344,1.2224,1.2026,1.1918,1.2071,1.3171,1.4012,1.3312,1.3045,1.3084,1.38,1.4305,1.4801,1.5299,1.5623,1.5623,1.4903,1.4035,1.35,1.37,1.3483,1.3385,1.3647,1.3418,1.3009,1.2542,1.205,1.1583,1.121,1.1406,1.1792,1.2316,1.2346,1.2739,1.364,1.4459,1.5236,1.5991,1.6619,1.7311,1.7983,1.8317,1.8625,1.9139,2.0098,2.0516,2.0486,1.9652,1.9687,2.0403,2.153,2.2241,2.2544,2.1326,2.0925,2.0925,2.1733,2.2241,2.2484,2.1936,2.1122,2.0269,2.0107,1.9584,1.892,1.892,1.855,1.8087,1.7815,1.7153,1.6581,1.64,1.5445,1.4492,1.4406,1.3548,1.2709,1.2359,1.188,1.1413,1.1322,1.1073,1.0778,1.081,1.0596,1.0279,1.0126,1.0105,1.0148,1.0539,1.049,1.0434,1.0462,1.0692,1.0929,1.1115,1.0994,1.1122,1.1632,1.1503,1.1578,1.2076,1.2025,1.2115,1.2528,1.262,1.2568,1.2469,1.3042,1.3172,1.2898,1.303,1.3084,1.3104,1.2813,1.2647,1.3363,1.5049,1.5925,1.4272,1.4197,1.4777,1.5736,1.6293,1.6765,1.7157,1.7199,1.685,0.0,0.0,1.4158,1.3313,1.355,1.3756,1.3545,1.3247,1.2829,0.0,0.0,0.0,0.0,1.0316,1.0632,1.1594,1.1652,1.2113,1.31,1.4057,1.4961,1.5551,1.6336,1.7151,1.7989,1.8213,1.8527,1.8743,1.9063,1.9279,1.9279,1.9279,1.9272,1.9376,2.0403,2.153,2.2443,2.1326,2.0925,2.0925,2.0925,2.153,2.2364,2.0848,2.0309,2.0303,2.0091,1.9654,1.9188,1.9188,1.8727,1.8087,1.7815,1.7246,1.6494,1.6021,1.514,1.425,1.3979,1.3303,1.2637,1.21,1.1843,1.1677,1.1413,1.116,1.0992,1.0992,1.0958,1.088,1.0416,1.0307,1.0293,1.046,1.0818,1.0857,1.0137,1.0679,1.094,1.0571,1.064,1.0895,1.1179,1.1389,1.1578,1.1719,1.2272,1.2594,1.262,1.2958,1.3184,1.3276,1.3512,1.3742,1.3982,1.3742,1.3716,1.3821,1.3563,1.3362,1.6757,1.6374,1.5736,1.7085,1.6954,1.6782,1.8001,1.8369,1.8305,1.7828,1.7447,1.6892,0.0,0.0,0.0,1.4175,1.394,0.0,1.3766,1.3502,0.0,1.2625,0.0,1.1385,1.0537,0.9891,0.9792,1.0378,1.0909,1.1529,1.2316,1.3176,1.4026,1.4983,1.5751,1.6632,1.7681,1.8213,1.8534,1.8869,1.875,1.8632,1.8639,1.822,1.8534,1.9376,2.0403,2.1019,2.1326,2.1019,2.0925,2.0925,2.0925,2.113,2.1257,2.0568,2.0247,2.0058,1.9903,1.957,1.9296,1.9196,1.8727,1.8087,1.7994,1.7434,1.6784,1.6494,1.5658,1.4767,1.4101,1.3438,1.2877,1.241,1.2112,1.186,1.186,1.1373,1.0995,1.0995,1.0833,1.0688,1.07,1.0659,1.0657,1.0781,1.0942,1.0917,1.0378,1.0798,1.1012,1.0653,1.0585,1.0723,1.1009,1.1239,1.1528,1.1977,1.2415,1.2738,1.2948,1.3305,1.3352,1.315,1.3755,1.3992,1.3861,1.4095,1.4186,1.4082,1.3905,1.3821,1.9043,1.8387,1.7544,1.8911,1.8963,1.8864,1.9645,1.9747,1.931,1.8149,1.7199,1.6479,1.61,1.5543,1.5014,0.0,0.0,0.0,1.3716,1.3599,1.3269,0.0,1.2188,0.0,1.0737,1.0094,0.9792,0.9969,1.0393,1.1091,1.1865,1.2648,1.3516,1.4508,1.5292,1.6393,1.767,1.8182,1.844,1.8447,1.8366,1.8213,1.8003,1.7687,1.822,1.9346,1.9268,1.9945,2.0869,2.0257,2.0361,2.0925,2.0925,2.0925,2.0821,2.0622,2.0205,1.9819,1.98,1.9494,1.908,1.918,1.8727,1.8087,1.8087,1.7621,1.6951,1.6514,1.5701,1.4767,1.4021,1.3309,1.273,1.2484,1.2026,1.1697,1.1697,1.1249,1.0832,1.0914,1.0856,1.0835,1.1146,1.1147,1.1091,1.1246,1.1267,1.1137,1.0651,1.0766,1.0676,1.0283,1.0287,1.0365,1.0677,1.1035,1.1427,1.1977,1.251,1.2926,1.3238,1.3663,1.379,1.3674,1.41,1.4277,1.4261,1.4369,1.4419,1.4501,1.428,1.4197,1.9993,2.0169,1.9899,2.0025,2.027,2.0527,2.0693,2.0373,1.9588,1.8095,1.6778,1.5969,1.6144,1.5506,1.4864,1.4516,0.0,1.3922,1.3528,1.3492,1.3212,1.2579,1.2402,1.1893,1.0988,1.047,1.0105,0.9994,1.0129,1.0621,1.1503,1.2243,1.3126,1.4259,1.513,1.6327,1.7788,1.811,1.8079,1.7911,1.7998,1.7823,1.7502,1.7586,1.8157,1.8957,1.7816,1.855,2.0451,1.9233,1.9447,2.0436,2.0545,2.0758,2.0909,2.0813,2.0333,1.967,1.9612,1.9244,1.8864,1.9088,1.8735,1.8179,1.8087,1.7621,1.6908,1.6303,1.5484,1.4584,1.3894,1.3108,1.241,1.2375,1.1832,1.1233,1.1311,1.0854,1.0579,1.0781,1.0774,1.0939,1.1325,1.1426,1.1484,1.1632,1.1649,1.1449,1.0924,1.071,1.0403,0.9773,0.9866,1.0123,1.0294,1.0781,1.1276,1.1828,1.254,1.3074,1.3362,1.3894,1.4233,1.4373,1.4373,1.4558,1.4869,1.4558,1.4558,1.4869,1.4558,1.443,1.8081,1.909,1.9718,2.0281,2.0454,2.0457,2.0268,1.9361,0.0,0.0,1.6693,1.6219,1.5736,1.5427,1.4889,1.3935,1.4026,1.4052,1.3597,1.3421,1.3282,0.0,1.257,1.2029,1.1637,1.0787,1.0264,1.0399,1.0174,1.0238,1.0747,1.1483,1.2649,1.4454,1.5547,1.6472,1.7399,1.7334,1.733,1.7589,1.7001,1.6896,1.7094,1.744,1.7577,1.7655,1.7428,1.7834,1.8604,1.8737,1.8403,1.8043,1.8808,1.99,2.0853,2.0265,1.994,1.9798,1.9394,1.9052,1.8819,1.8827,1.8651,1.8381,1.8179,1.7707,1.708,1.6402,1.5633,1.4826,1.385,1.3167,1.2645,1.2175,1.1584,1.1066,1.1233,1.0643,1.0121,1.0308,1.0166,1.0284,1.0808,1.1216,1.1409,1.1484,1.1594,1.1452,1.0735,1.0818,1.0719,1.0205,1.0113,1.0172,1.0464,1.0668,1.1074,1.1669,1.2274,1.2803,1.3218,1.3658,1.3999,1.4222,1.4326,1.4523,1.4822,1.4627,1.4627,1.4662,1.4581,1.4523,1.8184,1.9175,1.9667,2.0483,2.0677,2.0543,2.0187,0.0,0.0,0.0,1.6607,1.6044,1.5724,1.5268,0.0,1.4144,1.3972,1.377,1.3296,1.3144,1.2964,1.2749,1.2424,1.214,1.1749,1.1175,1.0813,1.0571,1.0247,1.022,1.0608,1.1663,1.2828,1.4078,1.5048,1.5791,1.6464,1.6574,1.669,1.6843,1.6866,1.67,1.6393,1.6792,1.6793,1.6485,1.7094,1.7426,1.7707,1.7893,1.7707,1.7326,1.78,1.8812,1.9857,1.9521,1.9557,1.9558,1.9217,1.8885,1.8651,1.8458,1.8465,1.8481,1.8179,1.7707,1.7137,1.6203,1.5436,1.4669,1.3567,1.2823,1.2244,1.1645,1.088,1.0342,1.0301,0.9943,0.9673,0.9868,0.9922,1.0067,1.0663,1.1037,1.1335,1.1484,1.1458,1.1249,1.0779,1.0777,1.0527,0.9931,1.0013,1.0124,1.0255,1.0547,1.0965,1.1536,1.1977,1.2421,1.29,1.3382,1.3705,1.3894,1.4186,1.4373,1.4477,1.4477,1.4477,1.4373,1.4373,1.4337,1.8019,1.8982,1.95,2.0432,2.0668,2.0545,2.0061,1.9207,0.0,1.7544,1.6552,1.5824,1.5756,0.0,1.4708,0.0,1.3912,1.3503,1.295,1.2819,1.2655,0.0,1.2375,0.0,1.1738,1.155,1.1198,1.07,1.0369,1.028,1.0616,1.1845,1.2851,1.362,1.4358,1.5009,1.5567,1.5782,1.5999,1.6223,1.6607,1.6484,1.6097,1.6286,1.6116,1.5887,1.6707,1.7102,1.7044,1.7117,1.7239,1.7326,1.7326,1.7976,1.8943,1.8843,1.909,1.9257,1.8981,1.8691,1.8288,1.8094,1.8187,1.8381,1.7994,1.7613,1.7015,1.584,1.5046,1.4282,1.328,1.2419,1.1623,1.0819,1.0145,0.9589,0.9296,0.9246,0.9322,0.9468,0.9695,0.9916,1.0519,1.0812,1.1111,1.1484,1.128,1.1013,1.0893,1.0712,1.0288,0.9575,0.9916,1.0157,1.0171,1.0514,1.0921,1.1404,1.1722,1.2076,1.2529,1.3035,1.3362,1.3515,1.3894,1.414,1.4186,1.428,1.428,1.4186,1.4186,1.4104,1.5814,1.7506,1.8947,1.9703,2.0077,2.0139,1.966,0.0,1.7987,1.7435,1.6612,1.5901,1.5591,1.5371,1.4875,1.3676,0.0,1.3691,1.2624,1.2617,1.2603,1.2436,0.0,0.0,1.1932,1.1521,1.1181,1.0842,1.039,1.033,1.084,1.1579,1.2326,1.301,1.3694,1.4393,1.4977,1.4966,1.5363,1.607,1.5763,1.5926,1.6543,1.6347,1.6147,1.6197,1.6241,1.6227,1.6274,1.6649,1.7044,1.7326,1.7326,1.7976,1.8904,1.8488,1.8613,1.902,1.8629,1.8225,1.7721,1.7721,1.7908,1.7994,1.752,1.7246,1.675,1.5402,1.4501,1.3823,1.293,1.1939,1.0824,0.9817,0.9602,0.9589,0.9143,0.9022,0.9099,0.9322,0.9322,0.9473,0.9922,1.0293,1.0663,1.1111,1.1089,1.0953,1.0912,1.0613,1.032,0.9977,1.0219,1.0456,1.0685,1.0729,1.0855,1.1305,1.166,1.1977,1.2126,1.2735,1.3112,1.3218,1.361,1.3915,1.402,1.402,1.402,1.402,1.402,1.3962,1.5533,1.6744,1.7681,1.9029,1.9441,1.9409,1.9192,0.0,1.7841,1.7229,1.6398,1.568,1.5334,1.524,1.4833,1.3683,0.0,0.0,1.2959,1.2617,1.2573,1.2872,1.248,1.2169,1.2128,1.1955,1.1491,1.0654,1.0284,1.016,1.0439,1.1213,1.1963,1.2482,1.3131,1.3583,1.3898,1.4342,1.4724,1.5137,1.5679,1.5908,1.6029,1.6125,1.586,1.515,1.5261,1.5231,1.5234,1.58,1.622,1.6662,1.6965,1.7443,1.7946,1.7968,1.817,1.8356,1.7946,1.7621,1.7434,1.6958,1.677,1.677,1.6864,1.6642,1.6033,1.4889,1.3925,1.3081,1.2279,1.1131,1.0116,0.9647,0.9311,0.9038,0.8727,0.8708,0.8784,0.8784,0.8941,0.9175,0.9473,0.9846,1.0293,1.0663,1.0815,1.0826,1.0935,1.0604,1.0416,1.0438,1.0491,1.0554,1.0597,1.0894,1.1087,1.1164,1.1538,1.1824,1.1986,1.2363,1.2706,1.3007,1.3372,1.3573,1.3621,1.3868,1.3915,1.3763,1.3763,1.3668,1.4894,1.601,1.697,1.8309,1.8658,1.8663,0.0,0.0,1.7585,1.7034,1.6225,1.5501,1.5096,1.5051,1.4801,1.3976,0.0,1.3912,1.3292,1.2824,1.2624,1.2855,0.0,1.2402,1.239,1.2077,1.15,1.0461,1.0242,1.0101,1.0105,1.0813,1.1432,1.192,1.2368,1.2775,1.2939,1.3419,1.3959,1.4303,1.5246,1.57,1.5754,1.5986,1.5438,1.4529,1.4461,1.427,1.4219,1.4767,1.5312,1.5886,1.6459,1.6871,1.7333,1.7441,1.7621,1.78,1.7239,1.6958,1.6763,1.6096,1.5629,1.5445,1.5629,1.5511,1.5134,1.4126,1.307,1.2116,1.1283,1.0372,0.9661,0.9385,0.8966,0.8627,0.8479,0.8475,0.8551,0.8403,0.8713,0.8941,0.9094,0.9468,0.9922,1.0293,1.0522,1.0647,1.0863,1.0666,1.0526,1.0659,1.0664,1.0656,1.0683,1.1121,1.1399,1.1368,1.1685,1.1885,1.1966,1.2259,1.2553,1.2832,1.3104,1.3276,1.3314,1.3621,1.3668,1.3467,1.3467,1.342,1.3311,1.516,1.7091,1.7518,1.7704,1.7933,0.0,1.7828,1.7115,1.6765,1.6107,1.5457,1.4994,1.5004,1.4909,1.4403,1.4114,0.0,1.3557,1.3341,1.2915,0.0,1.2869,1.3182,1.2555,1.1661,1.0873,1.0255,1.0213,1.0196,1.0118,1.0206,1.0563,1.12,1.1676,1.1967,1.2012,1.2418,1.302,1.3899,1.4328,1.5077,1.6027,1.5761,1.5225,1.4502,1.4091,1.3613,1.3139,1.3682,1.4372,1.5147,1.5624,1.6393,1.7239,1.7066,1.716,1.7239,1.677,1.6305,1.573,1.5248,1.4771,1.4202,1.3709,1.3903,1.4112,1.3123,1.1971,1.0797,0.993,0.9735,0.946,0.8653,0.8551,0.8627,0.8479,0.8403,0.8403,0.8403,0.8551,0.8703,0.8703,0.9241,0.9695,0.9846,1.016,1.0503,1.0647,1.0666,1.0725,1.0725,1.0792,1.087,1.1052,1.1488,1.1776,1.2003,1.2247,1.2327,1.2219,1.2464,1.2642,1.2686,1.2832,1.3007,1.3218,1.3218,1.3218,1.3218,1.3218,1.3084,1.2784,1.3912,1.5269,1.6358,1.669,1.689,1.765,1.7421,1.6964,1.6552,1.5913,1.5334,1.5096,1.5004,1.4693,1.3938,1.3899,1.3861,0.0,0.0,0.0,1.3569,1.3504,1.3346,1.3075,1.2035,1.122,1.0803,1.0483,1.0171,0.9791,0.9892,1.0172,1.0635,1.1131,1.1432,1.16,1.2139,1.2648,1.3218,1.3749,1.4276,1.481,1.4675,1.4196,1.3433,1.2829,1.2394,1.2148,1.2479,1.3203,1.4179,1.472,1.5372,1.5981,1.6158,1.6213,1.6204,1.5913,1.5534,1.5248,1.4478,1.3908,1.3335,1.2657,1.2753,1.2803,1.1577,1.0835,1.0196,0.9596,0.9327,0.9062,0.8499,0.8475,0.8403,0.8025,0.8021,0.8016,0.803,0.8021,0.8165,0.8475,0.8856,0.9261,0.949,0.9903,1.0352,1.0502,1.0309,1.0337,1.0552,1.0477,1.0681,1.1185,1.1581,1.1843,1.2145,1.2323,1.2499,1.2453,1.2545,1.2699,1.2892,1.2875,1.2969,1.3221,1.3086,1.3204,1.3401,1.3584,1.3574,0.0,1.33,1.4452,1.5441,1.5802,0.0,1.6717,1.6767,1.6595,1.6262,1.5703,1.521,1.4971,1.4755,1.4489,1.3997,1.3826,1.3711,0.0,0.0,0.0,1.3839,1.3513,1.3143,1.2856,1.2137,1.1485,1.0932,1.0611,1.0258,0.9784,0.9579,0.9661,0.9964,1.0331,1.0531,1.0676,1.1256,1.1676,1.2079,1.2672,1.3267,1.3628,1.3678,1.331,1.2728,1.2145,1.1679,0.0,1.1744,1.231,1.3135,1.3804,1.4504,1.5143,1.5232,1.5378,1.5425,1.5031,1.4684,1.4364,1.3504,1.265,1.1903,1.1248,1.1273,1.1395,1.0592,1.0067,0.9672,0.9412,0.9108,0.8813,0.8408,0.825,0.8097,0.7718,0.7642,0.754,0.7555,0.7668,0.7766,0.8001,0.85,0.8934,0.895,0.9553,1.0014,1.0038,0.9961,1.0048,1.0359,1.0444,1.0611,1.1066,1.1553,1.1958,1.2226,1.2525,1.2714,1.2733,1.2781,1.2879,1.3004,1.2958,1.3041,1.3199,1.316,1.3282,1.3603,1.3695,1.3657,0.0,1.3229,1.4428,1.4753,0.0,0.0,1.5796,1.6006,0.0,1.5836,1.5525,1.5165,1.4789,1.4419,1.4232,1.4447,1.3744,0.0,0.0,1.3416,0.0,1.3258,1.3014,1.2623,1.2175,1.2069,1.1685,1.0876,1.0689,1.039,1.0066,0.9451,0.9178,0.9302,0.9406,0.9463,0.948,0.9933,1.0317,1.0548,1.1405,1.206,1.2495,1.2787,1.2612,1.2242,1.1804,1.1322,1.0937,1.1232,1.1588,1.2054,1.2823,1.3713,1.4488,1.4301,1.4536,1.4766,1.4054,1.3561,1.3233,1.2247,1.1199,1.0168,0.9691,0.9848,1.0104,0.9976,0.9647,0.9283,0.922,0.8949,0.8602,0.8154,0.7868,0.771,0.748,0.7253,0.7134,0.7202,0.7287,0.7411,0.7472,0.8107,0.8614,0.8411,0.9056,0.948,0.9491,0.9531,0.9789,1.0134,1.0466,1.0686,1.0798,1.1401,1.1956,1.2305,1.2736,1.2953,1.2956,1.3072,1.3129,1.303,1.3168,1.3195,1.3159,1.3305,1.3487,1.3669,1.3524,1.336,1.1412,0.0,1.3833,1.4088,1.445,1.491,0.0,1.5709,1.5836,0.0,0.0,1.496,1.4869,1.4419,1.4052,1.4121,1.3693,1.3354,1.3359,1.3221,0.0,1.3152,1.305,1.2837,1.2503,1.2209,1.2004,1.187,1.0945,1.0373,1.0329,0.953,0.9094,0.916,0.9034,0.9097,0.9412,0.9881,1.0184,1.0243,1.0646,1.1125,1.1765,1.1666,1.1611,1.1483,1.0873,1.0399,0.9956,1.0183,1.0647,1.1133,1.1805,1.2471,1.302,1.3129,1.3146,1.3038,1.2888,1.2444,1.1734,1.0753,0.9966,0.9343,0.8877,0.9211,0.9741,0.9499,0.9226,0.894,0.8691,0.8487,0.8205,0.7565,0.7484,0.748,0.7096,0.6795,0.6633,0.6893,0.6738,0.6742,0.7154,0.7699,0.8024,0.8184,0.8582,0.8913,0.899,0.9029,0.9265,0.9746,1.014,1.0441,1.0699,1.1467,1.2071,1.2259,1.256,1.2834,1.3176,1.3107,1.3169,1.3364,1.3203,1.3076,1.2885,1.3206,1.3471,1.365,1.3776,1.3852,1.1107,1.2258,1.3348,1.3459,1.3982,1.4529,1.4719,0.0,0.0,0.0,0.0,0.0,1.4846,1.4419,1.4104,1.415,1.381,0.0,0.0,0.0,1.333,1.3114,1.3122,1.2956,1.2438,1.2139,1.1957,1.1857,1.1129,1.0669,1.0601,0.9714,0.9294,0.9431,0.9084,0.8965,0.9156,0.9412,0.9536,0.9542,0.9862,1.0329,1.0801,1.0767,1.0785,1.0827,1.0305,0.996,0.9647,0.9653,0.9842,1.0279,1.0686,1.1289,1.1849,1.1971,1.202,1.1941,1.1839,1.1252,1.0342,0.9518,0.8822,0.8355,0.819,0.822,0.8476,0.8732,0.8607,0.8433,0.8408,0.8231,0.797,0.7537,0.7334,0.7173,0.6865,0.6409,0.6157,0.6467,0.6366,0.6464,0.6838,0.7306,0.7694,0.7776,0.8264,0.8533,0.8575,0.8748,0.9048,0.9551,1.0021,1.0454,1.0799,1.158,1.2079,1.2096,1.2428,1.2805,1.318,1.3224,1.3338,1.3511,1.3203,1.3058,1.3133,1.3293,1.3456,1.3708,1.3725,1.3761,1.0839,1.1885,1.2839,1.2872,1.3518,1.4118,0.0,0.0,0.0,0.0,0.0,0.0,0.0,1.443,0.0,0.0,0.0,1.3562,1.3501,1.3498,1.3416,1.3042,1.3109,1.2893,1.2221,1.2019,1.1809,1.1657,1.1341,1.1034,1.0831,0.9917,0.9516,0.9727,0.9223,0.8945,0.8837,0.8887,0.8874,0.8813,0.9262,0.9558,0.9763,0.9966,1.0144,1.0162,0.9871,0.9652,0.9442,0.9275,0.9256,0.9429,0.9716,1.0178,1.0755,1.0778,1.0972,1.1096,1.0731,1.0037,0.905,0.8513,0.7871,0.746,0.7393,0.7175,0.7025,0.7654,0.7912,0.7926,0.8074,0.7919,0.7683,0.7654,0.7257,0.6865,0.6641,0.6173,0.5906,0.5937,0.6076,0.6222,0.647,0.6923,0.7376,0.7431,0.7852,0.8255,0.8265,0.8562,0.8965,0.9378,1.0102,1.0635,1.0899,1.1647,1.2005,1.1885,1.2476,1.2886,1.3071,1.3411,1.3534,1.3483,1.3247,1.3214,1.339,1.3329,1.3398,1.3649,1.3519,1.339,0.996,1.1035,1.2101,1.2284,1.2883,1.3451,1.3482,0.0,0.0,0.0,0.0,0.0,0.0,1.4302,1.4057,0.0,0.0,1.344,1.3415,1.3008,1.2683,1.2654,1.2624,1.2615,1.2548,1.2429,1.2347,1.2289,1.1369,1.0886,1.0972,1.0071,0.9542,0.9478,0.908,0.8974,0.9063,0.9012,0.882,0.8571,0.9003,0.9203,0.9326,0.9432,0.9537,0.9687,0.9326,0.9057,0.8812,0.8839,0.8691,0.8625,0.903,0.9276,0.9572,0.9721,0.9818,0.9777,0.9218,0.8853,0.8589,0.7616,0.7248,0.7112,0.6624,0.6497,0.6392,0.646,0.6816,0.7244,0.7031,0.7274,0.7352,0.6906,0.6868,0.6788,0.6412,0.5948,0.5705,0.5912,0.5679,0.5676,0.6003,0.6291,0.6649,0.7166,0.7329,0.7559,0.8014,0.8245,0.87,0.9477,1.0096,1.0713,1.1236,1.1766,1.2116,1.2126,1.2573,1.2941,1.3259,1.3736,1.3809,1.333,1.3433,1.3347,1.3103,1.3042,1.3042,1.3103,1.3103,1.3103,0.9851,1.0334,1.0793,1.1538,1.2644,1.353,1.3303,0.0,0.0,0.0,0.0,0.0,0.0,0.0,1.4172,1.4057,1.3868,1.3668,1.3409,1.2827,1.2396,1.249,1.2231,1.2062,1.2177,1.192,1.1883,1.201,1.137,1.0937,1.0842,1.0113,0.966,0.9556,0.9071,0.8811,0.8914,0.8682,0.8572,0.8517,0.8482,0.8599,0.8726,0.8736,0.8822,0.8983,0.8865,0.8751,0.8541,0.8513,0.8353,0.8193,0.8276,0.8388,0.8484,0.8737,0.8836,0.8841,0.8233,0.7884,0.7624,0.7021,0.6624,0.6282,0.5978,0.569,0.5499,0.5373,0.5869,0.6478,0.6498,0.6651,0.672,0.6655,0.6637,0.6637,0.6177,0.5789,0.5556,0.5473,0.5348,0.5439,0.5813,0.6112,0.6466,0.6956,0.7248,0.7471,0.7671,0.8187,0.8665,0.9041,0.9753,1.0421,1.1004,1.1516,1.2118,1.2758,1.3111,1.3485,1.3754,1.3975,1.3909,1.355,1.3607,1.3526,1.33,1.3123,1.3151,1.3322,1.3079,1.305,0.9616,0.9761,0.9815,1.0708,0.0,1.3128,1.3013,0.0,0.0,0.0,0.0,0.0,0.0,1.4411,0.0,1.3722,1.3644,1.3542,1.3207,1.2614,1.2258,1.2323,1.193,1.1704,1.1767,1.1518,1.1397,1.1513,1.1149,1.0797,1.0646,1.0038,0.9672,0.9561,0.9009,0.8646,0.8579,0.8247,0.8204,0.8431,0.8104,0.8022,0.8168,0.815,0.8206,0.8258,0.8527,0.8481,0.8362,0.8246,0.8137,0.7894,0.7613,0.7491,0.7525,0.7769,0.7939,0.797,0.7547,0.7204,0.6865,0.6528,0.6036,0.5601,0.5392,0.5111,0.4766,0.4653,0.4996,0.5382,0.5787,0.5943,0.6089,0.6328,0.6405,0.6328,0.5941,0.5709,0.5401,0.5082,0.5085,0.5212,0.5415,0.5765,0.6162,0.6566,0.6993,0.7246,0.7376,0.801,0.8515,0.863,0.9365,1.0143,1.0812,1.1484,1.2249,1.3126,1.3549,1.3905,1.4188,1.4271,1.4203,1.398,1.3913,1.3806,1.3643,1.3372,1.334,1.3506,1.3153,1.305,0.8627,0.9277,0.987,0.9896,1.0643,0.0,1.2436,1.3053,0.0,1.4435,0.0,0.0,0.0,1.4069,1.3532,1.3032,1.2776,1.2562,1.2465,1.2218,1.2014,1.2014,1.1984,1.1897,1.1709,1.1753,1.1567,1.1109,1.0624,1.0331,1.0319,0.9684,0.9285,0.9239,0.8818,0.8467,0.8128,0.7694,0.7709,0.8105,0.7985,0.7858,0.7761,0.7827,0.7855,0.7893,0.8245,0.8277,0.8152,0.8138,0.791,0.7459,0.7077,0.6739,0.6526,0.7026,0.7199,0.7127,0.6881,0.6715,0.6632,0.5972,0.563,0.5347,0.5067,0.4625,0.4357,0.4413,0.4077,0.3849,0.4633,0.5246,0.5625,0.5634,0.5789,0.5938,0.5941,0.5631,0.524,0.5004,0.4851,0.4774,0.4766,0.4985,0.5364,0.5878,0.6207,0.6531,0.6896,0.7446,0.8035,0.8362,0.9155,0.9992,1.1037,1.1781,1.2432,1.291,1.3472,1.4,1.436,1.4684,1.4701,1.4368,1.4506,1.4334,1.3784,1.3623,1.3459,1.3332,1.3091,1.2928,0.8332,0.8592,0.8829,0.9319,0.9564,0.0,0.0,1.2606,1.325,1.3757,1.3992,0.0,0.0,0.0,1.3319,1.292,1.2909,1.2879,1.2774,1.2339,1.1984,1.1984,1.149,1.1155,1.1236,1.1045,1.0927,1.0892,1.0363,1.0023,0.9996,0.9329,0.8902,0.8765,0.8364,0.8078,0.7864,0.7439,0.7274,0.7421,0.721,0.7191,0.7409,0.7227,0.7313,0.7598,0.7753,0.7948,0.8078,0.7982,0.7761,0.7411,0.6549,0.6294,0.6344,0.6341,0.6474,0.6718,0.6481,0.6238,0.5912,0.5671,0.5289,0.4898,0.4696,0.4288,0.3963,0.3847,0.3526,0.345,0.4309,0.4618,0.4776,0.5162,0.5395,0.5553,0.5553,0.5318,0.5004,0.4693,0.454,0.454,0.454,0.4815,0.5166,0.5475,0.5812,0.6177,0.6467,0.7083,0.7522,0.7626,0.8514,0.9383,1.0276,1.1111,1.1855,1.2526,1.3425,1.408,1.4371,1.472,1.4807,1.4741,1.4662,1.459,1.4453,1.4234,1.4063,1.3988,1.3589,1.338,0.7913,0.799,0.8034,0.0,0.0,0.0,1.0799,1.1834,1.2621,1.3216,1.3564,1.3741,1.361,0.0,1.3214,1.2777,1.2839,1.2913,1.2782,1.2124,1.1665,1.1665,1.0845,1.0416,1.0646,1.0358,1.0255,1.0505,0.9961,0.9617,0.9608,0.8974,0.8522,0.8301,0.7963,0.7646,0.7389,0.7025,0.6771,0.6665,0.6428,0.6471,0.6845,0.6724,0.6945,0.7344,0.7553,0.7789,0.8074,0.792,0.7622,0.7099,0.6328,0.6022,0.6025,0.5867,0.6002,0.6245,0.601,0.5772,0.5533,0.5294,0.492,0.4467,0.4307,0.3839,0.3372,0.3292,0.2982,0.2906,0.3682,0.3919,0.4155,0.4618,0.4851,0.5007,0.5087,0.4929,0.4693,0.4387,0.4229,0.4229,0.4229,0.446,0.4696,0.5087,0.5395,0.5709,0.6025,0.6486,0.6904,0.7167,0.8049,0.8851,0.9453,1.0288,1.1111,1.1781,1.2886,1.3768,1.4217,1.4577,1.4792,1.4641,1.4641,1.4641,1.4641,1.4369,1.4263,1.4316,1.3835,1.3621,0.7179,0.7552,0.7704,0.0,0.0,0.0,0.9563,1.0682,1.1848,1.3062,1.3511,1.3569,1.3262,1.3205,1.3053,1.2579,1.2472,1.2401,1.2294,1.1489,1.0919,1.0919,1.0196,0.9763,0.996,0.9675,0.9638,0.9981,0.9377,0.9055,0.9203,0.8612,0.8184,0.7889,0.7624,0.723,0.6735,0.6427,0.6225,0.6005,0.5749,0.5795,0.6136,0.6522,0.6757,0.6955,0.7678,0.7972,0.8006,0.801,0.7472,0.6556,0.6335,0.6025,0.5637,0.5559,0.5712,0.5864,0.5398,0.5401,0.5482,0.4857,0.4389,0.4079,0.3843,0.3215,0.2511,0.2746,0.2357,0.2043,0.2669,0.3294,0.3841,0.4079,0.4233,0.4462,0.4621,0.4543,0.4309,0.4157,0.3921,0.3763,0.3763,0.3763,0.3997,0.4621,0.4851,0.5162,0.5559,0.5786,0.6244,0.7084,0.7936,0.8475,0.8703,0.9614,1.0368,1.0738,1.1706,1.2746,1.3725,1.4289,1.4425,1.4129,1.4418,1.4425,1.4129,1.3878,1.3924,1.4109,1.3886,1.3606,0.6698,0.6881,0.0,0.7253,0.0,0.0,0.0,1.0227,0.0,0.0,1.3245,1.3301,1.3283,1.3281,1.3171,1.2901,1.296,1.2641,1.1603,1.1533,1.1349,1.0707,1.0146,0.9784,0.9583,0.9328,0.9197,0.9357,0.8882,0.8619,0.87,0.8299,0.7982,0.7679,0.7328,0.7092,0.6991,0.6432,0.6125,0.6,0.5507,0.5486,0.5948,0.6096,0.6371,0.6749,0.7073,0.744,0.7796,0.7429,0.6844,0.6247,0.5832,0.5569,0.543,0.5217,0.5323,0.5476,0.5168,0.5093,0.5093,0.4621,0.4311,0.4001,0.3684,0.3057,0.2511,0.2589,0.2277,0.1965,0.2121,0.2433,0.2823,0.3526,0.3891,0.4081,0.4249,0.4365,0.4395,0.4171,0.4079,0.3921,0.3604,0.3841,0.3999,0.4075,0.4384,0.4693,0.5162,0.5396,0.5752,0.6234,0.6681,0.7191,0.7774,0.8623,0.9458,1.0143,1.0962,1.2003,1.3346,1.3783,1.4072,1.4129,1.392,1.3848,1.3905,1.3663,1.3697,1.3848,1.3693,1.3489,0.6045,0.6134,0.0,0.6666,0.7049,0.7661,0.9041,0.0,0.0,0.0,1.2867,1.2948,1.3154,1.3187,1.3259,1.331,1.2974,1.2462,1.1764,1.1342,1.0962,1.0452,0.9744,0.934,0.9425,0.9004,0.89,0.9356,0.884,0.8489,0.8496,0.8185,0.7827,0.7375,0.6937,0.6706,0.669,0.6092,0.5727,0.5618,0.5234,0.5064,0.5227,0.5564,0.601,0.6661,0.6988,0.7318,0.7655,0.7077,0.66,0.6176,0.5832,0.5574,0.5436,0.5144,0.5205,0.5322,0.5018,0.4974,0.4935,0.4465,0.3997,0.3604,0.3214,0.2668,0.2199,0.2199,0.1963,0.165,0.165,0.174,0.2064,0.2829,0.3171,0.336,0.3584,0.3859,0.3964,0.3844,0.3838,0.3742,0.3459,0.353,0.3686,0.3763,0.4151,0.4462,0.4693,0.5021,0.529,0.5472,0.5927,0.6435,0.7135,0.7899,0.8656,0.9404,1.0148,1.1052,1.2029,1.2912,1.3339,1.3397,1.3266,1.3119,1.3098,1.3025,1.3048,1.3158,1.3214,1.3155,0.5325,0.0,0.0,0.6055,0.6532,0.0,0.9139,1.0204,1.1092,1.2053,1.245,1.2701,1.2944,1.3023,1.3179,1.3596,1.2635,1.1923,1.2248,1.1028,1.0118,1.014,0.9153,0.8693,0.9336,0.8718,0.8632,0.9523,0.8932,0.8494,0.8448,0.817,0.769,0.7021,0.655,0.6236,0.6126,0.5545,0.5191,0.5069,0.4901,0.457,0.4196,0.5015,0.5739,0.6526,0.7173,0.7442,0.7346,0.686,0.6541,0.6335,0.6069,0.5789,0.5431,0.5225,0.5307,0.5343,0.4905,0.4825,0.4836,0.4229,0.3604,0.2978,0.2595,0.2124,0.173,0.1655,0.1419,0.1182,0.1179,0.1202,0.1299,0.1899,0.2207,0.2462,0.2756,0.3091,0.3339,0.3456,0.3544,0.3511,0.3329,0.3074,0.3074,0.3698,0.4086,0.4316,0.4307,0.4616,0.4886,0.4785,0.5439,0.6101,0.6615,0.7343,0.8079,0.8612,0.9426,0.9973,1.0357,1.1664,1.2384,1.2191,1.2338,1.2278,1.1929,1.205,1.2131,1.2161,1.2552,1.2557,0.4751,0.5005,0.0,0.0,0.6704,0.8018,0.8872,0.964,1.0491,1.159,1.2272,1.275,1.3033,1.2825,1.2673,1.2743,1.227,1.1629,1.089,1.0877,1.0613,0.9746,0.929,0.8873,0.8515,0.8168,0.8025,0.8145,0.8088,0.8013,0.7959,0.7924,0.7704,0.7167,0.6598,0.6241,0.618,0.5501,0.5093,0.4956,0.4408,0.4076,0.3913,0.473,0.5505,0.6278,0.6794,0.6902,0.661,0.6402,0.6089,0.573,0.5378,0.5218,0.509,0.4905,0.4815,0.4851,0.4649,0.4473,0.428,0.3816,0.3294,0.2833,0.2567,0.2151,0.1657,0.1447,0.0808,0.0241,0.0237,0.0243,0.0249,0.0406,0.1227,0.1902,0.2055,0.2786,0.3455,0.3593,0.4018,0.4157,0.3185,0.3011,0.3088,0.3311,0.3547,0.3681,0.369,0.3917,0.4144,0.4431,0.4811,0.5355,0.6101,0.6722,0.7424,0.8157,0.8973,0.9612,0.9924,1.0673,1.1224,1.152,1.1316,1.1205,1.126,1.1059,1.1068,1.1508,1.1697,1.1873,0.0,0.0,0.0,0.492,0.0,0.7442,0.808,0.8695,0.9403,1.0352,1.1481,1.2388,1.2578,1.2454,1.2154,1.1708,1.1507,1.1214,1.0586,1.0677,1.0548,0.9827,0.9422,0.9067,0.8752,0.829,0.8019,0.8111,0.7932,0.7731,0.7555,0.7601,0.7389,0.6909,0.6325,0.5969,0.5818,0.5251,0.4743,0.4351,0.41,0.389,0.3667,0.4531,0.5266,0.5959,0.625,0.6339,0.6152,0.5888,0.562,0.5359,0.5042,0.4837,0.4691,0.4613,0.4496,0.4454,0.4285,0.4036,0.3776,0.3279,0.2824,0.2446,0.2181,0.1533,0.0803,0.0658,0.0165,-0.0413,-0.0652,-0.0667,-0.0682,-0.0671,0.0252,0.1179,0.1351,0.1936,0.2619,0.32,0.3905,0.4151,0.3094,0.2968,0.2922,0.3115,0.3339,0.3462,0.3536,0.3763,0.4059,0.4241,0.4717,0.5205,0.5878,0.6544,0.7078,0.7517,0.8236,0.8791,0.8928,0.9456,1.0053,1.0744,1.0473,1.0319,1.0225,1.0099,1.0184,1.0408,1.0886,1.1263,0.0,0.0,0.367,0.4285,0.5369,0.0,0.7193,0.7853,0.8486,0.9158,1.0504,1.158,1.1597,1.1621,1.1356,1.049,1.0408,1.0482,1.043,1.0261,1.0072,0.9893,0.9338,0.9027,0.9193,0.8466,0.8099,0.838,0.7986,0.7582,0.7233,0.7213,0.7001,0.6547,0.5925,0.5476,0.5268,0.4855,0.4285,0.3661,0.3739,0.3653,0.3436,0.417,0.4843,0.5449,0.5672,0.5765,0.5756,0.5491,0.5226,0.502,0.4761,0.4572,0.4261,0.4261,0.418,0.4059,0.3849,0.3534,0.3215,0.2838,0.2376,0.1838,0.1554,0.0739,-0.0165,-0.0252,-0.0593,-0.1015,-0.1349,-0.146,-0.1397,-0.1466,-0.0684,0.0257,0.0696,0.1037,0.147,0.241,0.3408,0.3855,0.3053,0.2816,0.2748,0.2934,0.3134,0.3322,0.3401,0.3773,0.4046,0.4194,0.4766,0.5274,0.5725,0.6445,0.6887,0.6889,0.7584,0.7974,0.8058,0.8462,0.907,0.9921,0.9759,0.9497,0.9211,0.9377,0.9388,0.9394,1.0103,1.0618,0.0,0.0,0.3603,0.0,0.4777,0.5972,0.0,0.0,0.8803,0.9149,0.9776,1.0126,0.9672,0.9691,0.9566,0.8975,0.8839,0.8941,0.9281,0.9192,0.9169,0.9373,0.8611,0.8263,0.8728,0.8036,0.7612,0.7643,0.7747,0.7543,0.699,0.6843,0.6621,0.6257,0.5543,0.5061,0.4811,0.4177,0.358,0.3079,0.2808,0.2832,0.3055,0.3389,0.3947,0.4756,0.5274,0.5342,0.5223,0.5156,0.4957,0.4625,0.4431,0.4167,0.3846,0.3774,0.3632,0.3447,0.3227,0.2999,0.2755,0.2572,0.1885,0.1004,0.077,0.034,-0.0253,-0.1034,-0.1472,-0.1723,-0.1775,-0.1821,-0.1776,-0.1818,-0.1488,-0.0801,0.0357,0.0694,0.0855,0.1514,0.2423,0.3053,0.2964,0.2596,0.2407,0.2843,0.2662,0.2657,0.3167,0.3416,0.3756,0.4288,0.4814,0.5274,0.565,0.6124,0.6542,0.6952,0.7517,0.7976,0.8275,0.8695,0.9018,0.9243,0.9242,0.9141,0.8795,0.8737,0.8888,0.912,0.9521,1.0104,0.3775,0.3508,0.3079,0.0,0.3316,0.4411,0.5043,0.5953,0.6828,0.7394,0.7836,0.8358,0.9209,0.9327,0.9208,0.8971,0.8918,0.8926,0.9028,0.9001,0.892,0.8861,0.8615,0.8454,0.8469,0.8225,0.7931,0.7627,0.7491,0.716,0.6657,0.6453,0.6206,0.5881,0.5367,0.4833,0.4243,0.3856,0.3409,0.2927,0.2527,0.2479,0.2713,0.2966,0.3484,0.4281,0.4525,0.4692,0.4628,0.4558,0.4333,0.412,0.3983,0.3666,0.3364,0.3291,0.312,0.2895,0.2734,0.254,0.233,0.2223,0.1335,0.0338,0.0173,-0.0259,-0.0947,-0.132,-0.1593,-0.1854,-0.1836,-0.1946,-0.1968,-0.1943,-0.1779,-0.1436,-0.0718,-0.0531,-0.0264,0.0447,0.0988,0.1437,0.1974,0.1885,0.1885,0.2424,0.2511,0.2587,0.3017,0.3342,0.3759,0.4307,0.4804,0.5231,0.5768,0.6242,0.65,0.6603,0.7019,0.7381,0.7674,0.8319,0.8677,0.8648,0.8822,0.8737,0.8462,0.8245,0.8266,0.858,0.8998,0.9658,0.0,0.0,0.2724,0.1826,0.1973,0.2607,0.0,0.4355,0.5046,0.575,0.5996,0.6575,0.8168,0.8646,0.879,0.8762,0.8744,0.8707,0.8594,0.8518,0.8457,0.8331,0.8273,0.8189,0.8129,0.8086,0.7931,0.7548,0.7268,0.6906,0.6413,0.6051,0.5708,0.5413,0.4894,0.4316,0.3673,0.3265,0.2891,0.2505,0.2093,0.1958,0.2097,0.2395,0.2857,0.342,0.3743,0.3951,0.4102,0.3926,0.3778,0.3642,0.3453,0.3199,0.2874,0.28,0.2624,0.2381,0.2181,0.1883,0.1658,0.1521,0.0682,-0.0343,-0.0524,-0.1052,-0.1582,-0.1608,-0.1794,-0.1974,-0.2063,-0.2154,-0.2243,-0.2154,-0.1974,-0.1705,-0.1436,-0.1437,-0.1168,-0.0449,-0.018,0.0269,0.1256,0.1436,0.152,0.1946,0.2233,0.2504,0.2773,0.3183,0.3682,0.4229,0.4774,0.5318,0.5786,0.6254,0.6428,0.6255,0.6591,0.6855,0.7086,0.7806,0.8201,0.831,0.8524,0.8456,0.8238,0.7961,0.7982,0.8236,0.8753,0.9402,0.0,0.3447,0.0,0.2298,0.1206,0.0,0.0,0.395,0.4549,0.4984,0.487,0.4893,0.5506,0.6744,0.766,0.7595,0.7534,0.7474,0.7395,0.7218,0.7282,0.7774,0.6951,0.6688,0.7541,0.7183,0.6935,0.7017,0.7081,0.6906,0.6413,0.5599,0.5071,0.4946,0.3871,0.3198,0.2974,0.2136,0.1642,0.1493,0.1272,0.1046,0.0923,0.1357,0.1658,0.1816,0.2818,0.3357,0.3504,0.3391,0.3358,0.3301,0.295,0.2659,0.242,0.2348,0.2264,0.2028,0.1139,0.0753,0.0433,0.0087,-0.044,-0.1163,-0.1612,-0.1972,-0.2151,-0.2154,-0.2334,-0.2513,-0.2778,-0.2601,-0.2424,-0.2784,-0.2154,-0.1436,-0.1436,-0.1436,-0.1346,-0.1346,-0.0629,0.0269,0.1256,0.1436,0.1416,0.1361,0.1769,0.2168,0.2528,0.3104,0.3684,0.4079,0.4854,0.5398,0.5559,0.6025,0.6284,0.6115,0.6233,0.6433,0.6692,0.7333,0.7845,0.8305,0.8524,0.8456,0.8112,0.8154,0.8172,0.8236,0.8753,0.928,0.0,0.0,0.0,0.1718,0.1022,0.0684,0.1436,0.2057,0.2466,0.2433,0.3309,0.4089,0.4055,0.5175,0.6131,0.6144,0.6104,0.6037,0.601,0.5806,0.5826,0.6269,0.6171,0.6288,0.6834,0.6955,0.692,0.6766,0.6702,0.651,0.6166,0.5522,0.5012,0.4726,0.4046,0.3454,0.2884,0.1541,0.066,0.036,0.0382,0.0232,-0.0062,0.0369,0.0636,0.0806,0.1344,0.2082,0.276,0.2633,0.2619,0.2663,0.2514,0.2048,0.1398,0.1341,0.1123,0.0735,0.0337,0.0086,-0.0349,-0.1149,-0.1517,-0.1705,-0.2064,-0.2334,-0.2424,-0.2424,-0.2602,-0.278,-0.3047,-0.2871,-0.2784,-0.2873,-0.305,-0.3136,-0.2512,-0.2334,-0.2334,-0.2334,-0.2065,-0.1526,-0.0538,-0.0179,0.0354,0.1187,0.1432,0.1752,0.2365,0.2707,0.3136,0.3841,0.4387,0.4932,0.5559,0.5867,0.5974,0.5895,0.6093,0.6231,0.6292,0.6987,0.7637,0.818,0.8456,0.8596,0.8591,0.8225,0.8177,0.8376,0.8436,0.8759,0.311,0.0,0.0,0.0,0.0584,0.0333,-0.0024,0.0322,0.0696,0.0589,0.1683,0.2629,0.2513,0.3407,0.4397,0.5119,0.521,0.5211,0.5236,0.5023,0.4979,0.5262,0.5492,0.5738,0.6002,0.65,0.6687,0.6411,0.6447,0.632,0.6032,0.5404,0.4711,0.398,0.3629,0.3114,0.2506,0.0921,-0.005,-0.0454,-0.0548,-0.082,-0.1293,-0.087,-0.0577,-0.0403,-0.0134,0.0805,0.2085,0.2009,0.2136,0.2264,0.2176,0.1546,0.0717,0.0566,0.0164,-0.0334,-0.0603,-0.0874,-0.1234,-0.1966,-0.2154,-0.2154,-0.2512,-0.2602,-0.2782,-0.2872,-0.2959,-0.3232,-0.3525,-0.3605,-0.3499,-0.3409,-0.3853,-0.4121,-0.3497,-0.3142,-0.2875,-0.2875,-0.2875,-0.2694,-0.1974,-0.1256,-0.0354,0.0678,0.1095,0.1416,0.1775,0.2139,0.2666,0.3372,0.3995,0.454,0.5246,0.5588,0.5764,0.56,0.583,0.5898,0.5958,0.6593,0.727,0.7803,0.8205,0.8493,0.869,0.8414,0.8275,0.8329,0.8318,0.8403,0.0,0.0,0.0,0.0,-0.0112,-0.0328,-0.1282,-0.104,-0.0575,-0.0414,0.0018,0.0461,0.0784,0.1386,0.248,0.4462,0.4871,0.4959,0.5021,0.4871,0.4768,0.4832,0.4854,0.4916,0.5073,0.574,0.6118,0.601,0.635,0.6412,0.6007,0.5175,0.4102,0.2769,0.2431,0.2095,0.1701,0.0291,-0.0655,-0.1061,-0.1513,-0.209,-0.2716,-0.2283,-0.2087,-0.1878,-0.1542,-0.0336,0.1281,0.1457,0.1782,0.2122,0.1953,0.125,0.0326,-0.0,-0.0502,-0.1129,-0.1739,-0.2117,-0.2334,-0.2243,-0.2334,-0.2602,-0.2868,-0.3047,-0.3317,-0.3497,-0.3587,-0.3785,-0.4322,-0.4643,-0.475,-0.4389,-0.43,-0.43,-0.43,-0.3587,-0.2963,-0.2963,-0.2963,-0.2964,-0.2875,-0.1705,-0.0619,-0.0085,0.0758,0.116,0.0869,0.1569,0.2275,0.2746,0.3524,0.4224,0.4618,0.5275,0.5513,0.5228,0.5454,0.5583,0.5617,0.6079,0.6671,0.7186,0.7628,0.7954,0.8202,0.8568,0.8499,0.7892,0.832,0.826,0.2511,0.0,0.0,0.0,0.0,0.0,-0.104,-0.1153,-0.1253,-0.202,-0.1308,-0.0555,-0.0606,-0.0109,0.0681,0.1823,0.2836,0.3461,0.3378,0.3316,0.3375,0.3641,0.371,0.4051,0.4813,0.5196,0.5516,0.5757,0.5876,0.5931,0.5856,0.4993,0.4039,0.3075,0.2667,0.2136,0.1477,-0.0436,-0.1767,-0.2532,-0.2356,-0.2514,-0.2895,-0.2793,-0.2755,-0.2686,-0.2686,-0.2241,-0.1525,-0.057,0.0,0.0366,0.0459,0.0079,-0.0652,-0.1242,-0.1527,-0.1829,-0.2035,-0.2144,-0.2244,-0.2424,-0.2602,-0.2868,-0.3048,-0.3406,-0.3678,-0.3767,-0.3857,-0.397,-0.4717,-0.5113,-0.5458,-0.5374,-0.5285,-0.5104,-0.4478,-0.4659,-0.475,-0.4034,-0.3944,-0.3676,-0.3053,-0.2603,-0.1769,-0.0254,0.0167,0.0409,0.0631,0.1178,0.1649,0.196,0.2586,0.3191,0.3821,0.447,0.4811,0.4675,0.5117,0.54,0.5399,0.5898,0.6472,0.7144,0.732,0.7592,0.7783,0.7968,0.8083,0.8012,0.7832,0.762,0.0,0.0,0.0,0.0,0.0,0.0,-0.1836,-0.1964,-0.2003,-0.3098,-0.2609,-0.1996,-0.203,-0.1289,-0.0497,0.0055,0.1254,0.2183,0.2414,0.2568,0.2716,0.2889,0.3142,0.3646,0.4501,0.4888,0.5299,0.5786,0.5786,0.5671,0.5439,0.4577,0.3818,0.3229,0.2745,0.2011,0.1029,-0.0873,-0.2224,-0.3039,-0.3025,-0.3226,-0.3628,-0.3737,-0.3816,-0.382,-0.3891,-0.3744,-0.342,-0.2631,-0.1996,-0.1412,-0.1005,-0.1202,-0.1738,-0.203,-0.2161,-0.2294,-0.2411,-0.2511,-0.2691,-0.2871,-0.305,-0.3227,-0.3408,-0.3789,-0.4178,-0.427,-0.4505,-0.4849,-0.5351,-0.576,-0.6028,-0.6109,-0.5997,-0.573,-0.5015,-0.5794,-0.634,-0.5138,-0.4659,-0.4123,-0.3053,-0.2782,-0.2122,-0.0763,-0.0249,0.0081,0.0315,0.055,0.0864,0.1177,0.1709,0.2303,0.3179,0.3852,0.4262,0.4343,0.4857,0.5186,0.5205,0.5696,0.6231,0.6791,0.6934,0.7075,0.7219,0.7704,0.7816,0.7619,0.7214,0.6827,0.0,0.0,0.0,0.0,0.1048,0.0,-0.2867,-0.2909,-0.2669,-0.3732,-0.3744,-0.3506,-0.3297,-0.2231,-0.1281,-0.0991,0.0009,0.1044,0.1866,0.2287,0.2501,0.2481,0.2933,0.351,0.4183,0.4769,0.5342,0.5919,0.6001,0.5687,0.4934,0.424,0.3681,0.3302,0.2784,0.1886,0.0492,-0.1067,-0.222,-0.2981,-0.3516,-0.4039,-0.4549,-0.48,-0.4957,-0.5089,-0.5089,-0.4965,-0.4675,-0.4484,-0.3927,-0.3111,-0.2493,-0.2428,-0.2783,-0.2587,-0.2556,-0.2693,-0.2868,-0.3136,-0.3317,-0.3497,-0.3683,-0.369,-0.387,-0.429,-0.4635,-0.4822,-0.5419,-0.6024,-0.6113,-0.6269,-0.6584,-0.6719,-0.6548,-0.618,-0.5933,-0.6923,-0.7501,-0.6111,-0.5297,-0.4482,-0.3232,-0.2689,-0.2211,-0.1536,-0.075,-0.0163,-0.0079,-0.0079,0.0079,0.0471,0.0921,0.1585,0.2562,0.3313,0.3844,0.4042,0.4575,0.4877,0.5044,0.5395,0.5843,0.6305,0.6418,0.6505,0.6612,0.7556,0.7602,0.6902,0.6514,0.5972,0.0,0.0,0.2837,0.1975,0.1362,0.0,-0.1617,-0.2126,-0.2568,-0.4001,-0.4124,-0.3925,-0.3713,-0.3031,-0.2213,-0.1361,-0.0967,-0.0303,0.103,0.1642,0.205,0.2306,0.2676,0.3168,0.3834,0.4632,0.528,0.5721,0.645,0.6279,0.497,0.4847,0.451,0.3851,0.306,0.1929,0.0447,-0.1454,-0.2672,-0.3288,-0.365,-0.4128,-0.4668,-0.4877,-0.5246,-0.5717,-0.5717,-0.5728,-0.5754,-0.5417,-0.4605,-0.3569,-0.3171,-0.3117,-0.3286,-0.3102,-0.3169,-0.3408,-0.3408,-0.3497,-0.3497,-0.3587,-0.3899,-0.4318,-0.441,-0.4752,-0.5204,-0.5301,-0.5797,-0.63,-0.6186,-0.6741,-0.7289,-0.696,-0.6866,-0.692,-0.6806,-0.6898,-0.6878,-0.674,-0.6088,-0.5196,-0.4212,-0.3941,-0.3575,-0.2752,-0.1699,-0.09,-0.0567,-0.0477,-0.0393,-0.0236,0.0461,0.1051,0.1397,0.2424,0.312,0.3394,0.3936,0.4454,0.4839,0.4984,0.5301,0.5892,0.6023,0.6126,0.6129,0.682,0.6869,0.6333,0.6015,0.5622,0.4176,0.3463,0.2773,0.1987,0.1268,0.0,0.0,-0.1768,-0.2545,-0.3579,-0.4078,-0.4234,-0.3985,-0.3638,-0.322,-0.2688,-0.1804,-0.0792,0.0383,0.1126,0.1871,0.2741,0.3029,0.3422,0.4126,0.486,0.5593,0.629,0.6782,0.6635,0.5693,0.5063,0.4616,0.4366,0.2811,0.1392,0.0134,-0.1744,-0.2973,-0.3477,-0.3842,-0.4508,-0.5457,-0.5457,-0.5901,-0.6678,-0.6604,-0.658,-0.659,-0.6287,-0.5797,-0.5023,-0.4315,-0.3906,-0.3792,-0.3658,-0.3553,-0.3587,-0.3678,-0.3767,-0.3767,-0.3944,-0.4182,-0.4436,-0.462,-0.5094,-0.5706,-0.6052,-0.636,-0.6651,-0.6849,-0.7276,-0.7604,-0.7416,-0.7529,-0.7745,-0.7523,-0.7349,-0.723,-0.7406,-0.6847,-0.6093,-0.5384,-0.5013,-0.4524,-0.3796,-0.2762,-0.1713,-0.1041,-0.0949,-0.0943,-0.0864,-0.0152,0.0517,0.1022,0.1665,0.2338,0.2963,0.3472,0.3912,0.4267,0.4352,0.4606,0.5128,0.5436,0.5546,0.5558,0.6013,0.6051,0.5692,0.5449,0.5042,0.4771,0.3819,0.2788,0.2162,0.134,0.042,0.0,0.0,0.0,-0.3128,-0.3839,-0.4301,-0.4187,-0.4017,-0.3767,-0.3339,-0.2019,-0.0644,0.0564,0.1197,0.2011,0.3301,0.3542,0.3911,0.4695,0.5431,0.6251,0.7156,0.7275,0.7071,0.661,0.5356,0.4633,0.4515,0.2405,0.0777,-0.0268,-0.2037,-0.3074,-0.3465,-0.3946,-0.4851,-0.6181,-0.6065,-0.6595,-0.7593,-0.7442,-0.7367,-0.7411,-0.7096,-0.6883,-0.6565,-0.532,-0.4711,-0.4498,-0.4148,-0.3941,-0.3855,-0.4036,-0.4047,-0.415,-0.4416,-0.458,-0.4769,-0.4978,-0.557,-0.6219,-0.6714,-0.6945,-0.7144,-0.7547,-0.7753,-0.7952,-0.7952,-0.8218,-0.8374,-0.8221,-0.8015,-0.79,-0.7926,-0.7521,-0.7005,-0.6468,-0.5905,-0.5277,-0.4753,-0.3716,-0.2693,-0.1821,-0.1652,-0.1571,-0.1492,-0.0751,-0.0073,0.0583,0.0947,0.148,0.2315,0.2675,0.2984,0.3309,0.3485,0.3776,0.4115,0.4603,0.4784,0.4714,0.5048,0.5157,0.5056,0.483,0.4443,0.57,0.4902,0.3902,0.2991,0.2248,0.1271,-0.0489,0.0,-0.1834,-0.326,0.0,-0.39,-0.4299,0.0,0.0,-0.1263,-0.0755,0.0266,0.2678,0.2646,0.2688,0.3567,0.3824,0.4328,0.5295,0.6478,0.7432,0.8019,0.8229,0.7991,0.7231,0.62,0.5089,0.3867,0.2051,0.0573,-0.0626,-0.2091,-0.3031,-0.3424,-0.3842,-0.4791,-0.6181,-0.6297,-0.6971,-0.8009,-0.7934,-0.8025,-0.825,-0.7633,-0.7352,-0.7202,-0.597,-0.5428,-0.5287,-0.4796,-0.4569,-0.4572,-0.4572,-0.4628,-0.4699,-0.497,-0.538,-0.5756,-0.6147,-0.6594,-0.7021,-0.6839,-0.7341,-0.7839,-0.7646,-0.7928,-0.8305,-0.8305,-0.8485,-0.8598,-0.8724,-0.8545,-0.8344,-0.8292,-0.8099,-0.7786,-0.7081,-0.6435,-0.5841,-0.5395,-0.4641,-0.3985,-0.3325,-0.2861,-0.2511,-0.2118,-0.1502,-0.1021,-0.0729,0.0135,0.0708,0.0837,0.1094,0.1389,0.1682,0.2465,0.2873,0.2709,0.3459,0.37,0.3343,0.3582,0.4001,0.4497,0.4326,0.4004,0.6171,0.5661,0.4884,0.3382,0.2506,0.1642,0.0238,-0.0721,-0.1582,-0.2578,0.0,0.0,0.0,0.0,0.0,0.0,0.1425,0.1946,0.2808,0.3491,0.3967,0.4198,0.4295,0.4881,0.6238,0.7206,0.8041,0.8726,0.863,0.8139,0.7175,0.6435,0.5573,0.4583,0.2415,0.0656,-0.067,-0.1844,-0.272,-0.3324,-0.3842,-0.4791,-0.6117,-0.6237,-0.6971,-0.808,-0.808,-0.8098,-0.8178,-0.8097,-0.7882,-0.7504,-0.6833,-0.6285,-0.5823,-0.5416,-0.5233,-0.5108,-0.5015,-0.5085,-0.5181,-0.5334,-0.5605,-0.5989,-0.6302,-0.6639,-0.7042,-0.7244,-0.7543,-0.7743,-0.7842,-0.8137,-0.8333,-0.8237,-0.8583,-0.8947,-0.881,-0.8818,-0.8891,-0.8977,-0.8445,-0.8007,-0.7934,-0.7378,-0.6702,-0.6204,-0.5635,-0.4964,-0.4309,-0.3859,-0.335,-0.2919,-0.2379,-0.2023,-0.171,-0.1384,-0.1064,-0.0625,-0.0347,-0.0108,0.0105,0.0597,0.0958,0.1266,0.1729,0.2135,0.252,0.27,0.2976,0.3251,0.3524,0.3449,0.6642,0.6091,0.5275,0.39,0.2877,0.1927,0.0878,-0.0041,-0.0827,-0.1376,-0.2171,0.0,0.0,0.0,0.068,0.2531,0.0,0.3548,0.3054,0.413,0.4882,0.4672,0.5087,0.5901,0.7273,0.8019,0.8761,0.961,0.9258,0.8634,0.7751,0.6813,0.5812,0.4743,0.2576,0.0784,-0.0591,-0.1609,-0.2478,-0.3166,-0.3803,-0.4734,-0.5936,-0.6121,-0.6848,-0.8009,-0.8009,-0.8029,-0.8106,-0.8236,-0.8137,-0.7777,-0.7496,-0.7024,-0.648,-0.5957,-0.5801,-0.5726,-0.5445,-0.5538,-0.5679,-0.5689,-0.592,-0.623,-0.6412,-0.6742,-0.7144,-0.7447,-0.7646,-0.7743,-0.7939,-0.8137,-0.8237,-0.8137,-0.8535,-0.8931,-0.8928,-0.9031,-0.9268,-0.9332,-0.8804,-0.837,-0.843,-0.7927,-0.7389,-0.6913,-0.6446,-0.593,-0.5185,-0.4766,-0.4262,-0.3709,-0.3318,-0.3018,-0.2661,-0.2845,-0.2739,-0.2148,-0.1861,-0.1642,-0.1397,-0.1288,-0.0917,-0.0223,0.0,0.0533,0.1337,0.1585,0.1795,0.1934,0.2576,0.2755,0.726,0.6078,0.4821,0.4749,0.3607,0.2222,0.1219,0.0953,0.081,0.0404,0.0336,-0.0089,-0.1543,-0.0806,0.087,0.3525,0.457,0.0,0.0,0.4617,0.5019,0.4823,0.6276,0.7608,0.8378,0.9052,0.9838,1.077,1.0348,0.9888,0.9523,0.7595,0.5573,0.3532,0.2243,0.0961,-0.0379,-0.1534,-0.2362,-0.2808,-0.3512,-0.4502,-0.5699,-0.6061,-0.6784,-0.7801,-0.7801,-0.7888,-0.8119,-0.8147,-0.8091,-0.7946,-0.7701,-0.7527,-0.7319,-0.6438,-0.6164,-0.6276,-0.5996,-0.6062,-0.6282,-0.6393,-0.6534,-0.6739,-0.6742,-0.7144,-0.7547,-0.7547,-0.7743,-0.7939,-0.8038,-0.8038,-0.8038,-0.8333,-0.8432,-0.8535,-0.9034,-0.9236,-0.9135,-0.9079,-0.91,-0.889,-0.8267,-0.7856,-0.7487,-0.7416,-0.7199,-0.6831,-0.62,-0.5777,-0.5263,-0.454,-0.4426,-0.4166,-0.3774,-0.3806,-0.3822,-0.3752,-0.345,-0.3163,-0.2863,-0.2807,-0.2464,-0.1739,-0.1471,-0.1114,-0.0623,-0.0,0.042,0.0757,0.1621,0.1881,0.5798,0.5447,0.5331,0.3951,0.3384,0.293,0.2002,0.1591,0.131,0.0995,0.0736,0.0587,0.0671,0.1207,0.2318,0.4327,0.4831,0.5087,0.0,0.612,0.6597,0.6538,0.7034,0.7687,0.844,0.9635,1.0543,1.1001,1.0369,0.9589,0.871,0.6844,0.4627,0.2095,0.1558,0.0713,-0.0665,-0.1138,-0.1746,-0.2552,-0.308,-0.3817,-0.4729,-0.5336,-0.6081,-0.699,-0.7394,-0.7671,-0.771,-0.8095,-0.8176,-0.8044,-0.8177,-0.8051,-0.784,-0.7028,-0.6749,-0.6889,-0.678,-0.6801,-0.6883,-0.6924,-0.7039,-0.7138,-0.7244,-0.7507,-0.7762,-0.7869,-0.8012,-0.817,-0.8065,-0.8038,-0.8038,-0.8137,-0.8233,-0.8432,-0.8634,-0.875,-0.8836,-0.9005,-0.861,-0.8238,-0.8395,-0.8016,-0.7694,-0.7554,-0.7431,-0.7118,-0.6665,-0.6146,-0.567,-0.524,-0.5179,-0.5041,-0.4695,-0.4791,-0.4838,-0.4695,-0.4433,-0.4161,-0.377,-0.3638,-0.3258,-0.2586,-0.2368,-0.2027,-0.1543,-0.0929,-0.0496,-0.0281,0.0408,0.1018,0.4903,0.4914,0.5105,0.365,0.343,0.3405,0.277,0.2481,0.2345,0.2314,0.217,0.2251,0.2918,0.3259,0.3769,0.4854,0.5257,0.5741,0.0,0.7139,0.7545,0.7829,0.7839,0.8097,0.8761,0.9991,1.0822,1.0956,1.0583,0.9845,0.8662,0.6865,0.4784,0.2449,0.1503,0.06,-0.0243,-0.0747,-0.1396,-0.217,-0.2802,-0.3455,-0.4186,-0.4904,-0.566,-0.6425,-0.6875,-0.7308,-0.7568,-0.8011,-0.8191,-0.8221,-0.8356,-0.8313,-0.82,-0.771,-0.7449,-0.7416,-0.7359,-0.7238,-0.7238,-0.7238,-0.7238,-0.7341,-0.7547,-0.7844,-0.8037,-0.8046,-0.8194,-0.8248,-0.8147,-0.8079,-0.8038,-0.8038,-0.8137,-0.8333,-0.8528,-0.855,-0.8642,-0.9005,-0.852,-0.815,-0.8391,-0.8282,-0.8039,-0.772,-0.7598,-0.7364,-0.7058,-0.6485,-0.6046,-0.5755,-0.5674,-0.5616,-0.5349,-0.5402,-0.5312,-0.5089,-0.4853,-0.4511,-0.4072,-0.3873,-0.3571,-0.317,-0.2948,-0.2693,-0.2361,-0.1622,-0.1089,-0.0823,-0.0341,0.0186]}]]